[[{"header":{"parameterUnit":"m.s-1","parameterCategory":1,"la1":31.0,"la2":29.5877,"lo1":-88.7671,"lo2":-86.6584,"dy":0.0162,"dx":0.0185,"nx":115,"ny":88,"refTime":"2024-12-01T18:00:00:Z","depth":0,"parameterNumber":2,"parameterNumberName":"U-component_of_WINDS"},"data":[0.0,0.0,0.0,0.0,0.0,0.0,0.0,0.0,0.0,0.0,0.0,0.0,0.0,0.0,0.0,0.0,0.0,0.0,0.0,0.0,0.0,0.0,0.0,0.0,0.0,0.0,0.0,0.0,0.0,0.0,0.0,0.0,0.0,0.0,0.0,0.0,0.0,0.0,0.0,0.0,0.0,0.0,0.0,0.0,0.0,0.0,0.0,0.0,0.0,0.0,0.0,0.0,0.0,0.0,0.0,0.0,0.0,0.0,0.0,0.0,0.0,0.0,0.0,0.0,0.0,0.0,0.0,0.0,0.0,0.0,0.0,0.0,0.0,0.0,0.0,0.0,0.0,0.0,0.0,0.0,0.0,0.0,0.0,0.0,0.0,0.0,0.0,0.0,0.0,0.0,0.0,0.0,0.0,0.0,0.0,0.0,0.0,0.0,0.0,0.0,0.0,0.0,0.0,0.0,0.0,0.0,0.0,0.0,0.0,0.0,0.0,0.0,0.0,0.0,0.0,0.0,0.0,0.0,0.0,0.0,0.0,0.0,0.0,0.0,0.0,0.0,0.0,0.0,0.0,0.0,0.0,0.0,0.0,0.0,0.0,0.0,0.0,0.0,0.0,0.0,0.0,0.0,0.0,0.0,0.0,0.0,0.0,0.0,0.0,0.0,0.0,0.0,0.0,0.0,0.0,0.0,0.0,0.0,0.0,0.0,0.0,0.0,0.0,0.0,0.0,0.0,0.0,0.0,0.0,0.0,0.0,0.0,0.0,0.0,0.0,0.0,0.0,0.0,0.0,0.0,0.0,0.0,0.0,0.0,0.0,0.0,0.0,0.0,0.0,0.0,0.0,0.0,0.0,0.0,0.0,0.0,0.0,0.0,0.0,0.0,0.0,0.0,0.0,0.0,0.0,0.0,0.0,0.0,0.0,0.0,0.0,0.0,0.0,0.0,0.0,0.0,0.0,0.0,0.0,0.0,0.0,0.0,0.0,0.0,0.0,0.0,0.0,0.0,0.0,0.0,0.0,0.0,0.0,0.0,0.0,0.0,0.0,0.0,0.0,0.0,0.0,0.0,0.0,0.0,0.0,0.0,0.0,0.0,0.0,0.0,0.0,0.0,0.0,0.0,0.0,0.0,0.0,0.0,0.0,0.0,0.0,0.0,0.0,0.0,0.0,0.0,0.0,0.0,0.0,0.0,0.0,0.0,0.0,0.0,0.0,0.0,0.0,0.0,0.0,0.0,0.0,0.0,0.0,0.0,0.0,0.0,0.0,0.0,0.0,0.0,0.0,0.0,0.0,0.0,0.0,0.0,0.0,0.0,0.0,0.0,0.0,0.0,0.0,0.0,0.0,0.0,0.0,0.0,0.0,0.0,0.0,0.0,0.0,0.0,0.0,0.0,0.0,0.0,0.0,0.0,0.0,0.0,0.0,0.0,0.0,0.0,0.0,0.0,0.0,0.0,0.0,0.0,0.0,0.0,0.0,0.0,0.0,0.0,0.0,0.0,0.0,0.0,0.0,0.0,0.0,0.0,0.0,0.0,0.0,0.0,0.0,0.0,0.0,0.0,0.0,0.0,0.0,0.0,0.0,0.0,0.0,0.0,0.0,0.0,0.0,0.0,0.0,0.0,0.0,0.0,0.0,0.0,0.0,0.0,0.0,0.0,0.0,0.0,0.0,0.0,0.0,0.0,0.0,0.0,0.0,0.0,0.0,0.0,0.0,0.0,0.0,0.0,0.0,0.0,0.0,0.0,0.0,0.0,0.0,0.0,0.0,0.0,0.0,0.0,0.0,0.0,0.0,0.0,0.0,0.0,0.0,0.0,0.0,0.0,0.0,0.0,0.0,0.0,0.0,0.0,0.0,0.0,0.0,0.0,0.0,0.0,0.0,0.0,0.0,0.0,0.0,0.0,0.0,0.0,0.0,0.0,0.0,0.0,0.0,0.0,0.0,0.0,0.0,0.0,0.0,0.0,0.0,0.0,0.0,0.0,0.0,0.0,0.0,0.0,0.0,0.0,0.0,0.0,0.0,0.0,0.0,0.0,0.0,0.0,0.0,0.0,0.0,0.0,0.0,0.0,0.0,0.0,0.0,0.0,0.0,0.0,0.0,0.0,0.0,0.0,0.0,0.0,0.0,0.0,0.0,0.0,0.0,0.0,0.0,0.0,0.0,0.0,0.0,0.0,0.0,0.0,0.0,0.0,0.0,0.0,0.0,0.0,0.0,0.0,0.0,0.0,0.0,0.0,0.0,0.0,0.0,0.0,0.0,0.0,0.0,0.0,0.0,0.0,0.0,0.0,0.0,0.0,0.0,0.0,0.0,0.0,0.0,0.0,0.0,0.0,0.0,0.0,0.0,0.0,0.0,0.0,0.0,0.0,0.0,0.0,0.0,0.0,0.0,0.0,0.0,0.0,0.0,0.0,0.0,0.0,0.0,0.0,0.0,0.0,0.0,0.0,0.0,0.0,0.0,0.0,0.0,0.0,0.0,0.0,0.0,0.0,0.0,0.0,0.0,0.0,0.0,0.0,0.0,0.0,0.0,0.0,0.0,0.0,0.0,0.0,0.0,0.0,0.0,0.0,0.0,0.0,0.0,0.0,0.0,0.0,0.0,0.0,0.0,0.0,0.0,0.0,0.0,0.0,0.0,0.0,0.0,0.0,0.0,0.0,0.0,0.0,0.0,0.0,0.0,0.0,0.0,0.0,0.0,0.0,0.0,0.0,0.0,0.0,0.0,0.0,0.0,0.0,0.0,0.0,0.0,0.0,0.0,0.0,0.0,0.0,0.0,0.0,0.0,0.0,0.0,0.0,0.0,0.0,0.0,0.0,0.0,0.0,0.0,0.0,0.0,0.0,0.0,0.0,0.0,0.0,0.0,0.0,0.0,0.0,0.0,0.0,0.0,0.0,0.0,0.0,0.0,0.0,0.0,0.0,0.0,0.0,0.0,0.0,0.0,0.0,0.0,0.0,0.0,0.0,0.0,0.0,0.0,0.0,0.0,0.0,0.0,0.0,0.0,0.0,0.0,0.0,0.0,0.0,0.0,0.0,0.0,0.0,0.0,0.0,0.0,0.0,0.0,0.0,0.0,0.0,0.0,0.0,0.0,0.0,0.0,0.0,0.0,0.0,0.0,0.0,0.0,0.0,0.0,0.0,0.0,0.0,0.0,0.0,0.0,0.0,0.0,0.0,0.0,0.0,0.0,0.0,0.0,0.0,0.0,0.0,0.0,0.0,0.0,0.0,0.0,0.0,0.0,0.0,0.0,0.0,0.0,0.0,0.0,0.0,0.0,0.0,0.0,0.0,0.0,0.0,0.0,0.0,0.0,0.0,0.0,0.0,0.0,0.0,0.0,0.0,0.0,0.0,0.0,0.0,0.0,0.0,0.0,0.0,0.0,0.0,0.0,0.0,0.0,0.0,0.0,0.0,0.0,0.0,0.0,0.0,0.0,0.0,0.0,0.0,0.0,0.0,0.0,0.0,0.0,0.0,0.0,0.0,0.0,0.0,0.0,0.0,0.0,0.0,0.0,0.0,0.0,0.0,0.0,0.0,0.0,0.0,0.0,0.0,0.0,0.0,0.0,0.0,0.0,0.0,0.0,0.0,0.0,0.0,0.0,0.0,0.0,0.0,0.0,0.0,0.0,0.0,0.0,0.0,0.0,0.0,0.0,0.0,0.0,0.0,0.0,0.0,0.0,0.0,0.0,0.0,0.0,0.0,0.0,0.0,0.0,0.0,0.0,0.0,0.0,0.0,0.0,0.0,0.0,0.0,0.0,0.0,0.0,0.0,0.0,0.0,0.0,0.0,0.0,0.0,0.0,0.0,0.0,0.0,0.0,0.0,0.0,0.0,0.0,0.0,0.0,0.0,0.0,0.0,0.0,0.0,0.0,0.0,0.0,0.0,0.0,0.0,0.0,0.0,0.0,0.0,0.0,0.0,0.0,0.0,0.0,0.0,0.0,0.0,0.0,0.0,0.0,0.0,0.0,0.0,0.0,0.0,0.0,0.0,0.0,0.0,0.0,0.0,0.0,0.0,0.0,0.0,0.0,0.0,0.0,0.0,0.0,0.0,0.0,0.0,0.0,0.0,0.0,0.0,0.0,0.0,0.0,0.0,0.0,0.0,0.0,0.0,0.0,0.0,0.0,0.0,0.0,0.0,0.0,0.0,0.0,0.0,0.0,0.0,0.0,0.0,0.0,0.0,0.0,0.0,0.0,0.0,0.0,0.0,0.0,0.0,0.0,0.0,0.0,0.0,0.0,0.0,-1.7718,0.0,0.0,0.0,0.0,0.0,0.0,0.0,0.0,0.0,0.0,0.0,0.0,0.0,0.0,0.0,0.0,0.0,0.0,0.0,0.0,0.0,0.0,0.0,0.0,0.0,0.0,0.0,0.0,0.0,0.0,0.0,0.0,0.0,0.0,0.0,0.0,0.0,0.0,0.0,0.0,0.0,0.0,0.0,0.0,0.0,0.0,0.0,0.0,0.0,0.0,0.0,0.0,0.0,0.0,0.0,0.0,0.0,0.0,0.0,0.0,0.0,0.0,0.0,0.0,0.0,0.0,0.0,0.0,0.0,0.0,0.0,0.0,0.0,0.0,0.0,0.0,0.0,0.0,0.0,0.0,0.0,0.0,0.0,0.0,0.0,0.0,0.0,0.0,0.0,0.0,0.0,0.0,0.0,0.0,0.0,0.0,0.0,0.0,0.0,0.0,0.0,0.0,0.0,0.0,0.0,0.0,0.0,0.0,0.0,0.0,-2.0021,-2.0007,-1.8759,-1.7882,-1.7477,0.0,0.0,0.0,0.0,0.0,0.0,0.0,0.0,0.0,0.0,0.0,0.0,0.0,0.0,0.0,0.0,0.0,0.0,0.0,0.0,0.0,0.0,0.0,0.0,0.0,0.0,0.0,0.0,0.0,0.0,0.0,0.0,0.0,0.0,0.0,0.0,0.0,0.0,0.0,0.0,0.0,0.0,0.0,0.0,0.0,0.0,0.0,0.0,0.0,0.0,0.0,0.0,0.0,0.0,0.0,0.0,0.0,0.0,0.0,0.0,0.0,0.0,0.0,0.0,0.0,0.0,0.0,0.0,0.0,0.0,0.0,0.0,0.0,0.0,0.0,0.0,0.0,0.0,0.0,0.0,0.0,0.0,0.0,0.0,0.0,0.0,0.0,0.0,0.0,0.0,0.0,0.0,0.0,0.0,0.0,0.0,0.0,0.0,0.0,0.0,0.0,0.0,0.0,0.0,0.0,0.0,0.0,0.0,0.0,0.0,0.0,0.0,-1.855,-1.7687,-1.7296,0.0,0.0,0.0,0.0,0.0,0.0,0.0,0.0,0.0,0.0,0.0,0.0,0.0,0.0,0.0,0.0,0.0,0.0,0.0,0.0,0.0,0.0,0.0,0.0,0.0,0.0,0.0,0.0,0.0,0.0,0.0,0.0,0.0,0.0,0.0,0.0,0.0,0.0,0.0,0.0,0.0,0.0,0.0,0.0,0.0,0.0,0.0,0.0,0.0,0.0,0.0,0.0,0.0,0.0,0.0,0.0,0.0,0.0,0.0,0.0,0.0,0.0,0.0,0.0,0.0,0.0,0.0,0.0,0.0,0.0,0.0,0.0,0.0,0.0,0.0,0.0,0.0,0.0,0.0,0.0,0.0,0.0,0.0,0.0,0.0,0.0,0.0,0.0,0.0,0.0,0.0,0.0,0.0,0.0,0.0,0.0,0.0,0.0,0.0,0.0,0.0,0.0,0.0,0.0,0.0,0.0,0.0,0.0,0.0,0.0,-1.9809,-1.9809,-1.9639,0.0,-1.7385,0.0,0.0,0.0,0.0,0.0,0.0,0.0,0.0,0.0,0.0,0.0,0.0,0.0,0.0,0.0,0.0,0.0,0.0,0.0,0.0,0.0,0.0,0.0,0.0,0.0,0.0,0.0,0.0,0.0,0.0,0.0,0.0,0.0,0.0,0.0,0.0,0.0,0.0,0.0,0.0,0.0,0.0,0.0,0.0,0.0,0.0,0.0,0.0,0.0,0.0,0.0,0.0,0.0,0.0,0.0,0.0,0.0,0.0,0.0,0.0,0.0,0.0,0.0,0.0,0.0,0.0,0.0,0.0,0.0,0.0,0.0,0.0,0.0,0.0,0.0,0.0,0.0,0.0,0.0,0.0,0.0,0.0,0.0,0.0,0.0,0.0,0.0,0.0,0.0,0.0,0.0,0.0,0.0,0.0,0.0,0.0,0.0,0.0,0.0,0.0,0.0,0.0,0.0,0.0,0.0,0.0,0.0,0.0,0.0,0.0,0.0,-1.9492,-1.8588,-1.7565,0.0,0.0,0.0,0.0,0.0,0.0,0.0,0.0,0.0,0.0,0.0,0.0,0.0,0.0,0.0,0.0,0.0,0.0,0.0,0.0,0.0,0.0,0.0,0.0,0.0,0.0,0.0,0.0,0.0,0.0,0.0,0.0,0.0,0.0,0.0,0.0,0.0,0.0,0.0,0.0,0.0,0.0,0.0,0.0,0.0,0.0,0.0,0.0,0.0,0.0,0.0,0.0,0.0,0.0,0.0,0.0,0.0,0.0,0.0,0.0,0.0,0.0,0.0,0.0,0.0,0.0,0.0,0.0,0.0,0.0,0.0,0.0,0.0,0.0,0.0,0.0,0.0,0.0,0.0,0.0,0.0,0.0,0.0,0.0,0.0,0.0,0.0,0.0,0.0,0.0,0.0,0.0,0.0,0.0,0.0,0.0,0.0,0.0,0.0,0.0,0.0,0.0,0.0,0.0,0.0,0.0,0.0,0.0,0.0,0.0,-1.9279,0.0,-1.9242,-1.8188,-1.7127,-1.6207,0.0,0.0,0.0,0.0,0.0,0.0,0.0,0.0,0.0,0.0,0.0,0.0,0.0,0.0,0.0,0.0,0.0,0.0,0.0,0.0,0.0,0.0,0.0,0.0,0.0,0.0,0.0,0.0,0.0,0.0,0.0,0.0,0.0,0.0,0.0,0.0,0.0,0.0,0.0,0.0,0.0,0.0,0.0,0.0,0.0,0.0,0.0,0.0,0.0,0.0,0.0,0.0,0.0,0.0,0.0,0.0,0.0,0.0,0.0,0.0,0.0,0.0,0.0,0.0,0.0,0.0,0.0,0.0,0.0,0.0,0.0,0.0,0.0,0.0,0.0,0.0,0.0,0.0,0.0,0.0,0.0,0.0,0.0,0.0,0.0,0.0,0.0,0.0,0.0,0.0,0.0,0.0,0.0,0.0,0.0,0.0,0.0,0.0,0.0,0.0,0.0,0.0,0.0,0.0,0.0,0.0,0.0,0.0,0.0,-1.9279,-1.9279,-1.9279,-1.9231,-1.8445,0.0,0.0,0.0,0.0,0.0,0.0,0.0,0.0,0.0,0.0,0.0,0.0,0.0,0.0,0.0,0.0,0.0,0.0,0.0,0.0,0.0,0.0,0.0,0.0,0.0,0.0,0.0,0.0,0.0,0.0,0.0,0.0,0.0,0.0,0.0,0.0,0.0,0.0,0.0,0.0,0.0,0.0,0.0,0.0,0.0,0.0,0.0,0.0,0.0,0.0,0.0,0.0,0.0,0.0,0.0,0.0,0.0,0.0,0.0,0.0,0.0,0.0,0.0,0.0,0.0,0.0,0.0,0.0,0.0,0.0,0.0,0.0,0.0,0.0,0.0,0.0,0.0,0.0,0.0,0.0,0.0,0.0,0.0,0.0,0.0,0.0,0.0,0.0,0.0,0.0,0.0,0.0,0.0,0.0,0.0,0.0,0.0,0.0,0.0,0.0,0.0,0.0,0.0,0.0,0.0,0.0,0.0,0.0,0.0,-1.9279,-1.9279,-1.9279,-1.926,-1.8309,-1.7477,0.0,0.0,0.0,0.0,0.0,0.0,0.0,0.0,0.0,0.0,0.0,0.0,0.0,0.0,0.0,0.0,0.0,0.0,0.0,0.0,0.0,0.0,0.0,0.0,0.0,0.0,0.0,0.0,0.0,0.0,0.0,0.0,0.0,0.0,0.0,0.0,0.0,0.0,0.0,0.0,0.0,0.0,0.0,0.0,0.0,0.0,0.0,0.0,0.0,0.0,0.0,0.0,0.0,0.0,0.0,0.0,0.0,0.0,0.0,0.0,0.0,0.0,0.0,0.0,0.0,0.0,0.0,0.0,0.0,0.0,0.0,0.0,0.0,0.0,0.0,0.0,0.0,0.0,0.0,0.0,0.0,0.0,0.0,0.0,0.0,0.0,0.0,0.0,0.0,0.0,0.0,0.0,0.0,0.0,0.0,0.0,0.0,0.0,0.0,0.0,0.0,0.0,0.0,0.0,0.0,0.0,0.0,0.0,0.0,-1.9091,0.0,-1.9123,0.0,-1.7877,-1.7077,0.0,0.0,0.0,0.0,0.0,0.0,0.0,0.0,0.0,0.0,0.0,0.0,0.0,0.0,0.0,0.0,0.0,0.0,0.0,0.0,0.0,0.0,0.0,0.0,0.0,0.0,0.0,0.0,0.0,0.0,0.0,0.0,0.0,0.0,0.0,0.0,0.0,0.0,0.0,0.0,0.0,0.0,0.0,0.0,0.0,0.0,0.0,0.0,0.0,0.0,0.0,0.0,0.0,0.0,0.0,0.0,0.0,0.0,0.0,0.0,0.0,0.0,0.0,0.0,0.0,0.0,0.0,0.0,0.0,0.0,0.0,0.0,0.0,0.0,0.0,0.0,0.0,0.0,0.0,0.0,0.0,0.0,0.0,0.0,0.0,0.0,0.0,0.0,0.0,0.0,0.0,0.0,0.0,0.0,0.0,0.0,0.0,0.0,0.0,0.0,0.0,0.0,0.0,0.0,0.0,0.0,0.0,0.0,0.0,-1.8604,-1.8614,-1.8752,-1.8966,-1.81,-1.741,0.0,0.0,0.0,0.0,0.0,0.0,0.0,0.0,0.0,0.0,0.0,0.0,0.0,0.0,0.0,0.0,0.0,0.0,0.0,0.0,0.0,0.0,0.0,0.0,0.0,0.0,0.0,0.0,0.0,0.0,0.0,0.0,0.0,0.0,0.0,0.0,0.0,0.0,0.0,0.0,0.0,0.0,0.0,0.0,0.0,0.0,0.0,0.0,0.0,0.0,0.0,0.0,0.0,0.0,0.0,0.0,0.0,0.0,0.0,0.0,0.0,0.0,0.0,0.0,0.0,0.0,0.0,0.0,0.0,0.0,0.0,0.0,0.0,0.0,0.0,0.0,0.0,0.0,0.0,0.0,0.0,0.0,0.0,0.0,0.0,0.0,0.0,0.0,0.0,0.0,0.0,0.0,0.0,0.0,0.0,0.0,0.0,0.0,0.0,0.0,0.0,0.0,0.0,0.0,0.0,0.0,0.0,0.0,0.0,-1.7835,-1.833,-1.865,-1.8671,-1.7434,-1.6703,0.0,0.0,0.0,0.0,0.0,0.0,0.0,0.0,0.0,0.0,0.0,0.0,0.0,0.0,0.0,0.0,0.0,0.0,0.0,0.0,0.0,0.0,0.0,0.0,0.0,0.0,0.0,0.0,0.0,0.0,0.0,0.0,0.0,0.0,0.0,0.0,0.0,0.0,0.0,0.0,0.0,0.0,0.0,0.0,0.0,0.0,0.0,0.0,0.0,0.0,0.0,0.0,0.0,0.0,0.0,0.0,0.0,0.0,0.0,0.0,0.0,0.0,0.0,0.0,0.0,0.0,0.0,0.0,0.0,0.0,0.0,0.0,0.0,0.0,0.0,0.0,0.0,0.0,0.0,0.0,0.0,0.0,0.0,0.0,0.0,0.0,0.0,0.0,0.0,0.0,0.0,0.0,0.0,0.0,0.0,0.0,0.0,0.0,0.0,0.0,0.0,0.0,0.0,0.0,0.0,0.0,0.0,0.0,0.0,-1.7233,-1.7919,-1.8211,-1.804,-1.68,-1.6102,-1.5944,0.0,0.0,0.0,0.0,0.0,0.0,0.0,0.0,0.0,0.0,0.0,0.0,0.0,0.0,0.0,0.0,0.0,0.0,0.0,0.0,0.0,0.0,0.0,0.0,0.0,0.0,0.0,0.0,0.0,0.0,0.0,0.0,0.0,0.0,0.0,0.0,0.0,0.0,0.0,0.0,0.0,0.0,0.0,0.0,0.0,0.0,0.0,0.0,0.0,0.0,0.0,0.0,0.0,0.0,0.0,0.0,0.0,0.0,0.0,0.0,0.0,0.0,0.0,0.0,0.0,0.0,0.0,0.0,0.0,0.0,0.0,0.0,0.0,0.0,0.0,0.0,0.0,0.0,0.0,0.0,0.0,0.0,0.0,0.0,0.0,0.0,0.0,0.0,0.0,0.0,0.0,0.0,0.0,0.0,0.0,0.0,0.0,0.0,0.0,0.0,0.0,0.0,0.0,0.0,0.0,0.0,0.0,0.0,-1.6648,-1.7371,-1.7563,-1.7178,-1.6334,-1.5662,0.0,0.0,0.0,0.0,0.0,0.0,0.0,0.0,0.0,0.0,0.0,0.0,0.0,0.0,0.0,0.0,0.0,0.0,0.0,0.0,0.0,0.0,0.0,0.0,0.0,0.0,0.0,0.0,0.0,0.0,0.0,0.0,0.0,0.0,0.0,0.0,0.0,0.0,0.0,0.0,0.0,0.0,0.0,0.0,0.0,0.0,0.0,0.0,0.0,0.0,0.0,0.0,0.0,0.0,0.0,0.0,0.0,0.0,0.0,0.0,0.0,0.0,0.0,0.0,0.0,0.0,0.0,0.0,0.0,0.0,0.0,0.0,0.0,0.0,0.0,0.0,0.0,0.0,0.0,0.0,0.0,0.0,0.0,0.0,0.0,0.0,0.0,0.0,0.0,0.0,0.0,0.0,0.0,0.0,0.0,0.0,0.0,0.0,0.0,0.0,0.0,0.0,0.0,0.0,0.0,0.0,0.0,0.0,0.0,-1.596,-1.6604,-1.7194,-1.7565,-1.6363,-1.5934,0.0,0.0,0.0,0.0,0.0,0.0,0.0,0.0,0.0,0.0,0.0,0.0,0.0,0.0,0.0,0.0,0.0,0.0,0.0,0.0,0.0,0.0,0.0,0.0,0.0,0.0,0.0,0.0,0.0,0.0,0.0,0.0,0.0,0.0,0.0,0.0,0.0,0.0,0.0,0.0,0.0,0.0,0.0,0.0,0.0,0.0,0.0,0.0,0.0,0.0,0.0,0.0,0.0,0.0,0.0,0.0,0.0,0.0,0.0,0.0,0.0,0.0,0.0,0.0,0.0,0.0,0.0,0.0,0.0,0.0,0.0,0.0,0.0,0.0,0.0,0.0,0.0,0.0,0.0,0.0,0.0,0.0,0.0,0.0,0.0,0.0,0.0,0.0,0.0,0.0,0.0,0.0,0.0,0.0,0.0,0.0,0.0,0.0,0.0,0.0,0.0,0.0,0.0,0.0,0.0,0.0,0.0,0.0,-1.6105,-1.5702,-1.5929,-1.6411,-1.7132,-1.6153,-1.5841,0.0,0.0,0.0,0.0,0.0,0.0,0.0,0.0,0.0,0.0,0.0,0.0,0.0,0.0,0.0,0.0,0.0,0.0,0.0,0.0,0.0,0.0,0.0,0.0,0.0,0.0,0.0,0.0,0.0,0.0,0.0,0.0,0.0,0.0,0.0,0.0,0.0,0.0,0.0,0.0,0.0,0.0,0.0,0.0,0.0,0.0,0.0,0.0,0.0,0.0,0.0,0.0,0.0,0.0,0.0,0.0,0.0,0.0,0.0,0.0,0.0,0.0,0.0,0.0,0.0,0.0,0.0,0.0,0.0,0.0,0.0,0.0,0.0,0.0,0.0,0.0,0.0,0.0,0.0,0.0,0.0,0.0,0.0,0.0,0.0,0.0,0.0,0.0,0.0,0.0,0.0,0.0,0.0,0.0,0.0,0.0,0.0,0.0,0.0,0.0,0.0,0.0,0.0,0.0,0.0,0.0,0.0,0.0,-1.5751,-1.5686,-1.5261,-1.5347,-1.6006,-1.5751,-1.5629,0.0,0.0,0.0,0.0,0.0,0.0,0.0,0.0,0.0,0.0,0.0,0.0,0.0,0.0,0.0,0.0,0.0,0.0,0.0,0.0,0.0,0.0,0.0,0.0,0.0,0.0,0.0,0.0,0.0,0.0,0.0,0.0,0.0,0.0,0.0,0.0,0.0,0.0,0.0,0.0,0.0,0.0,0.0,0.0,0.0,0.0,0.0,0.0,0.0,0.0,0.0,0.0,0.0,0.0,0.0,0.0,0.0,0.0,0.0,0.0,0.0,0.0,0.0,0.0,0.0,0.0,0.0,0.0,0.0,0.0,0.0,0.0,0.0,0.0,0.0,0.0,0.0,0.0,0.0,0.0,0.0,0.0,0.0,0.0,0.0,0.0,0.0,0.0,0.0,0.0,0.0,0.0,0.0,0.0,0.0,0.0,0.0,0.0,0.0,0.0,0.0,0.0,0.0,0.0,0.0,0.0,0.0,0.0,-1.5502,-1.4938,-1.4352,-1.4088,-1.4255,-1.5125,-1.5876,0.0,0.0,0.0,0.0,0.0,0.0,0.0,0.0,0.0,0.0,0.0,0.0,0.0,0.0,0.0,0.0,0.0,0.0,0.0,0.0,0.0,0.0,0.0,0.0,0.0,0.0,0.0,0.0,0.0,0.0,0.0,0.0,0.0,0.0,0.0,0.0,0.0,0.0,0.0,0.0,0.0,0.0,0.0,0.0,0.0,0.0,0.0,0.0,-1.8,0.0,0.0,0.0,0.0,0.0,0.0,0.0,0.0,0.0,0.0,0.0,0.0,0.0,0.0,0.0,0.0,0.0,0.0,0.0,0.0,0.0,0.0,0.0,0.0,0.0,0.0,0.0,0.0,0.0,0.0,0.0,0.0,0.0,0.0,0.0,0.0,0.0,0.0,0.0,0.0,0.0,0.0,0.0,0.0,0.0,0.0,0.0,0.0,0.0,0.0,0.0,0.0,0.0,0.0,0.0,0.0,0.0,0.0,0.0,-1.4657,-1.4264,-1.3429,-1.3157,-1.3532,-1.4587,-1.5442,0.0,0.0,0.0,0.0,0.0,0.0,0.0,0.0,0.0,0.0,0.0,0.0,0.0,0.0,0.0,0.0,0.0,0.0,0.0,0.0,0.0,0.0,0.0,0.0,0.0,0.0,0.0,0.0,0.0,0.0,0.0,0.0,0.0,0.0,0.0,0.0,0.0,0.0,0.0,0.0,0.0,0.0,0.0,0.0,0.0,0.0,0.0,0.0,0.0,0.0,0.0,0.0,0.0,0.0,0.0,0.0,0.0,0.0,0.0,0.0,0.0,0.0,0.0,0.0,0.0,0.0,0.0,0.0,0.0,0.0,0.0,0.0,0.0,0.0,0.0,0.0,0.0,0.0,0.0,0.0,0.0,0.0,0.0,0.0,0.0,0.0,0.0,0.0,0.0,0.0,0.0,0.0,0.0,0.0,0.0,0.0,0.0,0.0,0.0,0.0,0.0,0.0,0.0,0.0,0.0,0.0,0.0,-1.4483,-1.3797,-1.3765,-1.2719,-1.2447,-1.3053,-1.4038,-1.4666,0.0,0.0,0.0,0.0,0.0,0.0,0.0,0.0,0.0,0.0,0.0,0.0,0.0,0.0,0.0,0.0,0.0,0.0,0.0,0.0,0.0,0.0,0.0,0.0,0.0,0.0,0.0,0.0,0.0,0.0,0.0,0.0,0.0,0.0,0.0,0.0,0.0,0.0,0.0,-1.5955,-1.6438,0.0,0.0,0.0,0.0,0.0,0.0,0.0,0.0,-1.7641,0.0,0.0,0.0,0.0,0.0,0.0,0.0,0.0,0.0,0.0,0.0,0.0,0.0,0.0,0.0,0.0,0.0,0.0,0.0,0.0,0.0,0.0,0.0,0.0,0.0,0.0,0.0,0.0,0.0,0.0,0.0,0.0,0.0,0.0,0.0,0.0,0.0,0.0,0.0,0.0,0.0,0.0,0.0,0.0,0.0,0.0,0.0,0.0,0.0,0.0,0.0,0.0,0.0,0.0,0.0,0.0,-1.5813,-1.4483,-1.3797,-1.3782,-1.2527,-1.1925,-1.2083,-1.3283,-1.3803,-1.3599,0.0,0.0,0.0,0.0,0.0,0.0,0.0,0.0,0.0,0.0,0.0,0.0,0.0,0.0,0.0,0.0,0.0,0.0,0.0,0.0,0.0,0.0,0.0,0.0,0.0,0.0,0.0,0.0,0.0,0.0,0.0,0.0,0.0,0.0,0.0,0.0,0.0,0.0,0.0,-1.6859,-1.6532,0.0,0.0,0.0,0.0,0.0,0.0,0.0,0.0,-1.8075,0.0,0.0,0.0,0.0,0.0,0.0,0.0,0.0,0.0,0.0,0.0,0.0,0.0,0.0,0.0,0.0,0.0,0.0,0.0,0.0,0.0,0.0,0.0,0.0,0.0,0.0,0.0,0.0,0.0,0.0,0.0,0.0,0.0,0.0,0.0,0.0,0.0,0.0,0.0,0.0,0.0,0.0,0.0,0.0,0.0,0.0,0.0,0.0,0.0,0.0,0.0,0.0,0.0,0.0,0.0,-1.5754,-1.4812,-1.4156,-1.3795,-1.2837,-1.216,-1.185,-1.3095,-1.3542,0.0,0.0,0.0,0.0,0.0,0.0,0.0,0.0,0.0,0.0,0.0,0.0,0.0,0.0,0.0,0.0,0.0,0.0,0.0,0.0,0.0,0.0,0.0,0.0,0.0,0.0,0.0,0.0,0.0,0.0,0.0,0.0,0.0,0.0,0.0,0.0,0.0,0.0,0.0,0.0,-1.6834,-1.6592,-1.6308,0.0,0.0,0.0,0.0,0.0,0.0,-1.8068,-1.8146,0.0,0.0,0.0,0.0,0.0,0.0,0.0,0.0,0.0,0.0,0.0,0.0,0.0,0.0,0.0,0.0,0.0,0.0,0.0,0.0,0.0,0.0,0.0,0.0,0.0,0.0,0.0,0.0,0.0,0.0,0.0,0.0,0.0,0.0,0.0,0.0,0.0,0.0,0.0,0.0,0.0,0.0,0.0,0.0,0.0,0.0,0.0,0.0,0.0,0.0,0.0,0.0,0.0,0.0,0.0,-1.5817,-1.506,-1.4393,-1.3873,-1.3294,-1.2684,-1.2059,-1.3316,-1.3675,0.0,0.0,0.0,0.0,0.0,0.0,0.0,0.0,0.0,0.0,0.0,0.0,0.0,0.0,0.0,0.0,0.0,0.0,0.0,0.0,0.0,0.0,0.0,0.0,0.0,0.0,0.0,0.0,0.0,0.0,0.0,0.0,0.0,0.0,0.0,0.0,0.0,0.0,0.0,0.0,0.0,-1.707,-1.692,-1.7025,0.0,0.0,0.0,0.0,-1.8538,-1.8237,0.0,0.0,0.0,0.0,0.0,0.0,0.0,0.0,0.0,0.0,0.0,0.0,0.0,0.0,0.0,0.0,0.0,0.0,0.0,0.0,0.0,0.0,0.0,0.0,0.0,0.0,0.0,0.0,0.0,0.0,0.0,0.0,0.0,0.0,0.0,0.0,0.0,0.0,0.0,0.0,0.0,0.0,0.0,0.0,0.0,0.0,0.0,0.0,0.0,0.0,0.0,0.0,0.0,0.0,0.0,0.0,-1.5993,-1.4833,-1.4126,-1.4068,-1.3808,-1.3361,-1.2729,-1.3987,-1.4363,0.0,0.0,0.0,0.0,0.0,0.0,0.0,0.0,0.0,0.0,0.0,0.0,0.0,0.0,0.0,0.0,0.0,0.0,0.0,0.0,0.0,0.0,0.0,0.0,0.0,0.0,0.0,0.0,0.0,0.0,0.0,0.0,0.0,0.0,0.0,0.0,0.0,0.0,0.0,0.0,0.0,-1.8268,-1.7652,-1.8102,-1.8281,0.0,0.0,0.0,-1.8687,-1.8627,0.0,0.0,0.0,0.0,0.0,0.0,0.0,0.0,0.0,0.0,0.0,0.0,0.0,0.0,0.0,0.0,0.0,0.0,0.0,0.0,0.0,0.0,0.0,0.0,0.0,0.0,0.0,0.0,0.0,0.0,0.0,0.0,0.0,0.0,0.0,0.0,0.0,0.0,0.0,0.0,0.0,0.0,0.0,0.0,0.0,0.0,0.0,0.0,0.0,0.0,0.0,0.0,0.0,0.0,0.0,0.0,-1.5621,-1.5083,-1.4452,-1.378,-1.3672,-1.3157,-1.2202,-1.3615,-1.3939,0.0,0.0,0.0,0.0,0.0,0.0,0.0,0.0,0.0,0.0,0.0,0.0,0.0,0.0,0.0,0.0,0.0,0.0,0.0,0.0,0.0,0.0,0.0,0.0,0.0,0.0,0.0,0.0,0.0,0.0,0.0,0.0,0.0,0.0,0.0,0.0,0.0,0.0,0.0,0.0,0.0,0.0,-1.8296,-1.8521,0.0,0.0,0.0,-1.8837,-1.9196,0.0,0.0,0.0,0.0,0.0,0.0,0.0,0.0,0.0,0.0,0.0,0.0,0.0,0.0,0.0,0.0,0.0,0.0,0.0,0.0,0.0,0.0,0.0,0.0,0.0,0.0,0.0,0.0,0.0,0.0,0.0,0.0,0.0,0.0,0.0,0.0,0.0,0.0,0.0,0.0,0.0,0.0,0.0,0.0,0.0,0.0,0.0,0.0,0.0,0.0,0.0,0.0,0.0,0.0,0.0,0.0,0.0,-1.541,-1.5244,-1.4642,-1.3651,-1.3717,-1.3229,-1.2151,-1.3401,0.0,0.0,0.0,0.0,0.0,0.0,0.0,0.0,0.0,0.0,0.0,0.0,0.0,0.0,0.0,0.0,0.0,0.0,0.0,0.0,0.0,0.0,0.0,0.0,0.0,0.0,0.0,0.0,0.0,0.0,0.0,0.0,0.0,0.0,0.0,0.0,0.0,0.0,0.0,0.0,0.0,0.0,-1.8752,-1.8752,-1.8629,-1.8719,0.0,0.0,-1.8737,-1.9225,-1.9406,-1.9497,0.0,0.0,0.0,0.0,0.0,0.0,0.0,0.0,0.0,0.0,0.0,0.0,0.0,0.0,0.0,0.0,0.0,0.0,0.0,0.0,0.0,0.0,0.0,0.0,0.0,0.0,0.0,0.0,0.0,0.0,0.0,0.0,0.0,0.0,0.0,0.0,0.0,0.0,0.0,0.0,0.0,0.0,0.0,0.0,0.0,0.0,0.0,0.0,0.0,0.0,0.0,0.0,0.0,0.0,0.0,-1.562,-1.5056,-1.447,-1.3924,-1.4256,-1.4001,-1.3141,-1.3754,-1.3673,0.0,0.0,0.0,0.0,0.0,0.0,0.0,0.0,0.0,0.0,0.0,0.0,0.0,0.0,0.0,0.0,0.0,0.0,0.0,0.0,0.0,0.0,0.0,0.0,0.0,0.0,0.0,0.0,0.0,0.0,0.0,0.0,0.0,0.0,0.0,0.0,0.0,0.0,0.0,0.0,0.0,-1.8891,-1.8891,-1.8459,-1.8149,0.0,0.0,-1.8163,-1.821,-1.8631,-1.8949,-1.8968,0.0,0.0,0.0,0.0,0.0,0.0,0.0,0.0,0.0,0.0,0.0,0.0,0.0,0.0,0.0,0.0,0.0,0.0,0.0,0.0,0.0,0.0,0.0,0.0,0.0,0.0,0.0,0.0,0.0,0.0,0.0,0.0,0.0,0.0,0.0,0.0,0.0,0.0,0.0,0.0,0.0,0.0,0.0,0.0,0.0,0.0,0.0,0.0,0.0,0.0,0.0,0.0,0.0,-1.4941,-1.5184,-1.4953,-1.4384,-1.3518,-1.3295,-1.2909,-1.2238,-1.2995,-1.2858,0.0,0.0,0.0,0.0,0.0,0.0,0.0,0.0,0.0,0.0,0.0,0.0,0.0,0.0,0.0,0.0,0.0,0.0,0.0,0.0,0.0,0.0,0.0,0.0,0.0,0.0,0.0,0.0,-1.4633,-1.496,-1.5365,0.0,0.0,0.0,0.0,0.0,0.0,0.0,0.0,0.0,0.0,-1.8419,-1.84,-1.823,0.0,0.0,-1.8092,-1.8092,-1.8092,-1.8269,-1.8419,-1.8419,-1.8574,0.0,0.0,0.0,0.0,0.0,0.0,0.0,0.0,0.0,0.0,0.0,0.0,0.0,0.0,0.0,0.0,0.0,0.0,0.0,0.0,0.0,0.0,0.0,0.0,0.0,0.0,0.0,0.0,0.0,0.0,0.0,0.0,0.0,0.0,0.0,0.0,0.0,0.0,0.0,0.0,0.0,0.0,0.0,0.0,0.0,0.0,0.0,0.0,0.0,0.0,0.0,0.0,-1.5047,-1.4896,-1.4884,-1.4337,-1.3206,-1.2676,-1.2187,-1.175,-1.2359,-1.2274,0.0,0.0,0.0,0.0,0.0,0.0,0.0,0.0,0.0,0.0,0.0,0.0,0.0,0.0,0.0,0.0,0.0,0.0,0.0,0.0,0.0,0.0,0.0,0.0,0.0,0.0,0.0,0.0,-1.497,-1.5152,-1.5773,0.0,0.0,0.0,0.0,0.0,0.0,0.0,0.0,0.0,0.0,-1.7867,-1.7867,-1.7727,-1.7639,-1.7626,-1.7639,-1.7626,-1.7626,-1.7909,-1.8119,-1.8119,0.0,0.0,0.0,0.0,0.0,0.0,0.0,0.0,0.0,0.0,0.0,0.0,0.0,0.0,0.0,0.0,0.0,0.0,0.0,0.0,0.0,0.0,0.0,0.0,0.0,0.0,0.0,0.0,0.0,0.0,0.0,0.0,0.0,0.0,0.0,0.0,0.0,0.0,0.0,0.0,0.0,0.0,0.0,0.0,0.0,0.0,0.0,0.0,0.0,0.0,0.0,0.0,0.0,0.0,-1.4896,-1.4884,-1.4337,-1.3223,-1.2676,-1.2241,-1.1994,-1.201,-1.2101,-1.2271,0.0,0.0,0.0,0.0,0.0,0.0,0.0,0.0,0.0,0.0,0.0,0.0,0.0,0.0,0.0,0.0,0.0,0.0,0.0,0.0,0.0,0.0,0.0,0.0,0.0,0.0,-1.5739,-1.5359,-1.532,0.0,0.0,0.0,0.0,0.0,0.0,0.0,0.0,0.0,0.0,-1.7646,-1.7312,-1.7312,-1.6866,-1.6586,-1.6552,-1.6565,-1.6552,-1.6586,-1.7471,-1.8196,0.0,0.0,0.0,0.0,0.0,0.0,0.0,0.0,0.0,0.0,0.0,0.0,0.0,0.0,0.0,0.0,0.0,0.0,0.0,0.0,0.0,0.0,0.0,0.0,0.0,0.0,0.0,0.0,-1.7301,0.0,0.0,0.0,0.0,0.0,0.0,0.0,0.0,0.0,0.0,0.0,-1.4264,-1.4602,0.0,0.0,0.0,0.0,0.0,0.0,0.0,0.0,0.0,0.0,0.0,0.0,-1.4828,-1.4353,-1.469,-1.435,-1.3223,-1.2341,-1.1825,-1.1742,-1.1755,-1.2173,-1.3053,0.0,0.0,0.0,0.0,0.0,0.0,0.0,0.0,0.0,0.0,0.0,0.0,0.0,0.0,0.0,0.0,0.0,0.0,0.0,0.0,0.0,0.0,0.0,0.0,0.0,-1.5668,0.0,0.0,0.0,0.0,0.0,0.0,0.0,0.0,0.0,0.0,0.0,-1.816,-1.816,-1.7366,-1.6752,-1.6774,-1.6637,-1.6513,0.0,0.0,0.0,0.0,0.0,0.0,0.0,0.0,0.0,0.0,0.0,0.0,0.0,0.0,-2.1484,-2.0741,-2.0309,-2.0062,-2.0062,0.0,0.0,0.0,0.0,0.0,0.0,0.0,0.0,0.0,0.0,0.0,0.0,0.0,0.0,0.0,0.0,-1.5774,0.0,0.0,0.0,0.0,0.0,0.0,0.0,0.0,-1.4615,-1.4536,-1.4194,-1.4541,-1.4709,0.0,-1.482,-1.4642,0.0,0.0,0.0,0.0,0.0,0.0,0.0,0.0,-1.4808,-1.4322,-1.4691,-1.4456,-1.3521,-1.2454,-1.1804,-1.1615,-1.1738,-1.2281,-1.3275,-1.3656,-1.3777,0.0,0.0,0.0,0.0,0.0,0.0,0.0,0.0,0.0,0.0,0.0,0.0,0.0,0.0,0.0,0.0,0.0,0.0,0.0,0.0,0.0,0.0,0.0,-1.561,0.0,0.0,0.0,0.0,0.0,0.0,0.0,0.0,0.0,-1.8601,-1.8232,-1.7994,-1.818,-1.7228,-1.6563,-1.6785,0.0,0.0,0.0,0.0,0.0,0.0,0.0,-1.7616,-1.8356,-1.8355,-1.8292,-1.8431,-1.9535,-2.0451,-2.0654,0.0,0.0,-2.1361,-2.0918,-2.0677,-2.0677,-2.0978,-2.1062,-2.0375,-2.069,-2.0806,0.0,0.0,0.0,0.0,0.0,0.0,0.0,0.0,-1.8205,-1.7588,0.0,-1.6028,0.0,0.0,0.0,0.0,0.0,0.0,0.0,0.0,-1.4641,-1.4652,-1.4629,-1.4617,-1.464,0.0,-1.4991,-1.4888,-1.4366,-1.4526,0.0,0.0,0.0,0.0,0.0,0.0,-1.5272,-1.4775,-1.4823,-1.462,-1.406,-1.2986,-1.2153,-1.1666,-1.2002,-1.2413,-1.2946,-1.4293,-1.45,-1.3352,-1.4281,0.0,0.0,0.0,0.0,0.0,0.0,0.0,0.0,0.0,0.0,0.0,0.0,0.0,0.0,0.0,0.0,0.0,0.0,0.0,0.0,-1.5815,0.0,0.0,0.0,0.0,0.0,0.0,0.0,0.0,0.0,0.0,-1.8377,-1.7813,-1.7649,-1.8152,0.0,0.0,0.0,0.0,-1.6513,-1.6513,-1.6986,-1.7373,-1.7436,-1.8267,-1.8933,-1.9008,0.0,0.0,-1.9171,-2.0426,-2.1317,-2.0865,-2.1984,-2.2902,-2.228,-2.2201,-2.2284,-2.2284,-2.2226,-2.1976,-2.1266,-2.1336,-2.1235,-1.8753,0.0,0.0,0.0,0.0,-1.8572,-1.8541,-1.8757,-1.835,-1.8027,-1.7666,-1.7172,0.0,0.0,0.0,0.0,0.0,0.0,-1.4752,-1.405,-1.4073,-1.3826,-1.344,-1.3406,-1.3416,-1.3416,-1.3538,-1.3502,-1.3332,-1.3381,-1.3484,-1.3632,0.0,0.0,0.0,0.0,-1.4248,-1.4176,-1.4225,-1.4205,-1.4103,-1.2998,-1.2325,-1.2162,-1.2291,-1.2739,-1.3588,-1.4308,-1.4644,-1.4572,-1.5167,0.0,0.0,0.0,0.0,0.0,0.0,0.0,0.0,0.0,0.0,0.0,0.0,0.0,0.0,0.0,0.0,0.0,0.0,0.0,-1.6561,-1.5909,-1.5602,0.0,0.0,0.0,0.0,0.0,0.0,0.0,0.0,0.0,-1.9309,-1.8894,-1.8468,0.0,0.0,-1.7049,-1.6798,-1.6622,-1.6513,-1.6513,0.0,0.0,0.0,-1.7903,-1.8242,-1.9371,-1.971,-2.0012,-2.0677,-2.1167,-2.1512,-2.1545,-2.1934,-2.2015,-2.1346,-2.208,-2.2767,-2.284,-2.2407,-2.1958,-2.1694,-2.1335,-2.0705,-1.9318,-1.9276,-1.8874,-1.881,-1.8969,-1.8662,-1.8569,-1.8669,-1.8556,-1.8417,-1.8155,-1.7548,-1.7145,-1.687,-1.5955,0.0,0.0,0.0,-1.4028,-1.3433,-1.3443,-1.3262,-1.2905,-1.2915,-1.2915,-1.2915,-1.3057,-1.3135,-1.3135,-1.3135,-1.3252,-1.3477,0.0,0.0,-1.2895,-1.3505,-1.3945,-1.4194,-1.4051,-1.414,-1.4412,-1.3111,-1.25,-1.2714,-1.2529,-1.2782,-1.3606,-1.4019,-1.4454,-1.4845,-1.5532,-1.598,0.0,0.0,0.0,0.0,0.0,0.0,0.0,0.0,0.0,0.0,0.0,-1.52,0.0,0.0,0.0,0.0,-1.6674,-1.6752,-1.6669,-1.6235,0.0,0.0,0.0,0.0,0.0,0.0,0.0,-1.9761,-1.9736,-1.9698,-1.9786,-1.9321,-1.8958,-1.8844,-1.8003,-1.7325,-1.7212,0.0,-1.6513,-1.6513,-1.671,-1.7099,-1.7777,-1.7965,-1.843,-1.9597,-1.9798,-1.9999,-2.0665,-2.1031,-2.13,-2.1621,-2.1638,-2.1474,-2.1172,-2.1698,-2.2113,-2.2113,-2.1741,-2.1302,-2.0942,-2.0317,-1.9585,-1.9761,-1.9723,-1.8744,-1.8631,-1.9058,-1.9058,-1.8744,-1.8293,-1.8795,-1.8694,-1.8145,-1.7545,-1.7477,-1.7751,-1.5477,0.0,0.0,-1.3367,-1.2944,-1.2915,-1.2915,-1.2915,-1.2915,-1.2915,-1.2915,-1.2915,-1.3271,-1.3467,-1.3447,-1.3447,-1.3457,-1.3447,-1.3076,-1.2915,-1.2929,-1.3467,-1.405,-1.4687,-1.4238,-1.4269,-1.4796,-1.3283,-1.2685,-1.3173,-1.2726,-1.2685,-1.3178,-1.3738,-1.4184,-1.4598,-1.5638,-1.6411,-1.674,0.0,0.0,0.0,0.0,0.0,0.0,0.0,0.0,0.0,0.0,0.0,0.0,0.0,0.0,0.0,-1.7207,0.0,-1.6468,-1.6796,0.0,0.0,0.0,-1.8892,-1.9045,-1.9987,-2.0415,-1.9861,0.0,0.0,0.0,0.0,-1.9183,-1.9685,-1.8404,-1.7574,-1.8016,-1.7127,-1.6513,-1.6513,-1.6948,-1.7335,-1.7473,-1.8267,-1.9096,-1.9685,-1.9747,-1.9707,-1.9831,-2.0126,-2.0702,-2.101,-2.0935,-2.0796,-2.1373,-2.0665,-2.0287,-2.0231,-2.0351,-2.0191,-1.9489,-1.8858,-1.8143,-1.9447,-1.9773,-1.9522,-1.9497,-1.961,-1.9623,-1.9296,-1.882,-1.8945,-1.8694,-1.8229,-1.8436,-1.8226,-1.7571,-1.5583,-1.4519,-1.4129,-1.3596,-1.3208,-1.2915,-1.2915,-1.2915,-1.2915,-1.2915,-1.2915,-1.2915,-1.3003,-1.3037,-1.3027,-1.3052,-1.3037,-1.3027,-1.2954,-1.2915,-1.2905,-1.3041,-1.3634,-1.4698,-1.4192,-1.4032,-1.4268,-1.3458,-1.3073,-1.3198,-1.3073,-1.306,-1.3215,-1.446,-1.5175,-1.5288,-1.6574,-1.7363,-1.7458,-1.6846,0.0,0.0,0.0,0.0,0.0,0.0,0.0,0.0,0.0,-1.7579,-1.6577,0.0,-1.8072,0.0,-1.7207,-1.7132,-1.7671,-1.7387,0.0,0.0,-1.8729,-1.9143,-1.956,-1.9849,-1.9962,-1.9811,-1.9924,-1.9949,-1.9823,-1.9321,-1.9045,-1.9146,-1.8154,-1.7275,-1.6974,-1.6701,-1.6513,-1.6513,-1.6638,-1.6886,-1.7363,-1.8317,-1.9133,-1.9723,-1.9345,-1.9136,-1.9573,-1.929,-1.8983,-1.8892,-1.878,-1.8525,-1.8135,-1.7746,-1.7692,-1.7702,-1.8405,-1.902,-1.8796,-1.792,-1.6991,-1.9171,-1.9472,-1.971,-1.9673,-1.9459,-1.9472,-1.9121,-1.8644,-1.8632,-1.8355,-1.7867,-1.8326,-1.8161,-1.7484,-1.5744,-1.4847,-1.4522,-1.3649,-1.3105,-1.2915,-1.2915,-1.2915,-1.2915,-1.2915,-1.2915,-1.2915,-1.2915,-1.2915,-1.2915,-1.2915,-1.3041,-1.331,-1.331,-1.342,-1.3681,-1.3443,-1.3766,-1.4675,-1.4699,-1.4618,-1.4456,-1.3903,-1.3596,-1.3596,-1.3596,-1.3596,-1.3609,-1.4646,-1.5416,-1.5865,-1.6907,-1.7697,-1.8115,-1.7772,-1.7578,0.0,0.0,0.0,0.0,0.0,0.0,0.0,0.0,0.0,0.0,0.0,-1.8554,0.0,0.0,0.0,-1.8508,-1.8219,-1.8272,-1.8932,-1.9459,-1.9861,-2.0162,-2.0427,-2.0451,-2.0213,-2.0214,-1.9999,-1.9522,-1.8995,-1.8544,-1.8293,-1.7551,-1.6974,-1.6911,-1.6697,-1.6513,-1.6513,-1.6513,-1.671,-1.7322,-1.7806,-1.8326,-1.879,-1.8534,-1.8336,-1.8642,-1.8395,-1.813,-1.8188,-1.792,-1.7613,-1.7317,-1.6939,-1.6697,-1.676,-1.7106,-1.751,-1.7704,-1.7065,-1.6338,-1.8955,-1.9018,-1.9497,-1.9422,-1.8981,-1.8844,-1.8519,-1.8103,-1.8103,-1.7827,-1.7415,-1.7702,-1.7685,-1.7456,-1.5925,-1.5218,-1.5139,-1.3684,-1.3017,-1.3017,-1.2929,-1.2915,-1.2915,-1.2915,-1.2915,-1.2915,-1.2915,-1.2915,-1.2915,-1.2915,-1.3176,-1.3661,-1.3755,-1.405,-1.456,-1.4213,-1.4306,-1.4812,-1.5399,-1.5487,-1.5009,-1.4494,-1.4204,-1.4186,-1.4204,-1.4241,-1.4326,-1.4885,-1.5608,-1.6488,-1.7222,-1.7967,-1.8785,-1.8762,-1.8702,0.0,-1.8072,0.0,0.0,0.0,0.0,0.0,0.0,0.0,0.0,-1.8902,-1.8925,-1.8834,-1.8865,-1.8941,-1.8973,-1.9022,-1.9033,-1.9121,-1.9974,-2.0578,-2.0603,-2.0978,-2.1091,-2.0641,-2.0605,-2.0189,-1.9158,-1.8519,-1.8003,-1.7526,-1.6948,-1.6722,-1.7099,-1.681,-1.6513,-1.6513,-1.6423,-1.6479,-1.6923,-1.7015,-1.7186,-1.7641,-1.7603,-1.7457,-1.749,-1.7379,-1.7445,-1.7812,-1.7382,-1.7095,-1.7602,-1.6979,-1.6533,-1.6494,-1.6261,-1.6244,-1.6547,-1.6351,-1.6026,-1.8627,-1.8998,-1.9102,-1.9089,-1.8949,-1.8073,-1.7639,-1.7539,-1.7561,-1.7498,-1.7403,-1.7291,-1.7236,-1.7097,-1.5832,-1.5293,-1.5211,-1.414,-1.3637,-1.3589,-1.3138,-1.2915,-1.2915,-1.2915,-1.2915,-1.2915,-1.2915,-1.2915,-1.2915,-1.2915,-1.2954,-1.3089,-1.3552,-1.3873,0.0,0.0,0.0,0.0,-1.561,-1.5663,-1.553,-1.5022,-1.4733,-1.4752,-1.4733,0.0,-1.5415,-1.6337,-1.7121,-1.7748,-1.8713,0.0,0.0,0.0,0.0,0.0,0.0,0.0,0.0,0.0,0.0,0.0,-2.0827,-2.0662,-1.9645,-2.0001,-1.9941,-1.9056,-1.899,-1.8986,-1.9026,-1.9006,-1.9171,-1.961,-1.9849,-1.9974,-1.9974,-2.0075,-2.0075,-1.9987,-1.9962,-1.9736,-1.907,-1.8531,-1.799,-1.7436,-1.6873,-1.655,-1.6651,-1.6588,-1.6513,-1.6479,-1.6095,-1.5812,-1.5834,-1.6148,-1.6491,-1.6995,-1.6912,-1.6722,-1.6669,-1.6216,-1.5864,-1.6062,-1.5849,-1.5791,-1.593,-1.5743,-1.5723,-1.5634,-1.5576,-1.5664,-1.6114,-1.584,-1.5537,-1.8701,0.0,-1.8971,-1.9025,0.0,0.0,-1.7561,-1.7752,-1.72,-1.7124,-1.7413,-1.7576,-1.7653,-1.7593,-1.6691,-1.6134,-1.5797,-1.4735,-1.4247,-1.4213,-1.3624,-1.3358,-1.3324,-1.3324,-1.3166,-1.292,-1.3501,-1.3634,-1.3382,-1.3624,-1.3954,-1.4226,-1.4549,-1.4846,-1.5152,-1.5732,-1.6051,-1.6051,-1.6072,-1.6086,-1.6082,-1.5588,-1.5299,-1.5311,0.0,0.0,0.0,0.0,0.0,0.0,0.0,0.0,0.0,0.0,0.0,-1.9199,-1.8882,-1.8837,-1.9166,-1.951,-1.9839,-2.0183,-2.1141,-2.1262,-2.026,-2.0506,-2.0343,-1.9499,-1.9399,-1.9398,-1.9384,-1.9384,-1.951,-1.9773,-1.9798,-1.9798,-1.9798,-1.9798,-1.9798,-1.9773,-1.9572,-1.9183,-1.8669,-1.8141,-1.7589,-1.7049,-1.6722,-1.6513,-1.6513,-1.6513,-1.6436,-1.6117,-1.5842,-1.5481,-1.5185,-1.5167,-1.5484,-1.591,-1.5827,-1.5772,-1.5948,-1.5671,-1.542,-1.542,-1.542,-1.542,-1.542,-1.542,-1.542,-1.542,-1.542,-1.5469,-1.5693,-1.5566,-1.542,-1.8899,-1.89,-1.8954,-1.8986,-1.8915,-1.7965,-1.7804,-1.8141,0.0,0.0,0.0,-1.7865,-1.8103,-1.8157,-1.7592,-1.7038,-1.6511,-1.5372,-1.4858,-1.4824,-1.4236,-1.3956,-1.3956,-1.3967,-1.3695,-1.3296,-1.4224,-1.4456,-1.398,-1.4479,-1.4949,-1.541,-1.5543,-1.5896,-1.6457,-1.6513,-1.6513,-1.6513,-1.6513,-1.6513,-1.6488,-1.607,-1.5872,-1.5975,-1.6414,-1.6737,-1.6932,-1.7785,-1.8496,-1.9006,-1.9024,-1.9225,-1.9672,-1.9723,-1.9723,-1.9723,-1.9723,-1.9723,-1.9723,-1.9932,-2.0139,-2.0367,-2.1395,-2.1706,-2.0966,-2.0855,-2.0617,-2.0033,-1.988,-1.9806,-1.9799,-1.9798,-1.9798,-1.9798,-1.9798,-1.9798,-1.9798,-1.9798,-1.9798,-1.9748,-1.9334,-1.8795,-1.8268,-1.7752,-1.7197,-1.6651,-1.6525,-1.6423,-1.6358,-1.6303,-1.603,-1.5353,-1.5129,-1.5005,-1.4556,-1.444,-1.45,-1.4877,-1.4974,-1.5038,-1.5312,-1.542,-1.542,-1.542,-1.542,-1.542,-1.542,-1.542,-1.542,-1.542,-1.542,-1.542,-1.542,-1.542,-1.542,-1.8908,-1.8889,-1.8931,-1.8921,-1.8885,-1.8323,-1.8119,-1.8141,-1.7549,-1.7335,-1.741,-1.7463,-1.7752,-1.8155,-1.7633,-1.7347,-1.7167,-1.6017,-1.5477,0.0,-1.4846,-1.4571,-1.4583,-1.456,-1.4548,-1.4479,-1.4629,-1.4652,-1.4583,-1.4675,-1.4744,-1.4903,-1.5354,-1.592,-1.6457,-1.6513,-1.6513,-1.6513,-1.6513,-1.6513,-1.65,-1.6425,-1.6617,-1.7049,-1.7139,-1.7645,-1.8536,-1.8703,-1.9024,-1.9548,-1.9584,-1.9621,-1.9708,-1.9723,-1.9723,-1.9723,-1.9723,-1.9723,-1.9738,-2.0767,-2.1889,-2.2921,-2.3236,-2.2852,-2.1686,-2.1561,-2.1315,-2.0713,-2.0129,-1.9813,-1.9798,-1.9798,-1.9798,-1.9798,-1.9798,-1.9798,-1.9798,-1.9798,-1.9786,-1.9748,-1.9309,-1.8794,-1.8216,-1.7677,-1.7124,-1.6651,-1.6513,-1.6324,-1.5842,-1.572,-1.5253,-1.4342,-1.4039,-1.3802,-1.3477,-1.3755,-1.411,-1.4218,-1.4839,-1.5225,-1.5362,-1.542,-1.542,-1.542,-1.542,-1.542,-1.542,-1.542,-1.542,-1.542,-1.542,-1.542,-1.542,-1.542,-1.542,-1.9336,-1.9325,-1.9416,-1.9613,-1.9873,-2.0037,-1.9554,-1.8727,-1.8779,-1.8416,-1.7888,-1.8118,-1.8254,-1.8179,-1.794,-1.7687,-1.735,-1.6497,-1.6095,-1.6051,-1.5466,-1.5186,-1.5197,-1.5186,-1.5017,-1.4744,-1.5354,-1.5522,-1.5242,-1.5511,-1.5678,-1.5678,-1.5964,-1.6225,-1.6479,-1.6513,-1.6513,-1.6513,-1.6513,-1.6513,-1.6513,-1.6513,-1.6765,-1.7291,-1.7565,-1.8072,-1.8874,-1.9188,-1.9442,-1.9675,-1.9723,-1.9723,-1.9723,-1.9723,-1.9723,-1.9723,-1.9723,-1.9839,-2.0228,-2.1141,-2.2099,-2.3047,-2.3101,-2.301,-2.276,-2.2092,-2.1462,-2.0845,-2.0182,-1.9798,-1.9798,-1.9798,-1.9798,-1.9798,-1.9798,-1.9798,-1.9798,-1.9798,-1.9685,-1.9371,-1.8907,-1.838,-1.785,-1.7262,-1.6848,-1.6538,-1.6513,-1.6163,-1.5287,-1.5118,-1.4824,-1.4014,-1.3792,-1.3552,-1.3046,-1.3199,-1.3613,-1.4007,-1.4426,-1.4864,-1.5264,-1.542,-1.542,-1.542,-1.542,-1.542,-1.542,-1.542,-1.542,-1.542,-1.542,-1.542,-1.542,-1.542,-1.542,-2.0139,-2.0161,-2.0274,-2.055,-2.0947,-2.135,-2.0795,-1.9762,-2.0074,-1.9753,-1.9061,-1.9017,-1.8832,-1.8568,-1.8418,-1.8091,-1.7561,-1.6974,-1.6647,-1.6457,-1.603,-1.582,-1.581,-1.5786,-1.5555,-1.5242,-1.6064,-1.6259,-1.5908,-1.6281,-1.6513,-1.6513,-1.6513,-1.6513,-1.6513,-1.6513,-1.6513,-1.65,-1.6616,-1.6667,-1.6667,-1.668,-1.6993,-1.7626,-1.8052,-1.8535,-1.9076,-1.9479,-1.9723,-1.9723,-1.9723,-1.9723,-1.9723,-1.9723,-1.9723,-1.9723,-1.9857,-2.0288,-2.1096,-2.1635,-2.2209,-2.2838,-2.2897,-2.3107,-2.3455,-2.2583,-2.1677,-2.104,-2.027,-1.9798,-1.9798,-1.9798,-1.9798,-1.9798,-1.9798,-1.9798,-1.9798,-1.9798,-1.966,-1.9183,-1.8694,-1.8216,-1.7639,-1.7074,-1.671,-1.655,-1.6513,-1.6042,-1.513,-1.4903,-1.4629,-1.398,-1.3684,-1.3481,-1.3076,-1.3164,-1.3535,-1.4153,-1.4387,-1.4777,-1.5264,-1.542,-1.542,-1.542,-1.542,-1.542,-1.542,-1.542,-1.542,-1.542,-1.542,-1.542,-1.542,-1.542,-1.542,-2.1485,-2.1515,-2.1501,-2.1563,-2.1578,-2.1219,-2.1201,-2.1356,-2.1015,-2.1061,-2.1091,-1.9702,-1.9296,-1.956,-1.9145,-1.8631,-1.8103,-1.7564,-1.7036,-1.6575,-1.6457,-1.6402,-1.6405,-1.6414,-1.638,-1.6328,-1.6457,-1.647,-1.643,-1.6457,-1.6513,-1.6513,-1.6513,-1.6522,-1.6522,-1.6522,-1.6522,-1.6522,-1.6993,-1.7229,-1.7229,-1.7229,-1.7706,-1.8722,-1.8798,-1.9095,-1.9566,-1.9672,-1.9723,-1.9723,-1.9723,-1.9723,-1.9738,-1.9723,-1.9723,-1.9768,-2.0288,-2.1156,-2.2343,-2.2583,-2.2868,-2.343,-2.3475,-2.3505,-2.3573,-2.2987,-2.2323,-2.1592,-2.0521,-1.9875,-1.9798,-1.9798,-1.9798,-1.9798,-1.9798,-1.9798,-1.9798,-1.9798,-1.9773,-1.9748,-1.9171,-1.8744,-1.8141,-1.7576,-1.7061,-1.655,-1.6513,-1.6238,-1.5577,-1.5343,-1.5006,-1.4059,-1.3392,-1.3229,-1.334,-1.3753,-1.4036,-1.457,-1.5019,-1.5225,-1.5352,-1.542,-1.542,-1.542,-1.542,-1.542,-1.542,-1.542,-1.542,-1.542,-1.542,-1.542,-1.542,-1.542,-1.542,-2.1695,-2.1724,-2.2134,-2.2497,-2.2759,-2.2574,-2.2403,-2.2266,-2.2059,-2.1889,-2.1645,-2.0903,-2.0533,-2.037,-1.9851,-1.9259,-1.8656,-1.8129,-1.7739,-1.7513,-1.7513,-1.7338,-1.7049,-1.7024,-1.7024,-1.6999,-1.6663,-1.6676,-1.6923,-1.6685,-1.6513,-1.6513,-1.6513,-1.6659,-1.693,-1.6972,-1.7105,-1.7442,-1.7666,-1.7927,-1.8171,-1.7947,-1.8145,-1.8784,-1.8893,-1.9151,-1.9636,-1.9723,-1.9723,-1.9723,-1.9723,-1.9887,-2.0273,-2.0288,-2.0468,-2.0872,-2.15,-2.2099,-2.2673,-2.3032,-2.3325,-2.358,-2.3595,-2.3595,-2.3573,-2.3031,-2.2566,-2.2207,-2.1137,-2.0384,-2.0359,-2.0029,-1.9798,-1.9798,-1.9798,-1.9798,-1.9798,-1.9798,-1.9698,-1.9397,-1.9133,-1.8807,-1.8255,-1.7727,-1.7162,-1.6651,-1.6513,-1.6259,-1.571,-1.5298,-1.4844,-1.4249,-1.3645,-1.3361,-1.35,-1.3597,-1.4062,-1.4609,-1.4922,-1.5078,-1.5361,-1.541,-1.542,-1.542,-1.542,-1.542,-1.542,-1.542,-1.542,-1.542,-1.542,-1.542,-1.542,-1.542,-1.542,-2.2218,-2.2293,-2.2742,-2.3191,-2.3595,-2.3595,-2.3355,-2.2965,-2.2942,-2.268,-2.2248,-2.2225,-2.1875,-2.1315,-2.0718,-2.012,-1.9505,-1.913,-1.8846,-1.8729,-1.8554,-1.8244,-1.7884,-1.7871,-1.7771,-1.763,-1.7595,-1.7748,-1.8063,-1.7739,-1.7493,-1.748,-1.7316,-1.7403,-1.7744,-1.7772,-1.799,-1.8354,-1.8494,-1.8784,-1.9089,-1.894,-1.8912,-1.9091,-1.9118,-1.9314,-1.969,-1.9723,-1.9723,-1.9723,-1.9854,-2.0183,-2.0658,-2.0853,-2.1276,-2.1904,-2.2418,-2.2778,-2.2927,-2.334,-2.3595,-2.3595,-2.3595,-2.3595,-2.353,-2.3201,-2.2965,-2.2875,-2.1785,-2.1004,-2.0746,-2.0194,-1.9824,-1.9798,-1.9798,-1.9798,-1.9798,-1.9798,-1.966,-1.9284,-1.9271,-1.8933,-1.8279,-1.7589,-1.6936,-1.6575,-1.65,-1.6349,-1.5879,-1.5441,-1.5022,-1.4496,-1.4089,-1.3963,-1.3871,-1.3945,-1.4228,-1.4639,-1.5019,-1.5137,-1.5352,-1.54,-1.542,-1.542,-1.542,-1.542,-1.542,-1.542,-1.542,-1.542,-1.542,-1.542,-1.542,-1.542,-1.542,-2.3505,-2.349,-2.3535,-2.355,-2.3595,-2.3595,-2.3588,-2.3486,-2.353,-2.3508,-2.3428,-2.3428,-2.3165,-2.2543,-2.1913,-2.1328,-2.0841,-2.069,-2.0424,-1.9963,-1.9414,-1.9063,-1.901,-1.901,-1.8754,-1.8446,-1.9208,-1.9712,-1.9852,-1.9868,-1.9938,-1.9848,-1.9175,-1.8962,-1.9024,-1.9024,-1.9045,-1.9202,-1.9615,-1.9829,-1.9922,-2.0322,-2.0251,-1.9781,-1.9683,-1.9761,-1.9768,-1.9753,-1.9753,-1.9738,-2.0348,-2.0688,-2.0778,-2.135,-2.1999,-2.2583,-2.2703,-2.2951,-2.343,-2.3565,-2.3595,-2.3595,-2.3595,-2.3595,-2.3595,-2.353,-2.3465,-2.353,-2.2331,-2.139,-2.0881,-2.022,-1.9824,-1.9798,-1.9798,-1.9798,-1.9798,-1.9798,-1.9798,-1.9736,-1.9698,-1.9284,-1.8342,-1.7215,-1.6814,-1.6626,-1.6538,-1.6438,-1.6229,-1.6162,-1.5567,-1.4882,-1.4707,-1.4932,-1.4775,-1.4531,-1.4775,-1.5137,-1.5254,-1.5313,-1.5381,-1.542,-1.542,-1.542,-1.542,-1.542,-1.542,-1.542,-1.542,-1.542,-1.542,-1.542,-1.542,-1.542,-1.542,-2.3595,-2.3595,-2.3595,-2.3595,-2.3595,-2.3595,-2.3595,-2.3595,-2.3595,-2.3595,-2.3595,-2.3595,-2.3486,-2.3268,-2.3024,-2.2341,-2.1463,-2.1416,-2.1305,-2.1098,-2.0877,-2.0593,-2.0266,-2.0261,-2.0148,-1.9993,-2.0048,-2.0108,-2.0108,-2.0108,-2.0108,-2.0094,-1.9878,-1.9908,-2.018,-2.0257,-2.0401,-2.0741,-2.0985,-2.105,-2.103,-2.1238,-2.1216,-2.0991,-2.0976,-2.0976,-2.0961,-2.0976,-2.0961,-2.0976,-2.1216,-2.1545,-2.1964,-2.2577,-2.2996,-2.3236,-2.3281,-2.337,-2.3565,-2.3595,-2.3595,-2.3595,-2.3595,-2.3595,-2.3595,-2.3595,-2.3595,-2.3384,-2.2469,-2.1615,-2.1269,-2.0446,-1.9798,-1.9798,-1.9798,-1.9798,-1.9798,-1.9798,-1.9798,-1.9798,-1.9786,-1.9484,-1.8845,-1.8331,-1.7829,-1.7217,-1.6974,-1.6714,-1.6291,-1.5901,-1.5466,-1.5253,-1.5066,-1.4974,-1.5203,-1.4912,-1.4902,-1.5215,-1.54,-1.5391,-1.541,-1.542,-1.542,-1.542,-1.542,-1.542,-1.542,-1.542,-1.542,-1.542,-1.542,-1.542,-1.542,-1.542,-1.542,-2.3595,-2.3595,-2.3595,-2.3595,-2.3595,-2.3595,-2.3595,-2.3595,-2.3595,-2.3595,-2.3595,-2.3595,-2.3595,-2.3595,-2.3595,-2.3172,-2.2363,-2.2303,-2.2331,-2.2294,-2.2109,-2.1843,-2.1543,-2.1465,-2.1373,-2.119,-2.1036,-2.1009,-2.1219,-2.1226,-2.1241,-2.1277,-2.1055,-2.1125,-2.1447,-2.1489,-2.1674,-2.1968,-2.2029,-2.2009,-2.2009,-2.2009,-2.2029,-2.2054,-2.2224,-2.2099,-2.1724,-2.1695,-2.1695,-2.171,-2.1909,-2.2313,-2.2942,-2.3355,-2.3595,-2.3595,-2.3595,-2.3595,-2.3595,-2.3595,-2.3595,-2.3595,-2.3595,-2.3595,-2.3595,-2.3595,-2.3595,-2.3363,-2.2711,-2.1969,-2.1544,-2.0744,-2.0055,-1.9875,-1.9798,-1.9798,-1.9798,-1.9798,-1.9798,-1.9773,-1.9623,-1.9359,-1.907,-1.8832,-1.838,-1.7714,-1.7362,-1.6917,-1.6466,-1.5818,-1.525,-1.5369,-1.5181,-1.5084,-1.5156,-1.5019,-1.5039,-1.5322,-1.542,-1.542,-1.542,-1.542,-1.542,-1.542,-1.542,-1.542,-1.542,-1.542,-1.542,-1.542,-1.542,-1.542,-1.542,-1.542,-1.5264,-2.3595,-2.3595,-2.3595,-2.3595,-2.3595,-2.3595,-2.3595,-2.3595,-2.3595,-2.3595,-2.3595,-2.3595,-2.3595,-2.3595,-2.3595,-2.3551,-2.3443,-2.3459,-2.3444,-2.3399,-2.292,-2.268,-2.263,-2.2616,-2.2315,-2.1848,-2.2372,-2.2914,-2.3286,-2.3235,-2.325,-2.3321,-2.2765,-2.2521,-2.2682,-2.2605,-2.2682,-2.2703,-2.2688,-2.2688,-2.2703,-2.2703,-2.2703,-2.2763,-2.3191,-2.2936,-2.1844,-2.1814,-2.1874,-2.1904,-2.2403,-2.2987,-2.3445,-2.364,-2.364,-2.361,-2.361,-2.364,-2.3655,-2.3684,-2.3714,-2.3729,-2.3655,-2.3684,-2.361,-2.367,-2.3684,-2.3508,-2.3068,-2.2449,-2.1771,-2.1088,-2.0446,-1.9927,-1.9798,-1.9798,-1.9798,-1.9798,-1.9798,-1.9748,-1.9472,-1.907,-1.892,-1.8757,-1.8431,-1.8053,-1.7557,-1.6993,-1.6595,-1.5967,-1.5457,-1.5125,-1.5125,-1.5225,-1.5166,-1.5117,-1.5273,-1.542,-1.542,-1.542,-1.542,-1.542,-1.542,-1.542,-1.542,-1.542,-1.542,-1.542,-1.542,-1.542,-1.542,-1.541,-1.5381,-1.5294,-1.4864,-2.3595,-2.3595,-2.3595,-2.3595,-2.3595,-2.3595,-2.3595,-2.3595,-2.3595,-2.3595,-2.3595,-2.3595,-2.3595,-2.3595,-2.3595,-2.3595,-2.364,-2.4044,-2.4036,-2.3626,-2.3414,-2.3312,-2.3297,-2.3297,-2.3194,-2.3047,-2.3194,-2.3399,-2.3551,-2.3595,-2.3595,-2.3535,-2.34,-2.3325,-2.3281,-2.3332,-2.3332,-2.331,-2.331,-2.331,-2.3347,-2.331,-2.331,-2.334,-2.3505,-2.337,-2.3026,-2.3011,-2.3011,-2.2981,-2.3191,-2.34,-2.364,-2.4036,-2.4036,-2.3714,-2.4036,-2.4276,-2.4276,-2.4276,-2.4276,-2.4276,-2.4276,-2.4022,-2.3744,-2.4014,-2.4044,-2.3701,-2.3419,-2.2974,-2.1892,-2.1161,-2.0547,-1.9875,-1.9798,-1.9798,-1.9798,-1.9798,-1.9798,-1.9786,-1.966,-1.9547,-1.9509,-1.9284,-1.8859,-1.8126,-1.7646,-1.714,-1.6256,-1.5824,-1.5481,-1.5254,-1.5352,-1.5352,-1.5303,-1.5254,-1.5332,-1.542,-1.542,-1.542,-1.542,-1.542,-1.542,-1.542,-1.542,-1.542,-1.542,-1.542,-1.542,-1.542,-1.542,-1.5381,-1.5352,-1.5021,-1.459,-2.3595,-2.3595,-2.3595,-2.3595,-2.3595,-2.3595,-2.3595,-2.3595,-2.3595,-2.3595,-2.3595,-2.3595,-2.3595,-2.3595,-2.3595,-2.3595,-2.364,-2.4051,-2.4148,-2.3977,-2.3984,-2.3864,-2.364,-2.3595,-2.3595,-2.3595,-2.3595,-2.3595,-2.3595,-2.3595,-2.3595,-2.3595,-2.3595,-2.358,-2.3595,-2.3595,-2.3595,-2.3595,-2.358,-2.3595,-2.3595,-2.3595,-2.3595,-2.3595,-2.3595,-2.3595,-2.3595,-2.3595,-2.3595,-2.3655,-2.3834,-2.3984,-2.4022,-2.4575,-2.4769,-2.4552,-2.4717,-2.4963,-2.4963,-2.4978,-2.4963,-2.4933,-2.4739,-2.444,-2.4081,-2.4261,-2.3962,-2.3709,-2.36,-2.3121,-2.1935,-2.139,-2.0769,-1.9901,-1.9798,-1.9798,-1.9798,-1.9798,-1.9798,-1.9798,-1.9786,-1.9798,-1.9798,-1.9463,-1.9132,-1.8282,-1.7583,-1.7075,-1.6133,-1.5693,-1.5496,-1.5381,-1.541,-1.541,-1.541,-1.54,-1.54,-1.542,-1.542,-1.542,-1.542,-1.542,-1.542,-1.542,-1.542,-1.542,-1.542,-1.542,-1.542,-1.542,-1.5381,-1.5167,-1.5021,-1.4658,-1.4145,-2.3595,-2.3595,-2.3595,-2.3595,-2.3595,-2.3595,-2.3595,-2.3595,-2.3595,-2.3595,-2.3595,-2.3714,-2.3729,-2.3699,-2.3774,-2.3804,-2.3759,-2.3924,-2.4261,-2.459,-2.4709,-2.4515,-2.4014,-2.3954,-2.3954,-2.3894,-2.3789,-2.3714,-2.3759,-2.3655,-2.3625,-2.3729,-2.367,-2.3655,-2.3714,-2.3655,-2.3595,-2.3595,-2.3595,-2.3595,-2.3595,-2.3595,-2.3595,-2.3595,-2.3595,-2.3595,-2.3595,-2.3595,-2.3595,-2.367,-2.4096,-2.438,-2.4664,-2.5241,-2.551,-2.542,-2.5561,-2.5636,-2.5636,-2.5636,-2.5659,-2.5615,-2.5202,-2.4634,-2.453,-2.4246,-2.3954,-2.3633,-2.3613,-2.3104,-2.2035,-2.1544,-2.0964,-2.0067,-1.9798,-1.9798,-1.9798,-1.9798,-1.9798,-1.9798,-1.9798,-1.9798,-1.9798,-1.9281,-1.8903,-1.8347,-1.7462,-1.6852,-1.6195,-1.5747,-1.5488,-1.542,-1.542,-1.542,-1.542,-1.542,-1.542,-1.542,-1.542,-1.542,-1.542,-1.542,-1.542,-1.542,-1.542,-1.542,-1.542,-1.542,-1.542,-1.542,-1.5235,-1.4962,-1.4599,-1.4234,-1.3567,-2.3595,-2.3595,-2.3595,-2.3595,-2.3595,-2.3595,-2.3595,-2.3595,-2.3595,-2.361,-2.3714,-2.4126,-2.4306,-2.4321,-2.4335,-2.459,-2.4896,-2.5016,-2.5121,-2.5405,-2.5869,-2.5689,-2.5196,-2.5061,-2.5031,-2.4956,-2.4552,-2.4321,-2.4291,-2.3924,-2.3924,-2.4306,-2.3924,-2.3924,-2.4201,-2.3879,-2.361,-2.3595,-2.3595,-2.3595,-2.3595,-2.3595,-2.3595,-2.3595,-2.3595,-2.3595,-2.3595,-2.3595,-2.3595,-2.3595,-2.3744,-2.4111,-2.4634,-2.5285,-2.5689,-2.5779,-2.6093,-2.6333,-2.6333,-2.6333,-2.6333,-2.6333,-2.6093,-2.5644,-2.4694,-2.4903,-2.4537,-2.3925,-2.3614,-2.3118,-2.1963,-2.1293,-2.0633,-1.9991,-1.9798,-1.9798,-1.9798,-1.9798,-1.9798,-1.9798,-1.9798,-1.9798,-1.9747,-1.9527,-1.9018,-1.8151,-1.7468,-1.681,-1.6093,-1.57,-1.542,-1.542,-1.542,-1.542,-1.542,-1.542,-1.542,-1.542,-1.542,-1.542,-1.542,-1.542,-1.542,-1.542,-1.542,-1.542,-1.542,-1.542,-1.542,-1.542,-1.5206,-1.4923,-1.4264,-1.3777,-1.2962,-2.3595,-2.3595,-2.3595,-2.3595,-2.3595,-2.3595,-2.3595,-2.3595,-2.3595,-2.3774,-2.4073,-2.441,-2.4769,-2.5008,-2.5023,-2.5217,-2.557,-2.56,-2.5749,-2.6123,-2.6677,-2.6437,-2.5794,-2.56,-2.56,-2.557,-2.5217,-2.5053,-2.4963,-2.4627,-2.4679,-2.4903,-2.4642,-2.4672,-2.4933,-2.4365,-2.4007,-2.3977,-2.3752,-2.3595,-2.3595,-2.3595,-2.3595,-2.3595,-2.3595,-2.3595,-2.3595,-2.3595,-2.3595,-2.3655,-2.3894,-2.4343,-2.4978,-2.5636,-2.6123,-2.6408,-2.6811,-2.7031,-2.7031,-2.7031,-2.7031,-2.6956,-2.6821,-2.6243,-2.557,-2.5405,-2.4694,-2.4201,-2.3616,-2.278,-2.1845,-2.0917,-2.027,-1.9875,-1.9798,-1.9798,-1.9798,-1.9798,-1.9798,-1.9798,-1.9798,-1.9798,-1.9798,-1.9553,-1.8806,-1.7907,-1.7274,-1.65,-1.5719,-1.5526,-1.542,-1.542,-1.542,-1.542,-1.542,-1.542,-1.542,-1.542,-1.542,-1.542,-1.542,-1.542,-1.542,-1.542,-1.542,-1.542,-1.542,-1.542,-1.542,-1.5352,-1.5167,-1.4628,-1.3876,-1.3235,-1.242,-2.3595,-2.3595,-2.3595,-2.3595,-2.3595,-2.3595,-2.3595,-2.3595,-2.3595,-2.3909,-2.435,-2.4619,-2.5053,-2.5591,-2.5621,-2.5779,-2.5869,-2.5869,-2.6183,-2.6701,-2.7165,-2.6956,-2.6138,-2.6063,-2.6048,-2.5974,-2.577,-2.5704,-2.5644,-2.56,-2.5615,-2.5615,-2.5585,-2.563,-2.5486,-2.4948,-2.4619,-2.4395,-2.3894,-2.361,-2.3595,-2.3595,-2.3595,-2.3595,-2.3595,-2.3595,-2.3595,-2.3595,-2.3595,-2.3595,-2.4186,-2.4664,-2.5375,-2.6048,-2.6632,-2.7136,-2.724,-2.7345,-2.7555,-2.7495,-2.7555,-2.7435,-2.7016,-2.6656,-2.6327,-2.5555,-2.4799,-2.45,-2.3352,-2.2268,-2.1379,-2.0395,-1.9965,-1.9798,-1.9798,-1.9798,-1.9798,-1.9798,-1.9798,-1.9798,-1.9798,-1.9798,-1.9527,-1.9123,-1.8394,-1.7413,-1.6894,-1.6368,-1.5719,-1.5468,-1.542,-1.542,-1.542,-1.542,-1.542,-1.542,-1.542,-1.542,-1.542,-1.542,-1.542,-1.542,-1.542,-1.542,-1.542,-1.542,-1.542,-1.542,-1.542,-1.5206,-1.4991,-1.4154,-1.3252,-1.2657,-1.1927,-2.3595,-2.3595,-2.3595,-2.3595,-2.3595,-2.3595,-2.3595,-2.3595,-2.3595,-2.3729,-2.4059,-2.4926,-2.5442,-2.5689,-2.6198,-2.6632,-2.6956,-2.6656,-2.6761,-2.7345,-2.748,-2.7495,-2.7136,-2.7076,-2.7121,-2.6976,-2.6572,-2.6393,-2.6303,-2.6019,-2.5899,-2.6303,-2.6019,-2.5884,-2.6198,-2.5262,-2.4605,-2.4485,-2.3954,-2.3625,-2.3595,-2.3595,-2.3595,-2.3595,-2.3595,-2.3595,-2.3595,-2.3595,-2.3595,-2.364,-2.3804,-2.4201,-2.4784,-2.5068,-2.5764,-2.6617,-2.6886,-2.7091,-2.748,-2.7585,-2.7585,-2.7555,-2.7405,-2.7165,-2.6611,-2.5869,-2.5143,-2.4453,-2.2985,-2.1571,-2.0496,-2.0042,-1.9824,-1.9798,-1.9798,-1.9798,-1.9798,-1.9798,-1.9798,-1.9798,-1.9798,-1.9579,-1.9071,-1.8939,-1.8151,-1.7062,-1.651,-1.6151,-1.5816,-1.5449,-1.542,-1.542,-1.542,-1.542,-1.542,-1.542,-1.542,-1.542,-1.542,-1.542,-1.542,-1.542,-1.542,-1.542,-1.542,-1.542,-1.542,-1.542,-1.542,-1.5108,-1.4717,-1.3885,-1.3061,-1.2289,-1.1586,-2.3595,-2.3595,-2.3595,-2.3595,-2.3595,-2.3595,-2.3595,-2.3595,-2.3595,-2.3969,-2.4582,-2.536,-2.5929,-2.6527,-2.6911,-2.73,-2.745,-2.727,-2.7255,-2.754,-2.7585,-2.7585,-2.7585,-2.7585,-2.7585,-2.754,-2.727,-2.7091,-2.6956,-2.6761,-2.6776,-2.7031,-2.6686,-2.6791,-2.6811,-2.5734,-2.5181,-2.4859,-2.4088,-2.3595,-2.3595,-2.3595,-2.3595,-2.3595,-2.3595,-2.3595,-2.3595,-2.3595,-2.3789,-2.3909,-2.3789,-2.3887,-2.4545,-2.4903,-2.56,-2.6378,-2.6956,-2.7165,-2.7525,-2.7585,-2.7585,-2.7585,-2.7585,-2.742,-2.6911,-2.6198,-2.554,-2.4688,-2.3135,-2.1221,-1.9991,-1.9798,-1.9798,-1.9798,-1.9798,-1.9798,-1.9798,-1.9798,-1.9798,-1.9798,-1.9798,-1.9397,-1.9018,-1.8608,-1.7907,-1.6838,-1.6578,-1.6208,-1.57,-1.542,-1.542,-1.542,-1.542,-1.542,-1.542,-1.542,-1.542,-1.542,-1.542,-1.542,-1.542,-1.542,-1.542,-1.542,-1.542,-1.542,-1.542,-1.542,-1.5352,-1.5108,-1.4599,-1.3765,-1.2848,-1.1927,-1.1288,-2.3595,-2.3595,-2.3595,-2.3595,-2.3595,-2.3595,-2.3595,-2.3595,-2.3595,-2.4208,-2.53,-2.5501,-2.6183,-2.7195,-2.748,-2.7555,-2.742,-2.739,-2.7315,-2.7315,-2.7121,-2.7315,-2.7435,-2.745,-2.745,-2.7555,-2.7525,-2.7525,-2.7525,-2.7585,-2.7375,-2.754,-2.7555,-2.7435,-2.724,-2.6303,-2.5525,-2.5345,-2.4238,-2.3595,-2.3595,-2.3595,-2.3595,-2.3595,-2.3595,-2.3595,-2.3595,-2.364,-2.3849,-2.4365,-2.3909,-2.3969,-2.4395,-2.4948,-2.56,-2.6183,-2.6566,-2.6821,-2.7031,-2.727,-2.739,-2.745,-2.757,-2.7585,-2.73,-2.6432,-2.5719,-2.4749,-2.3336,-2.1183,-2.0016,-1.9798,-1.9798,-1.9798,-1.9798,-1.9798,-1.9798,-1.9798,-1.9798,-1.9773,-1.9527,-1.9071,-1.8581,-1.814,-1.7385,-1.6754,-1.6521,-1.6218,-1.57,-1.542,-1.542,-1.542,-1.542,-1.542,-1.542,-1.542,-1.542,-1.542,-1.542,-1.542,-1.542,-1.542,-1.542,-1.542,-1.542,-1.542,-1.542,-1.542,-1.5294,-1.5079,-1.4323,-1.3304,-1.2397,-1.1538,-1.1052,-2.3595,-2.3595,-2.3595,-2.3595,-2.3595,-2.3595,-2.3595,-2.3595,-2.3595,-2.4029,-2.4784,-2.5375,-2.5989,-2.6776,-2.7405,-2.7285,-2.6956,-2.6811,-2.6767,-2.6686,-2.6437,-2.6596,-2.73,-2.721,-2.718,-2.748,-2.7585,-2.7585,-2.7585,-2.7585,-2.7585,-2.7585,-2.7585,-2.7585,-2.718,-2.6348,-2.557,-2.5315,-2.4268,-2.364,-2.3595,-2.3595,-2.3595,-2.3595,-2.3595,-2.3595,-2.3595,-2.3595,-2.3655,-2.3744,-2.3655,-2.3699,-2.3879,-2.4044,-2.4418,-2.4978,-2.5337,-2.5794,-2.6123,-2.6542,-2.6746,-2.6896,-2.7285,-2.757,-2.73,-2.6383,-2.5559,-2.4649,-2.3131,-2.1159,-1.9965,-1.9798,-1.9798,-1.9798,-1.9798,-1.9798,-1.9798,-1.9798,-1.9798,-1.9773,-1.9281,-1.8688,-1.8194,-1.7594,-1.6838,-1.6255,-1.5979,-1.5845,-1.5584,-1.542,-1.542,-1.542,-1.542,-1.542,-1.542,-1.542,-1.542,-1.542,-1.542,-1.542,-1.542,-1.542,-1.542,-1.542,-1.542,-1.542,-1.542,-1.542,-1.505,-1.4717,-1.3786,-1.2818,-1.2089,-1.1382,-1.0926,-2.3595,-2.3595,-2.3595,-2.3595,-2.3595,-2.3595,-2.3595,-2.3595,-2.361,-2.3962,-2.453,-2.4978,-2.5674,-2.6452,-2.6896,-2.6881,-2.6587,-2.6198,-2.6108,-2.6004,-2.6138,-2.6378,-2.7136,-2.7016,-2.73,-2.7525,-2.7585,-2.7585,-2.7585,-2.7585,-2.757,-2.7585,-2.7585,-2.7435,-2.6971,-2.6123,-2.5465,-2.4986,-2.4163,-2.3595,-2.3595,-2.3595,-2.3595,-2.3595,-2.3595,-2.3595,-2.3595,-2.3595,-2.3789,-2.3977,-2.3804,-2.3834,-2.3872,-2.3849,-2.3909,-2.447,-2.4859,-2.5173,-2.5606,-2.6198,-2.6602,-2.6701,-2.721,-2.7555,-2.727,-2.6413,-2.5103,-2.3569,-2.2536,-2.0868,-1.9901,-1.9824,-1.9798,-1.9798,-1.9798,-1.9798,-1.9798,-1.9798,-1.9798,-1.9721,-1.915,-1.8474,-1.7743,-1.7079,-1.6283,-1.5787,-1.5468,-1.542,-1.542,-1.542,-1.542,-1.542,-1.542,-1.542,-1.542,-1.542,-1.542,-1.542,-1.542,-1.542,-1.542,-1.542,-1.542,-1.542,-1.542,-1.542,-1.542,-1.5391,-1.4874,-1.4332,-1.3545,-1.2757,-1.1958,-1.132,-1.0832,-2.3595,-2.3595,-2.3595,-2.3595,-2.3595,-2.3595,-2.3595,-2.3595,-2.3595,-2.3984,-2.4545,-2.4679,-2.5277,-2.6138,-2.6348,-2.6303,-2.6183,-2.5585,-2.5435,-2.545,-2.56,-2.5974,-2.6537,-2.6881,-2.7136,-2.727,-2.7555,-2.7585,-2.7585,-2.7585,-2.7525,-2.7345,-2.736,-2.7076,-2.6363,-2.5651,-2.5098,-2.459,-2.3969,-2.361,-2.3595,-2.3595,-2.3595,-2.3595,-2.3595,-2.3595,-2.3595,-2.3595,-2.3797,-2.3992,-2.3939,-2.3819,-2.4186,-2.3894,-2.3864,-2.4365,-2.4918,-2.5113,-2.5292,-2.5734,-2.5989,-2.6004,-2.6911,-2.727,-2.7046,-2.5981,-2.4369,-2.21,-2.1161,-2.0572,-1.994,-1.9798,-1.9798,-1.9798,-1.9798,-1.9798,-1.9798,-1.9798,-1.9798,-1.9527,-1.8953,-1.8301,-1.7633,-1.6613,-1.5845,-1.57,-1.542,-1.542,-1.542,-1.542,-1.542,-1.542,-1.542,-1.542,-1.542,-1.542,-1.542,-1.542,-1.542,-1.542,-1.542,-1.542,-1.542,-1.542,-1.542,-1.542,-1.542,-1.5264,-1.4726,-1.4154,-1.3455,-1.2604,-1.1569,-1.1076,-1.0713,-2.3595,-2.3595,-2.3595,-2.3595,-2.3595,-2.3595,-2.3595,-2.3595,-2.3595,-2.3962,-2.4515,-2.4605,-2.4963,-2.5585,-2.5734,-2.5382,-2.5023,-2.4814,-2.4709,-2.4694,-2.4537,-2.4926,-2.56,-2.5749,-2.6318,-2.6692,-2.7225,-2.7555,-2.7435,-2.742,-2.7225,-2.6851,-2.6671,-2.6378,-2.5696,-2.5173,-2.4709,-2.4485,-2.3902,-2.3595,-2.3595,-2.3595,-2.3595,-2.3595,-2.3595,-2.3595,-2.3595,-2.3595,-2.3714,-2.3714,-2.3684,-2.364,-2.3699,-2.3684,-2.361,-2.3714,-2.3804,-2.3834,-2.4073,-2.4664,-2.5083,-2.5322,-2.6063,-2.6557,-2.6223,-2.535,-2.3648,-2.1238,-2.0771,-2.0472,-1.994,-1.9824,-1.9798,-1.9798,-1.9798,-1.9798,-1.9798,-1.9798,-1.9798,-1.9371,-1.8794,-1.8205,-1.755,-1.6443,-1.5478,-1.5449,-1.542,-1.542,-1.542,-1.542,-1.542,-1.542,-1.542,-1.542,-1.542,-1.542,-1.542,-1.542,-1.542,-1.542,-1.542,-1.542,-1.542,-1.542,-1.542,-1.541,-1.5381,-1.5108,-1.4569,-1.3906,-1.3213,-1.2151,-1.0996,-1.0688,-1.0586,-2.3595,-2.3595,-2.3595,-2.3595,-2.3595,-2.3595,-2.3595,-2.3595,-2.3595,-2.3759,-2.3977,-2.4022,-2.4395,-2.4933,-2.5038,-2.4889,-2.456,-2.4238,-2.4022,-2.4171,-2.4096,-2.4455,-2.5008,-2.5397,-2.5815,-2.6004,-2.6288,-2.6348,-2.6542,-2.6767,-2.6701,-2.6138,-2.6004,-2.5704,-2.5098,-2.4754,-2.438,-2.4051,-2.3744,-2.361,-2.3595,-2.3595,-2.3595,-2.3595,-2.3595,-2.3595,-2.3595,-2.3595,-2.3595,-2.3595,-2.3595,-2.3595,-2.3595,-2.3595,-2.3595,-2.361,-2.361,-2.3625,-2.3714,-2.4216,-2.447,-2.4754,-2.5359,-2.5667,-2.5051,-2.4124,-2.2958,-2.1025,-2.0421,-2.0093,-1.9901,-1.9824,-1.9798,-1.9798,-1.9798,-1.9798,-1.9798,-1.9798,-1.9695,-1.9176,-1.8635,-1.807,-1.7385,-1.6312,-1.5526,-1.542,-1.542,-1.542,-1.542,-1.542,-1.542,-1.542,-1.542,-1.542,-1.542,-1.542,-1.542,-1.542,-1.542,-1.542,-1.542,-1.542,-1.542,-1.542,-1.542,-1.5381,-1.5371,-1.4952,-1.4451,-1.3726,-1.2962,-1.1996,-1.1083,-1.0713,-1.0618,-2.3595,-2.3595,-2.3595,-2.3595,-2.3595,-2.3595,-2.3595,-2.3595,-2.3595,-2.361,-2.3595,-2.364,-2.3902,-2.4246,-2.435,-2.4306,-2.4276,-2.3834,-2.3655,-2.3789,-2.4022,-2.4246,-2.453,-2.4933,-2.5307,-2.5367,-2.5689,-2.563,-2.5576,-2.5734,-2.5779,-2.5352,-2.5352,-2.4986,-2.4515,-2.4276,-2.4036,-2.3714,-2.364,-2.3595,-2.3595,-2.3595,-2.3595,-2.3595,-2.3595,-2.3595,-2.3595,-2.3595,-2.3595,-2.3595,-2.3595,-2.3595,-2.3595,-2.3595,-2.3595,-2.3595,-2.3595,-2.3595,-2.3699,-2.3992,-2.4306,-2.456,-2.4782,-2.4864,-2.3703,-2.2906,-2.2031,-2.0624,-2.0182,-1.9901,-1.9798,-1.9798,-1.9798,-1.9798,-1.9798,-1.9798,-1.9798,-1.9798,-1.9721,-1.9371,-1.8753,-1.7934,-1.7163,-1.6169,-1.5584,-1.5439,-1.542,-1.542,-1.542,-1.542,-1.542,-1.542,-1.542,-1.542,-1.542,-1.542,-1.542,-1.542,-1.542,-1.542,-1.542,-1.542,-1.542,-1.542,-1.542,-1.541,-1.5381,-1.4864,-1.4323,-1.3575,-1.2818,-1.2143,-1.1445,-1.0958,-1.0649,-2.3595,-2.3595,-2.3595,-2.3595,-2.3595,-2.3595,-2.3595,-2.3595,-2.3595,-2.3595,-2.3595,-2.361,-2.364,-2.3714,-2.3789,-2.3774,-2.3699,-2.3625,-2.361,-2.361,-2.367,-2.3774,-2.3999,-2.4373,-2.4679,-2.4769,-2.5031,-2.4993,-2.4814,-2.4769,-2.4769,-2.4664,-2.4664,-2.4246,-2.3954,-2.3834,-2.3804,-2.3595,-2.3595,-2.3595,-2.3595,-2.3595,-2.3595,-2.3595,-2.3595,-2.3595,-2.3595,-2.3595,-2.3595,-2.3595,-2.3595,-2.3595,-2.3595,-2.3595,-2.3595,-2.3595,-2.3595,-2.3595,-2.3684,-2.3699,-2.3684,-2.3894,-2.4067,-2.4048,-2.2911,-2.2742,-2.1751,-2.0284,-1.9914,-1.9824,-1.9798,-1.9798,-1.9798,-1.9798,-1.9798,-1.9798,-1.9798,-1.9798,-1.9695,-1.9475,-1.8806,-1.7852,-1.7052,-1.6054,-1.5584,-1.5449,-1.542,-1.542,-1.542,-1.542,-1.542,-1.542,-1.542,-1.542,-1.542,-1.542,-1.542,-1.542,-1.542,-1.542,-1.542,-1.542,-1.542,-1.542,-1.542,-1.542,-1.5391,-1.5108,-1.4569,-1.3545,-1.2696,-1.1958,-1.1351,-1.08,-1.0618,-2.3595,-2.3595,-2.3595,-2.3595,-2.3595,-2.3595,-2.3595,-2.3595,-2.3595,-2.3595,-2.3595,-2.3595,-2.3595,-2.3595,-2.3595,-2.3595,-2.3595,-2.3595,-2.3595,-2.3595,-2.3595,-2.3595,-2.3744,-2.3834,-2.3992,-2.4073,-2.4298,-2.4328,-2.4044,-2.4051,-2.3977,-2.3977,-2.4036,-2.3872,-2.3655,-2.3595,-2.3595,-2.3595,-2.3595,-2.3595,-2.3595,-2.3595,-2.3595,-2.3595,-2.3595,-2.3595,-2.3595,-2.3595,-2.3595,-2.3595,-2.3595,-2.3595,-2.3595,-2.3595,-2.3595,-2.3595,-2.3595,-2.3595,-2.3595,-2.3595,-2.3595,-2.3538,-2.3481,-2.3046,-2.2201,-2.182,-2.1071,-2.0195,-1.9798,-1.9798,-1.9798,-1.9798,-1.9798,-1.9798,-1.9798,-1.9798,-1.9798,-1.9798,-1.9501,-1.924,-1.8421,-1.7495,-1.6754,-1.6007,-1.5671,-1.542,-1.542,-1.542,-1.542,-1.542,-1.542,-1.542,-1.542,-1.542,-1.542,-1.542,-1.542,-1.542,-1.542,-1.542,-1.542,-1.542,-1.542,-1.542,-1.542,-1.542,-1.542,-1.542,-1.4815,-1.3726,-1.2696,-1.1772,-1.1163,-1.0649,-1.0586,-2.3595,-2.3595,-2.3595,-2.3595,-2.3595,-2.3595,-2.3595,-2.3595,-2.3595,-2.3595,-2.3595,-2.3595,-2.3595,-2.3595,-2.3595,-2.3595,-2.3595,-2.3595,-2.3595,-2.3595,-2.3595,-2.3595,-2.3595,-2.3625,-2.3699,-2.3595,-2.3595,-2.364,-2.3684,-2.361,-2.3655,-2.367,-2.3595,-2.361,-2.361,-2.3595,-2.3595,-2.3595,-2.3595,-2.3595,-2.3595,-2.3595,-2.3595,-2.3595,-2.3595,-2.3595,-2.3595,-2.3595,-2.3595,-2.3595,-2.3595,-2.3595,-2.3595,-2.3595,-2.3595,-2.3595,-2.3595,-2.3595,-2.3595,-2.3595,-2.3508,-2.326,-2.3001,-2.2379,-2.1595,-2.1028,-2.0611,-1.9965,-1.9798,-1.9798,-1.9798,-1.9798,-1.9798,-1.9798,-1.9798,-1.9798,-1.9798,-1.9773,-1.9319,-1.8912,-1.807,-1.733,-1.6613,-1.595,-1.5642,-1.542,-1.542,-1.542,-1.542,-1.542,-1.542,-1.542,-1.542,-1.542,-1.542,-1.542,-1.542,-1.542,-1.542,-1.542,-1.542,-1.542,-1.542,-1.542,-1.542,-1.542,-1.5381,-1.5381,-1.4746,-1.3906,-1.2687,-1.1351,-1.1045,-1.0586,-1.0586,-2.3595,-2.3595,-2.3595,-2.3595,-2.3595,-2.3595,-2.3595,-2.3595,-2.3595,-2.3595,-2.3595,-2.3595,-2.3595,-2.3595,-2.3595,-2.3595,-2.3595,-2.3595,-2.3595,-2.3595,-2.3595,-2.3595,-2.3595,-2.3595,-2.3595,-2.3595,-2.3595,-2.3595,-2.3595,-2.3595,-2.3595,-2.3595,-2.3595,-2.3595,-2.3595,-2.3595,-2.3595,-2.3595,-2.3595,-2.3595,-2.3595,-2.3595,-2.3595,-2.3595,-2.3595,-2.3595,-2.3595,-2.3595,-2.3595,-2.3595,-2.3595,-2.3595,-2.3595,-2.3595,-2.3595,-2.3595,-2.3595,-2.3595,-2.3595,-2.3595,-2.3355,-2.2897,-2.2672,-2.2067,-2.1175,-2.0696,-2.0472,-1.985,-1.9798,-1.9798,-1.9798,-1.9798,-1.9798,-1.9798,-1.9798,-1.9798,-1.9798,-1.9773,-1.9371,-1.8608,-1.795,-1.733,-1.6557,-1.5921,-1.5584,-1.542,-1.542,-1.542,-1.542,-1.542,-1.542,-1.542,-1.542,-1.542,-1.542,-1.542,-1.542,-1.542,-1.542,-1.542,-1.542,-1.542,-1.542,-1.542,-1.542,-1.542,-1.5381,-1.5323,-1.4421,-1.3425,-1.2058,-1.0958,-1.0713,-1.0586,-1.0586,-2.3595,-2.3595,-2.3595,-2.3595,-2.3595,-2.3595,-2.3595,-2.3595,-2.3595,-2.3595,-2.3595,-2.3595,-2.3595,-2.3595,-2.3595,-2.3595,-2.3595,-2.3595,-2.3595,-2.3595,-2.3595,-2.3595,-2.3595,-2.3595,-2.3595,-2.3595,-2.3595,-2.3595,-2.3595,-2.3595,-2.3595,-2.3595,-2.3595,-2.3595,-2.3595,-2.3595,-2.3595,-2.3595,-2.3595,-2.3595,-2.3595,-2.3595,-2.3595,-2.3595,-2.3595,-2.3595,-2.3595,-2.3595,-2.3595,-2.3595,-2.3595,-2.3595,-2.3595,-2.3595,-2.3595,-2.3595,-2.3595,-2.3595,-2.3595,-2.3551,-2.3297,-2.2793,-2.2253,-2.1738,-2.0919,-2.0346,-2.0042,-1.9875,-1.9824,-1.9798,-1.9798,-1.9798,-1.9798,-1.9798,-1.9798,-1.9798,-1.9798,-1.9773,-1.9449,-1.8382,-1.7567,-1.6828,-1.6054,-1.5806,-1.5497,-1.542,-1.542,-1.542,-1.542,-1.542,-1.542,-1.542,-1.542,-1.542,-1.542,-1.542,-1.542,-1.542,-1.542,-1.542,-1.542,-1.542,-1.542,-1.542,-1.542,-1.542,-1.5264,-1.4962,-1.3906,-1.2787,-1.1818,-1.0989,-1.0649,-1.0586,-1.0586,-2.3595,-2.3595,-2.3595,-2.3595,-2.3595,-2.3595,-2.3595,-2.3595,-2.3595,-2.3595,-2.3595,-2.3595,-2.3595,-2.3595,-2.3595,-2.3595,-2.3595,-2.3595,-2.3595,-2.3595,-2.3595,-2.3595,-2.3595,-2.361,-2.3595,-2.3595,-2.3595,-2.3595,-2.3595,-2.3595,-2.3595,-2.3595,-2.3595,-2.3595,-2.3595,-2.3595,-2.3595,-2.3595,-2.3595,-2.3595,-2.3595,-2.3595,-2.3595,-2.3595,-2.3595,-2.3595,-2.3595,-2.3595,-2.3595,-2.3595,-2.3595,-2.3595,-2.3595,-2.3595,-2.3595,-2.3595,-2.3595,-2.3595,-2.3595,-2.3275,-2.2928,-2.2346,-2.1899,-2.1304,-2.0658,-2.0067,-1.9927,-1.9824,-1.9798,-1.9798,-1.9798,-1.9798,-1.9798,-1.9798,-1.9798,-1.9798,-1.9747,-1.9721,-1.9097,-1.8058,-1.7163,-1.6358,-1.5719,-1.5613,-1.542,-1.542,-1.542,-1.542,-1.542,-1.542,-1.542,-1.542,-1.542,-1.542,-1.542,-1.542,-1.542,-1.542,-1.542,-1.542,-1.542,-1.542,-1.542,-1.542,-1.542,-1.5352,-1.5108,-1.4569,-1.3726,-1.297,-1.2212,-1.1445,-1.0776,-1.0586,-1.0586,-2.3595,-2.3595,-2.3595,-2.3595,-2.3595,-2.3595,-2.3595,-2.3595,-2.3595,-2.3595,-2.3595,-2.3595,-2.3595,-2.3595,-2.3595,-2.3595,-2.3595,-2.3595,-2.3684,-2.3655,-2.367,-2.367,-2.3684,-2.367,-2.361,-2.3595,-2.3595,-2.3595,-2.3595,-2.3595,-2.3595,-2.3595,-2.3595,-2.3595,-2.3595,-2.3595,-2.3595,-2.3595,-2.3595,-2.3595,-2.3595,-2.3595,-2.3595,-2.3595,-2.3595,-2.3595,-2.3595,-2.3595,-2.3595,-2.3595,-2.3595,-2.3595,-2.3595,-2.3595,-2.3595,-2.3595,-2.3595,-2.3595,-2.3508,-2.3143,-2.2529,-2.2007,-2.1687,-2.0953,-2.027,-1.9875,-1.9824,-1.9798,-1.9798,-1.9798,-1.9798,-1.9798,-1.9798,-1.9798,-1.9798,-1.9747,-1.9657,-1.9281,-1.8555,-1.7704,-1.6866,-1.6151,-1.5642,-1.542,-1.542,-1.542,-1.542,-1.542,-1.542,-1.542,-1.542,-1.542,-1.542,-1.542,-1.542,-1.542,-1.542,-1.542,-1.542,-1.542,-1.542,-1.542,-1.542,-1.542,-1.542,-1.5264,-1.4874,-1.4362,-1.3726,-1.297,-1.2058,-1.1476,-1.0618,-1.0586,-1.0586,-2.3595,-2.3595,-2.3595,-2.3595,-2.3595,-2.3595,-2.3595,-2.3595,-2.3595,-2.3595,-2.3595,-2.3595,-2.3595,-2.3595,-2.3595,-2.3595,-2.3595,-2.367,-2.3962,-2.3962,-2.3774,-2.3969,-2.3962,-2.3834,-2.367,-2.3595,-2.3595,-2.3595,-2.3595,-2.3595,-2.3595,-2.3595,-2.3595,-2.3595,-2.3595,-2.3595,-2.3595,-2.3595,-2.3595,-2.3595,-2.3595,-2.3595,-2.3595,-2.3595,-2.3595,-2.3595,-2.3595,-2.3595,-2.3595,-2.3595,-2.3595,-2.3595,-2.3595,-2.3595,-2.3595,-2.3595,-2.3595,-2.3573,-2.3508,-2.3031,-2.2383,-2.17,-2.1293,-2.067,-2.0067,-1.9798,-1.9798,-1.9798,-1.9798,-1.9798,-1.9798,-1.9798,-1.9798,-1.9798,-1.9798,-1.9773,-1.9605,-1.9006,-1.8248,-1.7235,-1.6425,-1.5921,-1.5439,-1.542,-1.542,-1.542,-1.542,-1.542,-1.542,-1.542,-1.542,-1.542,-1.542,-1.542,-1.542,-1.542,-1.542,-1.542,-1.542,-1.542,-1.542,-1.542,-1.542,-1.542,-1.542,-1.5021,-1.451,-1.3965,-1.3364,-1.2358,-1.1476,-1.1021,-1.0681,-1.0618,-1.0586,-2.3595,-2.3595,-2.3595,-2.3595,-2.3595,-2.3595,-2.3595,-2.3595,-2.3595,-2.3595,-2.3595,-2.3595,-2.3595,-2.3595,-2.3595,-2.3595,-2.3595,-2.361,-2.3789,-2.3842,-2.3819,-2.3879,-2.3887,-2.3842,-2.3655,-2.3595,-2.3595,-2.3595,-2.3595,-2.3595,-2.3595,-2.3595,-2.3595,-2.3595,-2.3595,-2.3595,-2.3595,-2.3595,-2.3595,-2.3595,-2.3595,-2.3595,-2.3595,-2.3595,-2.3595,-2.3595,-2.3595,-2.3595,-2.3595,-2.3595,-2.3595,-2.3595,-2.3595,-2.3595,-2.3595,-2.3595,-2.3595,-2.3421,-2.3165,-2.2583,-2.2007,-2.139,-2.0794,-2.0295,-2.0029,-1.9798,-1.9798,-1.9798,-1.9798,-1.9798,-1.9798,-1.9798,-1.9798,-1.9798,-1.9798,-1.9798,-1.9333,-1.8768,-1.7841,-1.68,-1.614,-1.5661,-1.542,-1.542,-1.542,-1.542,-1.542,-1.542,-1.542,-1.542,-1.542,-1.542,-1.542,-1.542,-1.542,-1.542,-1.542,-1.542,-1.542,-1.542,-1.542,-1.542,-1.542,-1.542,-1.542,-1.4903,-1.4332,-1.3575,-1.2879,-1.1903,-1.1163,-1.0832,-1.0618,-1.0618,-1.0586,-2.3595,-2.3595,-2.3595,-2.3595,-2.3595,-2.3595,-2.3595,-2.3595,-2.3595,-2.3595,-2.3595,-2.3595,-2.3595,-2.3595,-2.3595,-2.3595,-2.3595,-2.361,-2.3744,-2.367,-2.3655,-2.3759,-2.3879,-2.364,-2.361,-2.3595,-2.3595,-2.3595,-2.3595,-2.3595,-2.3595,-2.3595,-2.3595,-2.3595,-2.3595,-2.3595,-2.3595,-2.3595,-2.3595,-2.3595,-2.3595,-2.3595,-2.3595,-2.3595,-2.3595,-2.3595,-2.3595,-2.3595,-2.3595,-2.3595,-2.3595,-2.3595,-2.3595,-2.3595,-2.3595,-2.353,-2.3508,-2.315,-2.2711,-2.2146,-2.1485,-2.0837,-2.0169,-1.9788,-1.9535,-1.9736,-1.9786,-1.9798,-1.9798,-1.9798,-1.9798,-1.9798,-1.9798,-1.9798,-1.9798,-1.9631,-1.9202,-1.8355,-1.7135,-1.6244,-1.5835,-1.542,-1.542,-1.542,-1.542,-1.542,-1.542,-1.542,-1.542,-1.542,-1.542,-1.542,-1.542,-1.542,-1.542,-1.542,-1.542,-1.542,-1.542,-1.542,-1.542,-1.542,-1.542,-1.542,-1.5391,-1.4785,-1.4183,-1.3425,-1.2604,-1.1655,-1.1045,-1.0713,-1.0586,-1.0586,-1.0586,-2.3595,-2.3595,-2.3595,-2.3595,-2.3595,-2.3595,-2.3595,-2.3595,-2.3595,-2.3595,-2.3595,-2.3595,-2.3595,-2.3595,-2.3595,-2.3595,-2.3595,-2.3625,-2.3924,-2.3939,-2.3834,-2.3819,-2.4081,-2.3759,-2.364,-2.3595,-2.3595,-2.3595,-2.3595,-2.3595,-2.3595,-2.3595,-2.3595,-2.3595,-2.3595,-2.3595,-2.3595,-2.3595,-2.3595,-2.3595,-2.3595,-2.3595,-2.3595,-2.3595,-2.3595,-2.3595,-2.3595,-2.3595,-2.3595,-2.3595,-2.3595,-2.3595,-2.3595,-2.3595,-2.3355,-2.3098,-2.329,-2.2883,-2.2216,-2.1669,-2.1141,-2.049,-1.9847,-1.9282,-1.9133,-1.9547,-1.9773,-1.9773,-1.9798,-1.9798,-1.9798,-1.9798,-1.9798,-1.9798,-1.9773,-1.9411,-1.9059,-1.7786,-1.6472,-1.595,-1.5497,-1.542,-1.542,-1.542,-1.542,-1.542,-1.542,-1.542,-1.542,-1.542,-1.542,-1.542,-1.542,-1.542,-1.542,-1.542,-1.542,-1.542,-1.542,-1.542,-1.542,-1.542,-1.542,-1.542,-1.5264,-1.4608,-1.3944,-1.3304,-1.2451,-1.1413,-1.0951,-1.0649,-1.0586,-1.0586,-1.0586,-2.3595,-2.3595,-2.3595,-2.3595,-2.3595,-2.3595,-2.3595,-2.3595,-2.3595,-2.3595,-2.3595,-2.3595,-2.3595,-2.3595,-2.3595,-2.3595,-2.3595,-2.3595,-2.3744,-2.3894,-2.3939,-2.3864,-2.3849,-2.3804,-2.3684,-2.3595,-2.3595,-2.3595,-2.3595,-2.3595,-2.3595,-2.3595,-2.3595,-2.3595,-2.3595,-2.3595,-2.3595,-2.3595,-2.3595,-2.3595,-2.3595,-2.3595,-2.3595,-2.3595,-2.3595,-2.3595,-2.3595,-2.3595,-2.3595,-2.3595,-2.3595,-2.3595,-2.3595,-2.3595,-2.329,-2.3001,-2.2852,-2.2643,-2.1771,-2.1202,-2.0796,-2.0028,-1.9799,-1.9371,-1.8744,-1.9108,-1.9535,-1.9572,-1.9761,-1.9786,-1.9798,-1.9798,-1.9798,-1.9798,-1.9669,-1.9397,-1.8528,-1.7302,-1.6312,-1.5671,-1.542,-1.542,-1.542,-1.542,-1.542,-1.542,-1.542,-1.542,-1.542,-1.542,-1.542,-1.542,-1.542,-1.542,-1.542,-1.542,-1.542,-1.542,-1.542,-1.542,-1.542,-1.542,-1.542,-1.5294,-1.4932,-1.4243,-1.3584,-1.2909,-1.2058,-1.1014,-1.0737,-1.0586,-1.0593,-1.0606,-1.0626,-2.3595,-2.3595,-2.3595,-2.3595,-2.3595,-2.3595,-2.3595,-2.3595,-2.3595,-2.3595,-2.3595,-2.3595,-2.3595,-2.3595,-2.3595,-2.3595,-2.3595,-2.3595,-2.3655,-2.367,-2.364,-2.3699,-2.3684,-2.361,-2.3595,-2.3595,-2.3595,-2.3595,-2.3595,-2.3595,-2.3595,-2.3595,-2.3595,-2.3595,-2.3595,-2.3595,-2.3595,-2.3595,-2.3595,-2.3595,-2.3595,-2.3595,-2.3595,-2.3595,-2.3595,-2.3595,-2.3595,-2.3595,-2.3595,-2.3595,-2.3595,-2.3595,-2.3595,-2.3573,-2.3224,-2.2934,-2.2754,-2.2128,-2.1248,-2.0906,-2.0171,-1.9534,-1.9661,-1.9397,-1.8731,-1.8781,-1.9171,-1.9334,-1.9535,-1.9786,-1.9798,-1.9773,-1.9773,-1.9619,-1.9437,-1.9123,-1.7988,-1.6866,-1.6112,-1.542,-1.542,-1.542,-1.542,-1.542,-1.542,-1.542,-1.542,-1.542,-1.542,-1.542,-1.542,-1.542,-1.542,-1.542,-1.542,-1.542,-1.542,-1.542,-1.542,-1.542,-1.542,-1.542,-1.5294,-1.4991,-1.4569,-1.3876,-1.3114,-1.2389,-1.15,-1.0751,-1.0649,-1.0593,-1.0633,-1.0646,-1.0687,-2.3595,-2.3595,-2.3595,-2.3595,-2.3595,-2.3595,-2.3595,-2.3595,-2.3595,-2.3595,-2.3595,-2.3595,-2.3595,-2.3595,-2.3595,-2.3595,-2.3595,-2.3595,-2.3595,-2.361,-2.3595,-2.3595,-2.3595,-2.3595,-2.3595,-2.3595,-2.3595,-2.3595,-2.3595,-2.3595,-2.3595,-2.3595,-2.3595,-2.3595,-2.3595,-2.3595,-2.3595,-2.3595,-2.3595,-2.3595,-2.3595,-2.3595,-2.3595,-2.3595,-2.3595,-2.3595,-2.3595,-2.3595,-2.3595,-2.3595,-2.3595,-2.3595,-2.3595,-2.3551,-2.3209,-2.2717,-2.2558,-2.1846,-2.1102,-2.0721,-1.9962,-1.9157,-1.9196,-1.9108,-1.8719,-1.8706,-1.8895,-1.882,-1.912,-1.9685,-1.9786,-1.9723,-1.9672,-1.9245,-1.8958,-1.8344,-1.7495,-1.65,-1.5642,-1.542,-1.542,-1.542,-1.542,-1.542,-1.542,-1.542,-1.542,-1.542,-1.542,-1.542,-1.542,-1.542,-1.542,-1.542,-1.542,-1.542,-1.542,-1.542,-1.542,-1.542,-1.542,-1.542,-1.5235,-1.4785,-1.4204,-1.3537,-1.2749,-1.1934,-1.1404,-1.0796,-1.0656,-1.06,-1.0653,-1.0747,-1.0802]},{"header":{"parameterUnit":"m.s-1","parameterCategory":1,"la1":31.0,"la2":29.5877,"lo1":-88.7671,"lo2":-86.6584,"dy":0.0162,"dx":0.0185,"nx":115,"ny":88,"refTime":"2024-12-01T18:00:00:Z","depth":0,"parameterNumber":3,"parameterNumberName":"V-component_of_WINDS"},"data":[0.0,0.0,0.0,0.0,0.0,0.0,0.0,0.0,0.0,0.0,0.0,0.0,0.0,0.0,0.0,0.0,0.0,0.0,0.0,0.0,0.0,0.0,0.0,0.0,0.0,0.0,0.0,0.0,0.0,0.0,0.0,0.0,0.0,0.0,0.0,0.0,0.0,0.0,0.0,0.0,0.0,0.0,0.0,0.0,0.0,0.0,0.0,0.0,0.0,0.0,0.0,0.0,0.0,0.0,0.0,0.0,0.0,0.0,0.0,0.0,0.0,0.0,0.0,0.0,0.0,0.0,0.0,0.0,0.0,0.0,0.0,0.0,0.0,0.0,0.0,0.0,0.0,0.0,0.0,0.0,0.0,0.0,0.0,0.0,0.0,0.0,0.0,0.0,0.0,0.0,0.0,0.0,0.0,0.0,0.0,0.0,0.0,0.0,0.0,0.0,0.0,0.0,0.0,0.0,0.0,0.0,0.0,0.0,0.0,0.0,0.0,0.0,0.0,0.0,0.0,0.0,0.0,0.0,0.0,0.0,0.0,0.0,0.0,0.0,0.0,0.0,0.0,0.0,0.0,0.0,0.0,0.0,0.0,0.0,0.0,0.0,0.0,0.0,0.0,0.0,0.0,0.0,0.0,0.0,0.0,0.0,0.0,0.0,0.0,0.0,0.0,0.0,0.0,0.0,0.0,0.0,0.0,0.0,0.0,0.0,0.0,0.0,0.0,0.0,0.0,0.0,0.0,0.0,0.0,0.0,0.0,0.0,0.0,0.0,0.0,0.0,0.0,0.0,0.0,0.0,0.0,0.0,0.0,0.0,0.0,0.0,0.0,0.0,0.0,0.0,0.0,0.0,0.0,0.0,0.0,0.0,0.0,0.0,0.0,0.0,0.0,0.0,0.0,0.0,0.0,0.0,0.0,0.0,0.0,0.0,0.0,0.0,0.0,0.0,0.0,0.0,0.0,0.0,0.0,0.0,0.0,0.0,0.0,0.0,0.0,0.0,0.0,0.0,0.0,0.0,0.0,0.0,0.0,0.0,0.0,0.0,0.0,0.0,0.0,0.0,0.0,0.0,0.0,0.0,0.0,0.0,0.0,0.0,0.0,0.0,0.0,0.0,0.0,0.0,0.0,0.0,0.0,0.0,0.0,0.0,0.0,0.0,0.0,0.0,0.0,0.0,0.0,0.0,0.0,0.0,0.0,0.0,0.0,0.0,0.0,0.0,0.0,0.0,0.0,0.0,0.0,0.0,0.0,0.0,0.0,0.0,0.0,0.0,0.0,0.0,0.0,0.0,0.0,0.0,0.0,0.0,0.0,0.0,0.0,0.0,0.0,0.0,0.0,0.0,0.0,0.0,0.0,0.0,0.0,0.0,0.0,0.0,0.0,0.0,0.0,0.0,0.0,0.0,0.0,0.0,0.0,0.0,0.0,0.0,0.0,0.0,0.0,0.0,0.0,0.0,0.0,0.0,0.0,0.0,0.0,0.0,0.0,0.0,0.0,0.0,0.0,0.0,0.0,0.0,0.0,0.0,0.0,0.0,0.0,0.0,0.0,0.0,0.0,0.0,0.0,0.0,0.0,0.0,0.0,0.0,0.0,0.0,0.0,0.0,0.0,0.0,0.0,0.0,0.0,0.0,0.0,0.0,0.0,0.0,0.0,0.0,0.0,0.0,0.0,0.0,0.0,0.0,0.0,0.0,0.0,0.0,0.0,0.0,0.0,0.0,0.0,0.0,0.0,0.0,0.0,0.0,0.0,0.0,0.0,0.0,0.0,0.0,0.0,0.0,0.0,0.0,0.0,0.0,0.0,0.0,0.0,0.0,0.0,0.0,0.0,0.0,0.0,0.0,0.0,0.0,0.0,0.0,0.0,0.0,0.0,0.0,0.0,0.0,0.0,0.0,0.0,0.0,0.0,0.0,0.0,0.0,0.0,0.0,0.0,0.0,0.0,0.0,0.0,0.0,0.0,0.0,0.0,0.0,0.0,0.0,0.0,0.0,0.0,0.0,0.0,0.0,0.0,0.0,0.0,0.0,0.0,0.0,0.0,0.0,0.0,0.0,0.0,0.0,0.0,0.0,0.0,0.0,0.0,0.0,0.0,0.0,0.0,0.0,0.0,0.0,0.0,0.0,0.0,0.0,0.0,0.0,0.0,0.0,0.0,0.0,0.0,0.0,0.0,0.0,0.0,0.0,0.0,0.0,0.0,0.0,0.0,0.0,0.0,0.0,0.0,0.0,0.0,0.0,0.0,0.0,0.0,0.0,0.0,0.0,0.0,0.0,0.0,0.0,0.0,0.0,0.0,0.0,0.0,0.0,0.0,0.0,0.0,0.0,0.0,0.0,0.0,0.0,0.0,0.0,0.0,0.0,0.0,0.0,0.0,0.0,0.0,0.0,0.0,0.0,0.0,0.0,0.0,0.0,0.0,0.0,0.0,0.0,0.0,0.0,0.0,0.0,0.0,0.0,0.0,0.0,0.0,0.0,0.0,0.0,0.0,0.0,0.0,0.0,0.0,0.0,0.0,0.0,0.0,0.0,0.0,0.0,0.0,0.0,0.0,0.0,0.0,0.0,0.0,0.0,0.0,0.0,0.0,0.0,0.0,0.0,0.0,0.0,0.0,0.0,0.0,0.0,0.0,0.0,0.0,0.0,0.0,0.0,0.0,0.0,0.0,0.0,0.0,0.0,0.0,0.0,0.0,0.0,0.0,0.0,0.0,0.0,0.0,0.0,0.0,0.0,0.0,0.0,0.0,0.0,0.0,0.0,0.0,0.0,0.0,0.0,0.0,0.0,0.0,0.0,0.0,0.0,0.0,0.0,0.0,0.0,0.0,0.0,0.0,0.0,0.0,0.0,0.0,0.0,0.0,0.0,0.0,0.0,0.0,0.0,0.0,0.0,0.0,0.0,0.0,0.0,0.0,0.0,0.0,0.0,0.0,0.0,0.0,0.0,0.0,0.0,0.0,0.0,0.0,0.0,0.0,0.0,0.0,0.0,0.0,0.0,0.0,0.0,0.0,0.0,0.0,0.0,0.0,0.0,0.0,0.0,0.0,0.0,0.0,0.0,0.0,0.0,0.0,0.0,0.0,0.0,0.0,0.0,0.0,0.0,0.0,0.0,0.0,0.0,0.0,0.0,0.0,0.0,0.0,0.0,0.0,0.0,0.0,0.0,0.0,0.0,0.0,0.0,0.0,0.0,0.0,0.0,0.0,0.0,0.0,0.0,0.0,0.0,0.0,0.0,0.0,0.0,0.0,0.0,0.0,0.0,0.0,0.0,0.0,0.0,0.0,0.0,0.0,0.0,0.0,0.0,0.0,0.0,0.0,0.0,0.0,0.0,0.0,0.0,0.0,0.0,0.0,0.0,0.0,0.0,0.0,0.0,0.0,0.0,0.0,0.0,0.0,0.0,0.0,0.0,0.0,0.0,0.0,0.0,0.0,0.0,0.0,0.0,0.0,0.0,0.0,0.0,0.0,0.0,0.0,0.0,0.0,0.0,0.0,0.0,0.0,0.0,0.0,0.0,0.0,0.0,0.0,0.0,0.0,0.0,0.0,0.0,0.0,0.0,0.0,0.0,0.0,0.0,0.0,0.0,0.0,0.0,0.0,0.0,0.0,0.0,0.0,0.0,0.0,0.0,0.0,0.0,0.0,0.0,0.0,0.0,0.0,0.0,0.0,0.0,0.0,0.0,0.0,0.0,0.0,0.0,0.0,0.0,0.0,0.0,0.0,0.0,0.0,0.0,0.0,0.0,0.0,0.0,0.0,0.0,0.0,0.0,0.0,0.0,0.0,0.0,0.0,0.0,0.0,0.0,0.0,0.0,0.0,0.0,0.0,0.0,0.0,0.0,0.0,0.0,0.0,0.0,0.0,0.0,0.0,0.0,0.0,0.0,0.0,0.0,0.0,0.0,0.0,0.0,0.0,0.0,0.0,0.0,0.0,0.0,0.0,0.0,0.0,0.0,0.0,0.0,0.0,0.0,0.0,0.0,0.0,0.0,0.0,0.0,0.0,0.0,0.0,0.0,0.0,0.0,0.0,0.0,0.0,0.0,0.0,0.0,0.0,0.0,0.0,0.0,0.0,0.0,0.0,0.0,0.0,0.0,0.0,0.0,0.0,0.0,0.0,0.0,0.0,0.0,0.0,0.0,0.0,0.0,0.0,0.0,0.0,0.0,0.0,0.0,0.0,0.0,0.0,0.0,0.0,0.0,0.0,0.0,0.0,0.0,0.0,0.0,0.0,0.0,0.0,0.0,0.0,0.0,0.3104,0.0,0.0,0.0,0.0,0.0,0.0,0.0,0.0,0.0,0.0,0.0,0.0,0.0,0.0,0.0,0.0,0.0,0.0,0.0,0.0,0.0,0.0,0.0,0.0,0.0,0.0,0.0,0.0,0.0,0.0,0.0,0.0,0.0,0.0,0.0,0.0,0.0,0.0,0.0,0.0,0.0,0.0,0.0,0.0,0.0,0.0,0.0,0.0,0.0,0.0,0.0,0.0,0.0,0.0,0.0,0.0,0.0,0.0,0.0,0.0,0.0,0.0,0.0,0.0,0.0,0.0,0.0,0.0,0.0,0.0,0.0,0.0,0.0,0.0,0.0,0.0,0.0,0.0,0.0,0.0,0.0,0.0,0.0,0.0,0.0,0.0,0.0,0.0,0.0,0.0,0.0,0.0,0.0,0.0,0.0,0.0,0.0,0.0,0.0,0.0,0.0,0.0,0.0,0.0,0.0,0.0,0.0,0.0,0.0,0.0,0.453,0.4504,0.418,0.3985,0.3915,0.0,0.0,0.0,0.0,0.0,0.0,0.0,0.0,0.0,0.0,0.0,0.0,0.0,0.0,0.0,0.0,0.0,0.0,0.0,0.0,0.0,0.0,0.0,0.0,0.0,0.0,0.0,0.0,0.0,0.0,0.0,0.0,0.0,0.0,0.0,0.0,0.0,0.0,0.0,0.0,0.0,0.0,0.0,0.0,0.0,0.0,0.0,0.0,0.0,0.0,0.0,0.0,0.0,0.0,0.0,0.0,0.0,0.0,0.0,0.0,0.0,0.0,0.0,0.0,0.0,0.0,0.0,0.0,0.0,0.0,0.0,0.0,0.0,0.0,0.0,0.0,0.0,0.0,0.0,0.0,0.0,0.0,0.0,0.0,0.0,0.0,0.0,0.0,0.0,0.0,0.0,0.0,0.0,0.0,0.0,0.0,0.0,0.0,0.0,0.0,0.0,0.0,0.0,0.0,0.0,0.0,0.0,0.0,0.0,0.0,0.0,0.0,0.4949,0.4698,0.4574,0.0,0.0,0.0,0.0,0.0,0.0,0.0,0.0,0.0,0.0,0.0,0.0,0.0,0.0,0.0,0.0,0.0,0.0,0.0,0.0,0.0,0.0,0.0,0.0,0.0,0.0,0.0,0.0,0.0,0.0,0.0,0.0,0.0,0.0,0.0,0.0,0.0,0.0,0.0,0.0,0.0,0.0,0.0,0.0,0.0,0.0,0.0,0.0,0.0,0.0,0.0,0.0,0.0,0.0,0.0,0.0,0.0,0.0,0.0,0.0,0.0,0.0,0.0,0.0,0.0,0.0,0.0,0.0,0.0,0.0,0.0,0.0,0.0,0.0,0.0,0.0,0.0,0.0,0.0,0.0,0.0,0.0,0.0,0.0,0.0,0.0,0.0,0.0,0.0,0.0,0.0,0.0,0.0,0.0,0.0,0.0,0.0,0.0,0.0,0.0,0.0,0.0,0.0,0.0,0.0,0.0,0.0,0.0,0.0,0.0,0.5308,0.5308,0.5262,0.0,0.4618,0.0,0.0,0.0,0.0,0.0,0.0,0.0,0.0,0.0,0.0,0.0,0.0,0.0,0.0,0.0,0.0,0.0,0.0,0.0,0.0,0.0,0.0,0.0,0.0,0.0,0.0,0.0,0.0,0.0,0.0,0.0,0.0,0.0,0.0,0.0,0.0,0.0,0.0,0.0,0.0,0.0,0.0,0.0,0.0,0.0,0.0,0.0,0.0,0.0,0.0,0.0,0.0,0.0,0.0,0.0,0.0,0.0,0.0,0.0,0.0,0.0,0.0,0.0,0.0,0.0,0.0,0.0,0.0,0.0,0.0,0.0,0.0,0.0,0.0,0.0,0.0,0.0,0.0,0.0,0.0,0.0,0.0,0.0,0.0,0.0,0.0,0.0,0.0,0.0,0.0,0.0,0.0,0.0,0.0,0.0,0.0,0.0,0.0,0.0,0.0,0.0,0.0,0.0,0.0,0.0,0.0,0.0,0.0,0.0,0.0,0.0,0.631,0.5995,0.5538,0.0,0.0,0.0,0.0,0.0,0.0,0.0,0.0,0.0,0.0,0.0,0.0,0.0,0.0,0.0,0.0,0.0,0.0,0.0,0.0,0.0,0.0,0.0,0.0,0.0,0.0,0.0,0.0,0.0,0.0,0.0,0.0,0.0,0.0,0.0,0.0,0.0,0.0,0.0,0.0,0.0,0.0,0.0,0.0,0.0,0.0,0.0,0.0,0.0,0.0,0.0,0.0,0.0,0.0,0.0,0.0,0.0,0.0,0.0,0.0,0.0,0.0,0.0,0.0,0.0,0.0,0.0,0.0,0.0,0.0,0.0,0.0,0.0,0.0,0.0,0.0,0.0,0.0,0.0,0.0,0.0,0.0,0.0,0.0,0.0,0.0,0.0,0.0,0.0,0.0,0.0,0.0,0.0,0.0,0.0,0.0,0.0,0.0,0.0,0.0,0.0,0.0,0.0,0.0,0.0,0.0,0.0,0.0,0.0,0.0,0.6993,0.0,0.698,0.662,0.6107,0.5423,0.0,0.0,0.0,0.0,0.0,0.0,0.0,0.0,0.0,0.0,0.0,0.0,0.0,0.0,0.0,0.0,0.0,0.0,0.0,0.0,0.0,0.0,0.0,0.0,0.0,0.0,0.0,0.0,0.0,0.0,0.0,0.0,0.0,0.0,0.0,0.0,0.0,0.0,0.0,0.0,0.0,0.0,0.0,0.0,0.0,0.0,0.0,0.0,0.0,0.0,0.0,0.0,0.0,0.0,0.0,0.0,0.0,0.0,0.0,0.0,0.0,0.0,0.0,0.0,0.0,0.0,0.0,0.0,0.0,0.0,0.0,0.0,0.0,0.0,0.0,0.0,0.0,0.0,0.0,0.0,0.0,0.0,0.0,0.0,0.0,0.0,0.0,0.0,0.0,0.0,0.0,0.0,0.0,0.0,0.0,0.0,0.0,0.0,0.0,0.0,0.0,0.0,0.0,0.0,0.0,0.0,0.0,0.0,0.0,0.6993,0.6993,0.6993,0.6952,0.6713,0.0,0.0,0.0,0.0,0.0,0.0,0.0,0.0,0.0,0.0,0.0,0.0,0.0,0.0,0.0,0.0,0.0,0.0,0.0,0.0,0.0,0.0,0.0,0.0,0.0,0.0,0.0,0.0,0.0,0.0,0.0,0.0,0.0,0.0,0.0,0.0,0.0,0.0,0.0,0.0,0.0,0.0,0.0,0.0,0.0,0.0,0.0,0.0,0.0,0.0,0.0,0.0,0.0,0.0,0.0,0.0,0.0,0.0,0.0,0.0,0.0,0.0,0.0,0.0,0.0,0.0,0.0,0.0,0.0,0.0,0.0,0.0,0.0,0.0,0.0,0.0,0.0,0.0,0.0,0.0,0.0,0.0,0.0,0.0,0.0,0.0,0.0,0.0,0.0,0.0,0.0,0.0,0.0,0.0,0.0,0.0,0.0,0.0,0.0,0.0,0.0,0.0,0.0,0.0,0.0,0.0,0.0,0.0,0.0,0.6993,0.6993,0.6993,0.6986,0.6687,0.6404,0.0,0.0,0.0,0.0,0.0,0.0,0.0,0.0,0.0,0.0,0.0,0.0,0.0,0.0,0.0,0.0,0.0,0.0,0.0,0.0,0.0,0.0,0.0,0.0,0.0,0.0,0.0,0.0,0.0,0.0,0.0,0.0,0.0,0.0,0.0,0.0,0.0,0.0,0.0,0.0,0.0,0.0,0.0,0.0,0.0,0.0,0.0,0.0,0.0,0.0,0.0,0.0,0.0,0.0,0.0,0.0,0.0,0.0,0.0,0.0,0.0,0.0,0.0,0.0,0.0,0.0,0.0,0.0,0.0,0.0,0.0,0.0,0.0,0.0,0.0,0.0,0.0,0.0,0.0,0.0,0.0,0.0,0.0,0.0,0.0,0.0,0.0,0.0,0.0,0.0,0.0,0.0,0.0,0.0,0.0,0.0,0.0,0.0,0.0,0.0,0.0,0.0,0.0,0.0,0.0,0.0,0.0,0.0,0.0,0.7544,0.0,0.7461,0.0,0.684,0.647,0.0,0.0,0.0,0.0,0.0,0.0,0.0,0.0,0.0,0.0,0.0,0.0,0.0,0.0,0.0,0.0,0.0,0.0,0.0,0.0,0.0,0.0,0.0,0.0,0.0,0.0,0.0,0.0,0.0,0.0,0.0,0.0,0.0,0.0,0.0,0.0,0.0,0.0,0.0,0.0,0.0,0.0,0.0,0.0,0.0,0.0,0.0,0.0,0.0,0.0,0.0,0.0,0.0,0.0,0.0,0.0,0.0,0.0,0.0,0.0,0.0,0.0,0.0,0.0,0.0,0.0,0.0,0.0,0.0,0.0,0.0,0.0,0.0,0.0,0.0,0.0,0.0,0.0,0.0,0.0,0.0,0.0,0.0,0.0,0.0,0.0,0.0,0.0,0.0,0.0,0.0,0.0,0.0,0.0,0.0,0.0,0.0,0.0,0.0,0.0,0.0,0.0,0.0,0.0,0.0,0.0,0.0,0.0,0.0,0.8675,0.8655,0.8398,0.7904,0.7544,0.7012,0.0,0.0,0.0,0.0,0.0,0.0,0.0,0.0,0.0,0.0,0.0,0.0,0.0,0.0,0.0,0.0,0.0,0.0,0.0,0.0,0.0,0.0,0.0,0.0,0.0,0.0,0.0,0.0,0.0,0.0,0.0,0.0,0.0,0.0,0.0,0.0,0.0,0.0,0.0,0.0,0.0,0.0,0.0,0.0,0.0,0.0,0.0,0.0,0.0,0.0,0.0,0.0,0.0,0.0,0.0,0.0,0.0,0.0,0.0,0.0,0.0,0.0,0.0,0.0,0.0,0.0,0.0,0.0,0.0,0.0,0.0,0.0,0.0,0.0,0.0,0.0,0.0,0.0,0.0,0.0,0.0,0.0,0.0,0.0,0.0,0.0,0.0,0.0,0.0,0.0,0.0,0.0,0.0,0.0,0.0,0.0,0.0,0.0,0.0,0.0,0.0,0.0,0.0,0.0,0.0,0.0,0.0,0.0,0.0,0.8245,0.8523,0.8622,0.8435,0.7853,0.7284,0.0,0.0,0.0,0.0,0.0,0.0,0.0,0.0,0.0,0.0,0.0,0.0,0.0,0.0,0.0,0.0,0.0,0.0,0.0,0.0,0.0,0.0,0.0,0.0,0.0,0.0,0.0,0.0,0.0,0.0,0.0,0.0,0.0,0.0,0.0,0.0,0.0,0.0,0.0,0.0,0.0,0.0,0.0,0.0,0.0,0.0,0.0,0.0,0.0,0.0,0.0,0.0,0.0,0.0,0.0,0.0,0.0,0.0,0.0,0.0,0.0,0.0,0.0,0.0,0.0,0.0,0.0,0.0,0.0,0.0,0.0,0.0,0.0,0.0,0.0,0.0,0.0,0.0,0.0,0.0,0.0,0.0,0.0,0.0,0.0,0.0,0.0,0.0,0.0,0.0,0.0,0.0,0.0,0.0,0.0,0.0,0.0,0.0,0.0,0.0,0.0,0.0,0.0,0.0,0.0,0.0,0.0,0.0,0.0,0.8639,0.9057,0.9129,0.8726,0.8194,0.7616,0.6974,0.0,0.0,0.0,0.0,0.0,0.0,0.0,0.0,0.0,0.0,0.0,0.0,0.0,0.0,0.0,0.0,0.0,0.0,0.0,0.0,0.0,0.0,0.0,0.0,0.0,0.0,0.0,0.0,0.0,0.0,0.0,0.0,0.0,0.0,0.0,0.0,0.0,0.0,0.0,0.0,0.0,0.0,0.0,0.0,0.0,0.0,0.0,0.0,0.0,0.0,0.0,0.0,0.0,0.0,0.0,0.0,0.0,0.0,0.0,0.0,0.0,0.0,0.0,0.0,0.0,0.0,0.0,0.0,0.0,0.0,0.0,0.0,0.0,0.0,0.0,0.0,0.0,0.0,0.0,0.0,0.0,0.0,0.0,0.0,0.0,0.0,0.0,0.0,0.0,0.0,0.0,0.0,0.0,0.0,0.0,0.0,0.0,0.0,0.0,0.0,0.0,0.0,0.0,0.0,0.0,0.0,0.0,0.0,0.9563,1.0029,0.9811,0.8919,0.8594,0.798,0.0,0.0,0.0,0.0,0.0,0.0,0.0,0.0,0.0,0.0,0.0,0.0,0.0,0.0,0.0,0.0,0.0,0.0,0.0,0.0,0.0,0.0,0.0,0.0,0.0,0.0,0.0,0.0,0.0,0.0,0.0,0.0,0.0,0.0,0.0,0.0,0.0,0.0,0.0,0.0,0.0,0.0,0.0,0.0,0.0,0.0,0.0,0.0,0.0,0.0,0.0,0.0,0.0,0.0,0.0,0.0,0.0,0.0,0.0,0.0,0.0,0.0,0.0,0.0,0.0,0.0,0.0,0.0,0.0,0.0,0.0,0.0,0.0,0.0,0.0,0.0,0.0,0.0,0.0,0.0,0.0,0.0,0.0,0.0,0.0,0.0,0.0,0.0,0.0,0.0,0.0,0.0,0.0,0.0,0.0,0.0,0.0,0.0,0.0,0.0,0.0,0.0,0.0,0.0,0.0,0.0,0.0,0.0,0.0,0.9192,0.9562,0.9827,0.9887,0.9234,0.8719,0.0,0.0,0.0,0.0,0.0,0.0,0.0,0.0,0.0,0.0,0.0,0.0,0.0,0.0,0.0,0.0,0.0,0.0,0.0,0.0,0.0,0.0,0.0,0.0,0.0,0.0,0.0,0.0,0.0,0.0,0.0,0.0,0.0,0.0,0.0,0.0,0.0,0.0,0.0,0.0,0.0,0.0,0.0,0.0,0.0,0.0,0.0,0.0,0.0,0.0,0.0,0.0,0.0,0.0,0.0,0.0,0.0,0.0,0.0,0.0,0.0,0.0,0.0,0.0,0.0,0.0,0.0,0.0,0.0,0.0,0.0,0.0,0.0,0.0,0.0,0.0,0.0,0.0,0.0,0.0,0.0,0.0,0.0,0.0,0.0,0.0,0.0,0.0,0.0,0.0,0.0,0.0,0.0,0.0,0.0,0.0,0.0,0.0,0.0,0.0,0.0,0.0,0.0,0.0,0.0,0.0,0.0,0.0,1.0015,0.9812,0.9666,0.9812,1.0243,0.9444,0.9008,0.0,0.0,0.0,0.0,0.0,0.0,0.0,0.0,0.0,0.0,0.0,0.0,0.0,0.0,0.0,0.0,0.0,0.0,0.0,0.0,0.0,0.0,0.0,0.0,0.0,0.0,0.0,0.0,0.0,0.0,0.0,0.0,0.0,0.0,0.0,0.0,0.0,0.0,0.0,0.0,0.0,0.0,0.0,0.0,0.0,0.0,0.0,0.0,0.0,0.0,0.0,0.0,0.0,0.0,0.0,0.0,0.0,0.0,0.0,0.0,0.0,0.0,0.0,0.0,0.0,0.0,0.0,0.0,0.0,0.0,0.0,0.0,0.0,0.0,0.0,0.0,0.0,0.0,0.0,0.0,0.0,0.0,0.0,0.0,0.0,0.0,0.0,0.0,0.0,0.0,0.0,0.0,0.0,0.0,0.0,0.0,0.0,0.0,0.0,0.0,0.0,0.0,0.0,0.0,0.0,0.0,0.0,0.0,1.0876,1.0831,1.0029,0.9753,1.0099,0.9394,0.9023,0.0,0.0,0.0,0.0,0.0,0.0,0.0,0.0,0.0,0.0,0.0,0.0,0.0,0.0,0.0,0.0,0.0,0.0,0.0,0.0,0.0,0.0,0.0,0.0,0.0,0.0,0.0,0.0,0.0,0.0,0.0,0.0,0.0,0.0,0.0,0.0,0.0,0.0,0.0,0.0,0.0,0.0,0.0,0.0,0.0,0.0,0.0,0.0,0.0,0.0,0.0,0.0,0.0,0.0,0.0,0.0,0.0,0.0,0.0,0.0,0.0,0.0,0.0,0.0,0.0,0.0,0.0,0.0,0.0,0.0,0.0,0.0,0.0,0.0,0.0,0.0,0.0,0.0,0.0,0.0,0.0,0.0,0.0,0.0,0.0,0.0,0.0,0.0,0.0,0.0,0.0,0.0,0.0,0.0,0.0,0.0,0.0,0.0,0.0,0.0,0.0,0.0,0.0,0.0,0.0,0.0,0.0,0.0,1.0754,1.0436,0.9841,0.957,0.9638,0.9223,0.9143,0.0,0.0,0.0,0.0,0.0,0.0,0.0,0.0,0.0,0.0,0.0,0.0,0.0,0.0,0.0,0.0,0.0,0.0,0.0,0.0,0.0,0.0,0.0,0.0,0.0,0.0,0.0,0.0,0.0,0.0,0.0,0.0,0.0,0.0,0.0,0.0,0.0,0.0,0.0,0.0,0.0,0.0,0.0,0.0,0.0,0.0,0.0,0.0,1.144,0.0,0.0,0.0,0.0,0.0,0.0,0.0,0.0,0.0,0.0,0.0,0.0,0.0,0.0,0.0,0.0,0.0,0.0,0.0,0.0,0.0,0.0,0.0,0.0,0.0,0.0,0.0,0.0,0.0,0.0,0.0,0.0,0.0,0.0,0.0,0.0,0.0,0.0,0.0,0.0,0.0,0.0,0.0,0.0,0.0,0.0,0.0,0.0,0.0,0.0,0.0,0.0,0.0,0.0,0.0,0.0,0.0,0.0,0.0,1.112,1.0896,0.9959,0.9537,0.9719,0.9632,0.9602,0.0,0.0,0.0,0.0,0.0,0.0,0.0,0.0,0.0,0.0,0.0,0.0,0.0,0.0,0.0,0.0,0.0,0.0,0.0,0.0,0.0,0.0,0.0,0.0,0.0,0.0,0.0,0.0,0.0,0.0,0.0,0.0,0.0,0.0,0.0,0.0,0.0,0.0,0.0,0.0,0.0,0.0,0.0,0.0,0.0,0.0,0.0,0.0,0.0,0.0,0.0,0.0,0.0,0.0,0.0,0.0,0.0,0.0,0.0,0.0,0.0,0.0,0.0,0.0,0.0,0.0,0.0,0.0,0.0,0.0,0.0,0.0,0.0,0.0,0.0,0.0,0.0,0.0,0.0,0.0,0.0,0.0,0.0,0.0,0.0,0.0,0.0,0.0,0.0,0.0,0.0,0.0,0.0,0.0,0.0,0.0,0.0,0.0,0.0,0.0,0.0,0.0,0.0,0.0,0.0,0.0,0.0,1.2153,1.1603,1.155,1.0208,0.9638,0.9971,1.0317,1.0246,0.0,0.0,0.0,0.0,0.0,0.0,0.0,0.0,0.0,0.0,0.0,0.0,0.0,0.0,0.0,0.0,0.0,0.0,0.0,0.0,0.0,0.0,0.0,0.0,0.0,0.0,0.0,0.0,0.0,0.0,0.0,0.0,0.0,0.0,0.0,0.0,0.0,0.0,0.0,1.1433,1.1833,0.0,0.0,0.0,0.0,0.0,0.0,0.0,0.0,1.2935,0.0,0.0,0.0,0.0,0.0,0.0,0.0,0.0,0.0,0.0,0.0,0.0,0.0,0.0,0.0,0.0,0.0,0.0,0.0,0.0,0.0,0.0,0.0,0.0,0.0,0.0,0.0,0.0,0.0,0.0,0.0,0.0,0.0,0.0,0.0,0.0,0.0,0.0,0.0,0.0,0.0,0.0,0.0,0.0,0.0,0.0,0.0,0.0,0.0,0.0,0.0,0.0,0.0,0.0,0.0,0.0,1.3181,1.2153,1.1603,1.159,1.0442,0.9852,0.9938,1.0877,1.0979,1.0155,0.0,0.0,0.0,0.0,0.0,0.0,0.0,0.0,0.0,0.0,0.0,0.0,0.0,0.0,0.0,0.0,0.0,0.0,0.0,0.0,0.0,0.0,0.0,0.0,0.0,0.0,0.0,0.0,0.0,0.0,0.0,0.0,0.0,0.0,0.0,0.0,0.0,0.0,0.0,1.338,1.3537,0.0,0.0,0.0,0.0,0.0,0.0,0.0,0.0,1.3102,0.0,0.0,0.0,0.0,0.0,0.0,0.0,0.0,0.0,0.0,0.0,0.0,0.0,0.0,0.0,0.0,0.0,0.0,0.0,0.0,0.0,0.0,0.0,0.0,0.0,0.0,0.0,0.0,0.0,0.0,0.0,0.0,0.0,0.0,0.0,0.0,0.0,0.0,0.0,0.0,0.0,0.0,0.0,0.0,0.0,0.0,0.0,0.0,0.0,0.0,0.0,0.0,0.0,0.0,0.0,1.316,1.2429,1.1904,1.1575,1.0772,1.0181,0.9943,1.1012,1.1238,0.0,0.0,0.0,0.0,0.0,0.0,0.0,0.0,0.0,0.0,0.0,0.0,0.0,0.0,0.0,0.0,0.0,0.0,0.0,0.0,0.0,0.0,0.0,0.0,0.0,0.0,0.0,0.0,0.0,0.0,0.0,0.0,0.0,0.0,0.0,0.0,0.0,0.0,0.0,0.0,1.3939,1.3984,1.3715,0.0,0.0,0.0,0.0,0.0,0.0,1.4308,1.4241,0.0,0.0,0.0,0.0,0.0,0.0,0.0,0.0,0.0,0.0,0.0,0.0,0.0,0.0,0.0,0.0,0.0,0.0,0.0,0.0,0.0,0.0,0.0,0.0,0.0,0.0,0.0,0.0,0.0,0.0,0.0,0.0,0.0,0.0,0.0,0.0,0.0,0.0,0.0,0.0,0.0,0.0,0.0,0.0,0.0,0.0,0.0,0.0,0.0,0.0,0.0,0.0,0.0,0.0,0.0,1.3479,1.2862,1.232,1.1875,1.123,1.062,1.0119,1.1173,1.1475,0.0,0.0,0.0,0.0,0.0,0.0,0.0,0.0,0.0,0.0,0.0,0.0,0.0,0.0,0.0,0.0,0.0,0.0,0.0,0.0,0.0,0.0,0.0,0.0,0.0,0.0,0.0,0.0,0.0,0.0,0.0,0.0,0.0,0.0,0.0,0.0,0.0,0.0,0.0,0.0,0.0,1.4387,1.4292,1.4349,0.0,0.0,0.0,0.0,1.5555,1.5336,0.0,0.0,0.0,0.0,0.0,0.0,0.0,0.0,0.0,0.0,0.0,0.0,0.0,0.0,0.0,0.0,0.0,0.0,0.0,0.0,0.0,0.0,0.0,0.0,0.0,0.0,0.0,0.0,0.0,0.0,0.0,0.0,0.0,0.0,0.0,0.0,0.0,0.0,0.0,0.0,0.0,0.0,0.0,0.0,0.0,0.0,0.0,0.0,0.0,0.0,0.0,0.0,0.0,0.0,0.0,0.0,1.4463,1.3474,1.2887,1.2806,1.1951,1.1211,1.0657,1.1711,1.2052,0.0,0.0,0.0,0.0,0.0,0.0,0.0,0.0,0.0,0.0,0.0,0.0,0.0,0.0,0.0,0.0,0.0,0.0,0.0,0.0,0.0,0.0,0.0,0.0,0.0,0.0,0.0,0.0,0.0,0.0,0.0,0.0,0.0,0.0,0.0,0.0,0.0,0.0,0.0,0.0,0.0,1.5329,1.4878,1.5223,1.5374,0.0,0.0,0.0,1.568,1.563,0.0,0.0,0.0,0.0,0.0,0.0,0.0,0.0,0.0,0.0,0.0,0.0,0.0,0.0,0.0,0.0,0.0,0.0,0.0,0.0,0.0,0.0,0.0,0.0,0.0,0.0,0.0,0.0,0.0,0.0,0.0,0.0,0.0,0.0,0.0,0.0,0.0,0.0,0.0,0.0,0.0,0.0,0.0,0.0,0.0,0.0,0.0,0.0,0.0,0.0,0.0,0.0,0.0,0.0,0.0,0.0,1.5118,1.4662,1.4078,1.3424,1.3002,1.2323,1.1429,1.2259,1.2305,0.0,0.0,0.0,0.0,0.0,0.0,0.0,0.0,0.0,0.0,0.0,0.0,0.0,0.0,0.0,0.0,0.0,0.0,0.0,0.0,0.0,0.0,0.0,0.0,0.0,0.0,0.0,0.0,0.0,0.0,0.0,0.0,0.0,0.0,0.0,0.0,0.0,0.0,0.0,0.0,0.0,0.0,1.5387,1.5575,0.0,0.0,0.0,1.5806,1.6107,0.0,0.0,0.0,0.0,0.0,0.0,0.0,0.0,0.0,0.0,0.0,0.0,0.0,0.0,0.0,0.0,0.0,0.0,0.0,0.0,0.0,0.0,0.0,0.0,0.0,0.0,0.0,0.0,0.0,0.0,0.0,0.0,0.0,0.0,0.0,0.0,0.0,0.0,0.0,0.0,0.0,0.0,0.0,0.0,0.0,0.0,0.0,0.0,0.0,0.0,0.0,0.0,0.0,0.0,0.0,0.0,0.0,1.5854,1.5716,1.5129,1.4105,1.3959,1.3287,1.2045,1.2634,0.0,0.0,0.0,0.0,0.0,0.0,0.0,0.0,0.0,0.0,0.0,0.0,0.0,0.0,0.0,0.0,0.0,0.0,0.0,0.0,0.0,0.0,0.0,0.0,0.0,0.0,0.0,0.0,0.0,0.0,0.0,0.0,0.0,0.0,0.0,0.0,0.0,0.0,0.0,0.0,0.0,0.0,1.6087,1.6087,1.623,1.6453,0.0,0.0,1.6432,1.6823,1.6795,1.6689,0.0,0.0,0.0,0.0,0.0,0.0,0.0,0.0,0.0,0.0,0.0,0.0,0.0,0.0,0.0,0.0,0.0,0.0,0.0,0.0,0.0,0.0,0.0,0.0,0.0,0.0,0.0,0.0,0.0,0.0,0.0,0.0,0.0,0.0,0.0,0.0,0.0,0.0,0.0,0.0,0.0,0.0,0.0,0.0,0.0,0.0,0.0,0.0,0.0,0.0,0.0,0.0,0.0,0.0,0.0,1.6787,1.6324,1.5722,1.503,1.4634,1.3729,1.2255,1.2714,1.2311,0.0,0.0,0.0,0.0,0.0,0.0,0.0,0.0,0.0,0.0,0.0,0.0,0.0,0.0,0.0,0.0,0.0,0.0,0.0,0.0,0.0,0.0,0.0,0.0,0.0,0.0,0.0,0.0,0.0,0.0,0.0,0.0,0.0,0.0,0.0,0.0,0.0,0.0,0.0,0.0,0.0,1.7197,1.7197,1.7632,1.7952,0.0,0.0,1.7966,1.7973,1.7565,1.725,1.7229,0.0,0.0,0.0,0.0,0.0,0.0,0.0,0.0,0.0,0.0,0.0,0.0,0.0,0.0,0.0,0.0,0.0,0.0,0.0,0.0,0.0,0.0,0.0,0.0,0.0,0.0,0.0,0.0,0.0,0.0,0.0,0.0,0.0,0.0,0.0,0.0,0.0,0.0,0.0,0.0,0.0,0.0,0.0,0.0,0.0,0.0,0.0,0.0,0.0,0.0,0.0,0.0,0.0,1.7187,1.739,1.7202,1.6584,1.5551,1.4994,1.4212,1.321,1.3516,1.2774,0.0,0.0,0.0,0.0,0.0,0.0,0.0,0.0,0.0,0.0,0.0,0.0,0.0,0.0,0.0,0.0,0.0,0.0,0.0,0.0,0.0,0.0,0.0,0.0,0.0,0.0,0.0,0.0,1.2278,1.2526,1.2864,0.0,0.0,0.0,0.0,0.0,0.0,0.0,0.0,0.0,0.0,1.7787,1.7807,1.7953,0.0,0.0,1.8092,1.8092,1.8092,1.7913,1.7787,1.7787,1.7626,0.0,0.0,0.0,0.0,0.0,0.0,0.0,0.0,0.0,0.0,0.0,0.0,0.0,0.0,0.0,0.0,0.0,0.0,0.0,0.0,0.0,0.0,0.0,0.0,0.0,0.0,0.0,0.0,0.0,0.0,0.0,0.0,0.0,0.0,0.0,0.0,0.0,0.0,0.0,0.0,0.0,0.0,0.0,0.0,0.0,0.0,0.0,0.0,0.0,0.0,0.0,0.0,1.7893,1.7713,1.7699,1.7086,1.5843,1.514,1.4428,1.3697,1.3787,1.2962,0.0,0.0,0.0,0.0,0.0,0.0,0.0,0.0,0.0,0.0,0.0,0.0,0.0,0.0,0.0,0.0,0.0,0.0,0.0,0.0,0.0,0.0,0.0,0.0,0.0,0.0,0.0,0.0,1.2757,1.3084,1.3621,0.0,0.0,0.0,0.0,0.0,0.0,0.0,0.0,0.0,0.0,1.8341,1.8341,1.8477,1.8588,1.8574,1.8588,1.8574,1.8574,1.8627,1.8641,1.8641,0.0,0.0,0.0,0.0,0.0,0.0,0.0,0.0,0.0,0.0,0.0,0.0,0.0,0.0,0.0,0.0,0.0,0.0,0.0,0.0,0.0,0.0,0.0,0.0,0.0,0.0,0.0,0.0,0.0,0.0,0.0,0.0,0.0,0.0,0.0,0.0,0.0,0.0,0.0,0.0,0.0,0.0,0.0,0.0,0.0,0.0,0.0,0.0,0.0,0.0,0.0,0.0,0.0,0.0,1.7713,1.7699,1.7086,1.5829,1.514,1.4332,1.338,1.3339,1.2669,1.1269,0.0,0.0,0.0,0.0,0.0,0.0,0.0,0.0,0.0,0.0,0.0,0.0,0.0,0.0,0.0,0.0,0.0,0.0,0.0,0.0,0.0,0.0,0.0,0.0,0.0,0.0,1.3178,1.3589,1.4099,0.0,0.0,0.0,0.0,0.0,0.0,0.0,0.0,0.0,0.0,1.8554,1.8893,1.8893,1.9317,1.9636,1.9639,1.9654,1.9639,1.9636,1.9748,1.9857,0.0,0.0,0.0,0.0,0.0,0.0,0.0,0.0,0.0,0.0,0.0,0.0,0.0,0.0,0.0,0.0,0.0,0.0,0.0,0.0,0.0,0.0,0.0,0.0,0.0,0.0,0.0,0.0,1.7529,0.0,0.0,0.0,0.0,0.0,0.0,0.0,0.0,0.0,0.0,0.0,1.9233,1.9688,0.0,0.0,0.0,0.0,0.0,0.0,0.0,0.0,0.0,0.0,0.0,0.0,1.8851,1.8206,1.786,1.7101,1.5829,1.4707,1.3968,1.3627,1.3642,1.3402,1.2883,0.0,0.0,0.0,0.0,0.0,0.0,0.0,0.0,0.0,0.0,0.0,0.0,0.0,0.0,0.0,0.0,0.0,0.0,0.0,0.0,0.0,0.0,0.0,0.0,0.0,1.3323,0.0,0.0,0.0,0.0,0.0,0.0,0.0,0.0,0.0,0.0,0.0,1.9305,1.9305,1.9371,1.9442,1.9424,1.9566,1.9723,0.0,0.0,0.0,0.0,0.0,0.0,0.0,0.0,0.0,0.0,0.0,0.0,0.0,0.0,2.423,2.2585,2.2556,2.2776,2.2776,0.0,0.0,0.0,0.0,0.0,0.0,0.0,0.0,0.0,0.0,0.0,0.0,0.0,0.0,0.0,0.0,1.7519,0.0,0.0,0.0,0.0,0.0,0.0,0.0,0.0,1.9751,2.0099,2.0366,2.0815,2.1007,0.0,2.1263,2.0863,0.0,0.0,0.0,0.0,0.0,0.0,0.0,0.0,1.9386,1.8749,1.8061,1.719,1.6114,1.4842,1.4036,1.3812,1.3682,1.3699,1.3897,1.3188,1.2487,0.0,0.0,0.0,0.0,0.0,0.0,0.0,0.0,0.0,0.0,0.0,0.0,0.0,0.0,0.0,0.0,0.0,0.0,0.0,0.0,0.0,0.0,0.0,1.354,0.0,0.0,0.0,0.0,0.0,0.0,0.0,0.0,0.0,2.0122,2.0116,2.025,2.0503,2.0038,1.9783,2.0004,0.0,0.0,0.0,0.0,0.0,0.0,0.0,2.1041,2.1924,2.1874,2.1799,2.2014,2.3281,2.4373,2.456,0.0,0.0,2.4519,2.4438,2.4642,2.4642,2.5001,2.5212,2.4993,2.5493,2.575,0.0,0.0,0.0,0.0,0.0,0.0,0.0,0.0,1.9955,1.9879,0.0,1.9059,0.0,0.0,0.0,0.0,0.0,0.0,0.0,0.0,2.1007,2.1023,2.1039,2.1071,2.1055,0.0,2.1762,2.2281,2.2551,2.1535,0.0,0.0,0.0,0.0,0.0,0.0,2.0039,1.9386,1.8305,1.7385,1.6682,1.5441,1.4483,1.3872,1.3477,1.3606,1.4284,1.4046,1.3404,1.2315,1.236,0.0,0.0,0.0,0.0,0.0,0.0,0.0,0.0,0.0,0.0,0.0,0.0,0.0,0.0,0.0,0.0,0.0,0.0,0.0,0.0,1.327,0.0,0.0,0.0,0.0,0.0,0.0,0.0,0.0,0.0,0.0,2.1804,2.1181,2.0987,2.1585,0.0,0.0,0.0,0.0,1.9723,1.9723,2.0243,2.0658,2.0733,2.1769,2.2613,2.2703,0.0,0.0,2.2897,2.4343,2.5405,2.4866,2.6375,2.7415,2.6789,2.6576,2.6557,2.6557,2.6606,2.6838,2.7404,2.7868,2.8116,2.1196,0.0,0.0,0.0,0.0,2.0808,2.1329,2.1865,2.1391,2.1154,2.11,2.0419,0.0,0.0,0.0,0.0,0.0,0.0,2.1666,2.143,2.1414,2.1598,2.1932,2.193,2.1947,2.1947,2.2147,2.2306,2.2408,2.2105,2.2111,2.241,0.0,0.0,0.0,0.0,2.078,1.9829,1.875,1.77,1.6696,1.5456,1.4721,1.4526,1.4391,1.4494,1.4861,1.4528,1.4049,1.3441,1.3127,0.0,0.0,0.0,0.0,0.0,0.0,0.0,0.0,0.0,0.0,0.0,0.0,0.0,0.0,0.0,0.0,0.0,0.0,0.0,1.4912,1.49,1.55,0.0,0.0,0.0,0.0,0.0,0.0,0.0,0.0,0.0,2.3011,2.2517,2.2009,0.0,0.0,2.0318,2.0019,1.9809,1.9723,1.9723,0.0,0.0,0.0,2.1335,2.1739,2.3137,2.349,2.3849,2.4642,2.5226,2.598,2.7086,2.7823,2.8306,2.8521,2.7883,2.7375,2.734,2.7671,2.7979,2.8209,2.8701,2.8894,2.2619,2.1932,2.1427,2.1354,2.163,2.1947,2.2179,2.2298,2.2164,2.1949,2.1684,2.1477,2.17,2.2235,2.2062,0.0,0.0,0.0,2.2072,2.1868,2.1884,2.2017,2.2296,2.2313,2.2313,2.2313,2.2615,2.275,2.275,2.275,2.2953,2.3342,0.0,0.0,2.2279,2.1823,2.1219,2.0366,1.9075,1.7976,1.71,1.5591,1.4931,1.5185,1.4932,1.4999,1.5345,1.4968,1.4549,1.4149,1.3924,1.3709,0.0,0.0,0.0,0.0,0.0,0.0,0.0,0.0,0.0,0.0,0.0,1.2726,0.0,0.0,0.0,0.0,1.4399,1.505,1.5887,1.6165,0.0,0.0,0.0,0.0,0.0,0.0,0.0,2.355,2.352,2.3475,2.358,2.3077,2.2643,2.2458,2.1455,2.0647,2.0513,0.0,1.9723,1.9723,1.9914,2.0378,2.1186,2.141,2.1964,2.3355,2.3595,2.3834,2.4627,2.5008,2.5725,2.7,2.7758,2.8303,2.8942,2.8599,2.8304,2.8304,2.8591,2.8919,2.9157,2.9287,2.9172,2.355,2.3505,2.2338,2.2203,2.2763,2.2763,2.2388,2.1849,2.2448,2.2328,2.1769,2.2206,2.2828,2.3503,2.3108,0.0,0.0,2.2524,2.2364,2.2313,2.2313,2.2313,2.2313,2.2313,2.2313,2.2313,2.2987,2.3325,2.3291,2.3291,2.3308,2.3291,2.2649,2.2313,2.2282,2.1869,2.143,2.0975,1.9374,1.8223,1.7594,1.583,1.5184,1.5769,1.52,1.5184,1.5739,1.5358,1.4947,1.4598,1.4646,1.4552,1.4172,0.0,0.0,0.0,0.0,0.0,0.0,0.0,0.0,0.0,0.0,0.0,0.0,0.0,0.0,0.0,1.5391,0.0,1.654,1.7204,0.0,0.0,0.0,2.1542,2.2646,2.3819,2.4276,2.367,0.0,0.0,0.0,0.0,2.2912,2.346,2.1884,2.0897,2.147,2.0456,1.9723,1.9723,2.0198,2.0613,2.0778,2.1769,2.2808,2.346,2.3638,2.3747,2.3898,2.4415,2.5002,2.5887,2.6795,2.7786,2.8428,2.8971,2.938,2.9299,2.9335,2.9516,2.9938,2.9601,2.9105,2.3176,2.3565,2.3266,2.3236,2.337,2.3385,2.3047,2.2478,2.2628,2.2328,2.1724,2.2365,2.3434,2.4748,2.4878,2.4588,2.4047,2.3431,2.282,2.2313,2.2313,2.2313,2.2313,2.2313,2.2313,2.2313,2.2465,2.2581,2.2564,2.255,2.2581,2.2564,2.2381,2.2313,2.2296,2.2194,2.1766,2.0991,2.0081,1.8748,1.6966,1.6039,1.5649,1.5799,1.5649,1.5634,1.5784,1.5438,1.5208,1.5122,1.4956,1.4797,1.4714,1.4167,0.0,0.0,0.0,0.0,0.0,0.0,0.0,0.0,0.0,1.4783,1.3941,0.0,1.5198,0.0,1.5391,1.6617,1.8826,1.885,0.0,0.0,2.2172,2.2563,2.331,2.3655,2.3789,2.361,2.3744,2.3774,2.3625,2.3077,2.2748,2.2868,2.1635,2.0587,2.0228,1.9947,1.9723,1.9723,1.9872,2.0124,2.0692,2.1829,2.2903,2.3505,2.3943,2.4384,2.4885,2.5425,2.6187,2.7233,2.7712,2.8188,2.8741,2.9029,2.9084,2.9101,2.9171,2.9288,2.9432,2.9243,2.8844,2.2897,2.3206,2.349,2.3445,2.3191,2.3206,2.2838,2.2269,2.2254,2.1874,2.134,2.248,2.3829,2.5144,2.4892,2.4528,2.4109,2.3287,2.2699,2.2313,2.2313,2.2313,2.2313,2.2313,2.2313,2.2313,2.2313,2.2313,2.2313,2.2313,2.2194,2.1988,2.1988,2.1899,2.1736,2.1884,2.166,2.1007,1.9956,1.8668,1.719,1.6533,1.6204,1.6204,1.6204,1.6204,1.6219,1.6301,1.6174,1.5761,1.5835,1.5692,1.5268,1.4979,1.4815,0.0,0.0,0.0,0.0,0.0,0.0,0.0,0.0,0.0,0.0,0.0,1.5777,0.0,0.0,0.0,2.0154,2.0547,2.1252,2.2562,2.3191,2.367,2.4029,2.4291,2.4373,2.4088,2.4036,2.3834,2.3266,2.2637,2.2149,2.1849,2.0917,2.0228,2.0154,1.9899,1.9723,1.9723,1.9723,1.9914,2.0598,2.1745,2.2782,2.3412,2.4208,2.4894,2.5251,2.5552,2.6074,2.7028,2.7463,2.7847,2.8467,2.8829,2.8993,2.8956,2.8753,2.8715,2.9032,2.8755,2.8298,2.239,2.2515,2.3031,2.2942,2.247,2.2458,2.2119,2.1575,2.1575,2.1246,2.0801,2.2505,2.3845,2.4757,2.389,2.349,2.3424,2.2607,2.2209,2.2209,2.2282,2.2313,2.2313,2.2313,2.2313,2.2313,2.2313,2.2313,2.2313,2.2313,2.2092,2.1703,2.1643,2.143,2.1086,2.1322,2.126,2.091,1.9446,1.8416,1.7848,1.7159,1.6816,1.6831,1.6816,1.6784,1.6737,1.7313,1.7221,1.6381,1.6777,1.6645,1.5868,1.5743,1.5693,0.0,1.5198,0.0,0.0,0.0,0.0,0.0,0.0,0.0,0.0,1.6002,1.6633,1.7834,1.8783,1.9829,2.1025,2.2076,2.2733,2.2838,2.3804,2.447,2.45,2.5001,2.5136,2.4545,2.4448,2.4007,2.2882,2.2119,2.1455,2.0887,2.0198,1.9929,2.0378,2.0034,1.9723,1.9723,1.9747,2.008,2.0852,2.1827,2.2755,2.3464,2.4509,2.5281,2.5329,2.5406,2.5621,2.6222,2.6765,2.7226,2.783,2.8328,2.8636,2.8569,2.8094,2.7924,2.8516,2.8178,2.7689,2.0733,2.1239,2.1355,2.1341,2.1231,2.1114,2.1021,2.0902,2.0882,2.0808,2.0786,2.2033,2.2717,2.2895,2.2557,2.2408,2.2393,2.193,2.1718,2.1748,2.2137,2.2313,2.2313,2.2313,2.2313,2.2313,2.2313,2.2313,2.2313,2.2313,2.2268,2.2166,2.1794,2.1568,0.0,0.0,0.0,0.0,1.9277,1.8625,1.8508,1.7863,1.7519,1.7503,1.7519,0.0,1.6896,1.7103,1.6935,1.6335,1.6519,0.0,0.0,0.0,0.0,0.0,0.0,0.0,0.0,0.0,0.0,0.0,1.7476,1.7338,1.6484,1.7657,1.8965,2.0124,2.0454,2.104,2.2227,2.2551,2.2897,2.337,2.3655,2.3804,2.3804,2.3924,2.3924,2.3819,2.3789,2.352,2.2778,2.2134,2.144,2.0733,2.0109,1.9768,1.9887,1.9813,1.9723,1.9726,1.9965,2.056,2.1594,2.238,2.312,2.3936,2.5015,2.575,2.5854,2.6141,2.6401,2.6601,2.6706,2.6808,2.6976,2.7063,2.7232,2.7148,2.7046,2.7131,2.7841,2.7435,2.6911,1.9707,0.0,2.0658,2.0899,0.0,0.0,2.0882,2.1156,2.0498,2.0408,2.0752,2.1656,2.2045,2.2068,2.215,2.2004,2.1693,2.144,2.1323,2.1322,2.1749,2.1959,2.1957,2.1957,2.2075,2.2265,2.1871,2.1766,2.1945,2.1749,2.1539,2.129,2.107,2.0862,2.0665,2.0227,2.0,2.0,1.9454,1.9214,1.9166,1.8536,1.8192,1.8207,0.0,0.0,0.0,0.0,0.0,0.0,0.0,0.0,0.0,0.0,0.0,1.6074,1.5844,1.5806,1.6082,1.6371,1.6647,1.6936,1.7739,1.808,1.7806,1.8586,1.9731,2.1233,2.1404,2.1877,2.2999,2.3152,2.3251,2.3565,2.3595,2.3595,2.3595,2.3595,2.3595,2.3565,2.3325,2.2912,2.2298,2.162,2.0961,2.0318,1.9929,1.9723,1.9723,1.9723,1.9762,1.9947,2.0141,2.0591,2.1388,2.2328,2.3174,2.3923,2.5024,2.5863,2.6282,2.6539,2.6708,2.6708,2.6708,2.6708,2.6708,2.6708,2.6708,2.6708,2.6708,2.6793,2.7182,2.6962,2.6708,1.8776,1.8859,1.9843,2.0271,2.0284,2.0485,2.0984,2.162,0.0,0.0,0.0,2.1291,2.1575,2.1734,2.1919,2.171,2.118,2.0964,2.0878,2.0878,2.1306,2.1491,2.1491,2.1507,2.1705,2.202,2.1338,2.1182,2.1476,2.1166,2.0813,2.0449,2.0348,2.0074,1.9744,1.9723,1.9723,1.9723,1.9723,1.9723,1.9693,1.9151,1.8832,1.8745,1.831,1.7988,1.7804,1.7902,1.7706,1.7188,1.7167,1.6972,1.6543,1.6513,1.6513,1.6513,1.6513,1.6513,1.6513,1.6688,1.6898,1.7052,1.7953,1.8703,1.9212,1.9448,2.0261,2.191,2.2127,2.2585,2.3492,2.3595,2.3595,2.3595,2.3595,2.3595,2.3595,2.3595,2.3595,2.3535,2.3092,2.2448,2.1819,2.1156,2.0449,1.9887,1.9738,1.9747,1.98,1.9821,2.0017,2.0467,2.0634,2.0748,2.1279,2.2341,2.3205,2.3983,2.5045,2.5981,2.6522,2.6708,2.6708,2.6708,2.6708,2.6708,2.6708,2.6708,2.6708,2.6708,2.6708,2.6708,2.6708,2.6708,2.6708,1.7555,1.7575,1.7731,1.7799,1.7921,1.9393,2.0661,2.162,2.0868,2.0613,2.0703,2.0812,2.1156,2.1684,2.1154,2.0858,2.0779,2.0501,2.0399,0.0,2.0862,2.1103,2.1071,2.1086,2.1118,2.1166,2.1039,2.1023,2.1071,2.1007,2.0959,2.0845,2.0515,2.0104,1.9744,1.9723,1.9723,1.9723,1.9723,1.9723,1.9708,1.9618,1.9327,1.8894,1.8786,1.8312,1.7437,1.7402,1.7167,1.6659,1.6616,1.6573,1.65,1.6513,1.6513,1.6513,1.6513,1.6513,1.6525,1.7426,1.8367,1.9233,1.9497,1.9647,1.9872,2.0775,2.169,2.2505,2.3003,2.3404,2.3595,2.3595,2.3595,2.3595,2.3595,2.3595,2.3595,2.3595,2.358,2.3535,2.3062,2.2398,2.171,2.1066,2.0408,1.9887,1.9723,1.9803,2.0141,2.0212,2.0566,2.1212,2.1413,2.1613,2.2047,2.3293,2.4013,2.438,2.5509,2.637,2.6674,2.6708,2.6708,2.6708,2.6708,2.6708,2.6708,2.6708,2.6708,2.6708,2.6708,2.6708,2.6708,2.6708,2.6708,1.6845,1.6947,1.752,1.7972,1.841,2.0124,2.0969,2.1167,2.1225,2.1232,2.1271,2.164,2.1754,2.1665,2.138,2.1032,2.0677,2.0192,1.9965,2.0,2.0431,2.0616,2.0632,2.0616,2.0764,2.0959,2.0515,2.0413,2.0599,2.0398,2.0294,2.0294,2.007,1.9859,1.9726,1.9723,1.9723,1.9723,1.9723,1.9723,1.9723,1.9723,1.9457,1.8912,1.8631,1.8112,1.7333,1.7013,1.6752,1.6509,1.6513,1.6513,1.6513,1.6513,1.6513,1.6513,1.6513,1.6647,1.6974,1.7739,1.8543,1.9296,1.9384,1.9522,1.9872,2.1011,2.1983,2.2649,2.3268,2.3595,2.3595,2.3595,2.3595,2.3595,2.3595,2.3595,2.3595,2.3595,2.346,2.3137,2.2532,2.1904,2.1226,2.0572,2.0079,1.9753,1.9723,1.996,2.0565,2.0666,2.0878,2.1477,2.1597,2.1794,2.2259,2.2803,2.3579,2.4321,2.5049,2.5811,2.6437,2.6708,2.6708,2.6708,2.6708,2.6708,2.6708,2.6708,2.6708,2.6708,2.6708,2.6708,2.6708,2.6708,2.6708,1.6898,1.6992,1.7819,1.8625,1.9406,2.0572,2.1023,2.0962,2.1339,2.1557,2.1783,2.2414,2.2493,2.2128,2.1999,2.156,2.0882,2.0228,1.9839,1.9744,2.0017,2.0158,2.0191,2.016,2.0364,2.0599,2.0015,1.9856,2.0089,1.9839,1.9723,1.9723,1.9723,1.9723,1.9723,1.9723,1.9723,1.9708,1.9584,1.9515,1.9515,1.953,1.9207,1.8574,1.8131,1.7666,1.7139,1.671,1.6513,1.6513,1.6513,1.6513,1.6513,1.6513,1.6513,1.6513,1.6626,1.7024,1.7702,1.8154,1.8594,1.9121,1.9171,1.9346,1.9812,2.083,2.1771,2.2415,2.3165,2.3595,2.3595,2.3595,2.3595,2.3595,2.3595,2.3595,2.3595,2.3595,2.343,2.2912,2.2328,2.171,2.1021,2.0348,1.9914,1.9768,1.9723,2.0032,2.0682,2.0845,2.1039,2.1476,2.1688,2.1999,2.2423,2.2801,2.3444,2.4575,2.4982,2.5659,2.6437,2.6708,2.6708,2.6708,2.6708,2.6708,2.6708,2.6708,2.6708,2.6708,2.6708,2.6708,2.6708,2.6708,2.6708,1.8028,1.8053,1.8161,1.8868,1.9816,1.9486,2.0163,2.1402,2.1107,2.1199,2.1745,2.2416,2.2945,2.331,2.2817,2.2203,2.1575,2.0932,2.0303,1.9798,1.9744,1.9764,1.9812,1.978,1.9782,1.9851,1.9744,1.9759,1.9843,1.9744,1.9723,1.9723,1.9723,1.969,1.969,1.969,1.969,1.969,1.9207,1.8968,1.8968,1.8968,1.8496,1.7497,1.7415,1.7118,1.6637,1.6543,1.6513,1.6513,1.6513,1.6513,1.6525,1.6513,1.6513,1.655,1.7024,1.7752,1.8707,1.8907,1.9146,1.966,1.9698,1.9723,1.9824,2.0472,2.1137,2.1828,2.2891,2.353,2.3595,2.3595,2.3595,2.3595,2.3595,2.3595,2.3595,2.3595,2.3565,2.3535,2.2847,2.2338,2.162,2.0946,2.0333,1.9768,1.9723,1.9874,2.0347,2.05,2.0844,2.1494,2.1961,2.2514,2.3105,2.3881,2.4372,2.5236,2.6015,2.637,2.659,2.6708,2.6708,2.6708,2.6708,2.6708,2.6708,2.6708,2.6708,2.6708,2.6708,2.6708,2.6708,2.6708,2.6708,1.8204,1.8229,1.8531,1.913,1.9784,1.958,2.0128,2.1083,2.0933,2.1138,2.1693,2.1979,2.2457,2.3024,2.2388,2.2155,2.2233,2.1605,2.1141,2.0872,2.0872,2.0662,2.0318,2.0288,2.0288,2.0258,1.9902,1.9917,2.0168,1.9884,1.9723,1.9723,1.9723,1.9548,1.9262,1.9225,1.908,1.8746,1.8535,1.8283,1.8013,1.8263,1.8066,1.7401,1.7312,1.7055,1.6586,1.6513,1.6513,1.6513,1.6513,1.6651,1.7011,1.7024,1.7174,1.7513,1.8041,1.8543,1.8983,1.9284,1.9572,1.9786,1.9798,1.9798,1.9824,2.0421,2.0906,2.1259,2.2323,2.3091,2.3113,2.3399,2.3595,2.3595,2.3595,2.3595,2.3595,2.3595,2.3475,2.3116,2.2853,2.2463,2.1804,2.1126,2.0453,1.9887,1.9723,1.9856,2.0244,2.0533,2.1151,2.2046,2.2653,2.3025,2.3441,2.3611,2.4357,2.5304,2.5845,2.6116,2.6607,2.6691,2.6708,2.6708,2.6708,2.6708,2.6708,2.6708,2.6708,2.6708,2.6708,2.6708,2.6708,2.6708,2.6708,1.8643,1.8706,1.9083,1.9459,1.9798,1.9798,2.008,2.0497,2.0522,2.0782,2.1159,2.1183,2.1544,2.2072,2.1832,2.1909,2.2095,2.167,2.1348,2.1216,2.1344,2.1173,2.071,2.0695,2.0807,2.0825,2.0107,1.9972,2.0372,2.0006,1.9729,1.9714,1.9572,1.9285,1.8945,1.8892,1.8711,1.8354,1.8214,1.7943,1.7646,1.7778,1.7636,1.7152,1.7063,1.69,1.6522,1.6513,1.6513,1.6513,1.666,1.6936,1.7373,1.7536,1.7852,1.838,1.877,1.907,1.9196,1.9585,1.9798,1.9798,1.9798,1.9798,1.9875,2.0258,2.0497,2.0597,2.169,2.2475,2.274,2.3231,2.3573,2.3595,2.3595,2.3595,2.3595,2.3595,2.343,2.3032,2.3017,2.2613,2.1784,2.0961,2.0183,1.9798,1.9708,2.001,2.0508,2.0962,2.1503,2.2537,2.3161,2.3646,2.3904,2.4154,2.4644,2.5355,2.6015,2.6218,2.659,2.6674,2.6708,2.6708,2.6708,2.6708,2.6708,2.6708,2.6708,2.6708,2.6708,2.6708,2.6708,2.6708,2.6708,1.9723,1.971,1.9748,1.9761,1.9798,1.9798,1.9837,1.9927,1.9875,1.9901,1.9965,1.9965,2.027,2.093,2.1394,2.1375,2.0978,2.0962,2.0648,2.0226,2.0592,2.0758,2.0701,2.0701,2.1012,2.136,2.033,1.9841,1.9895,1.9824,1.9808,1.9761,1.9301,1.8962,1.89,1.89,1.8879,1.8747,1.8372,1.817,1.8096,1.7705,1.7219,1.6746,1.659,1.6619,1.655,1.6538,1.6538,1.6525,1.7074,1.7398,1.7473,1.7915,1.8418,1.8907,1.9008,1.9258,1.966,1.9773,1.9798,1.9798,1.9798,1.9798,1.9798,1.9875,1.9952,1.9875,2.1099,2.2053,2.2589,2.3209,2.3573,2.3595,2.3595,2.3595,2.3595,2.3595,2.3595,2.352,2.3475,2.2981,2.1859,2.0561,2.0082,1.9857,1.9753,2.0164,2.1102,2.1448,2.2027,2.2753,2.3537,2.4248,2.5208,2.5169,2.5592,2.6218,2.642,2.6589,2.664,2.6708,2.6708,2.6708,2.6708,2.6708,2.6708,2.6708,2.6708,2.6708,2.6708,2.6708,2.6708,2.6708,2.6708,1.9798,1.9798,1.9798,1.9798,1.9798,1.9798,1.9798,1.9798,1.9798,1.9798,1.9798,1.9798,1.9927,2.0182,2.037,2.0833,2.1323,2.1369,2.1259,2.1052,2.1244,2.1139,2.0803,2.0753,2.0864,2.0931,2.0224,1.9803,1.9803,1.9803,1.9803,1.979,1.962,1.9309,1.9025,1.8972,1.8817,1.8471,1.8282,1.8178,1.8201,1.8019,1.7802,1.7614,1.7601,1.7601,1.7589,1.7601,1.7589,1.7601,1.7802,1.8078,1.843,1.8945,1.9296,1.9497,1.9535,1.961,1.9773,1.9798,1.9798,1.9798,1.9798,1.9798,1.9798,1.9798,1.9798,2.0016,2.0953,2.1805,2.217,2.2958,2.3595,2.3595,2.3595,2.3595,2.3595,2.3595,2.3595,2.3595,2.358,2.3221,2.2508,2.1894,2.1295,2.061,2.0962,2.1393,2.1619,2.2293,2.3256,2.4001,2.4646,2.5295,2.6134,2.5828,2.5812,2.6353,2.6674,2.6657,2.6691,2.6708,2.6708,2.6708,2.6708,2.6708,2.6708,2.6708,2.6708,2.6708,2.6708,2.6708,2.6708,2.6708,2.6708,1.9798,1.9798,1.9798,1.9798,1.9798,1.9798,1.9798,1.9798,1.9798,1.9798,1.9798,1.9798,1.9798,1.9798,1.9798,2.0232,2.1037,2.1073,2.1099,2.111,2.1304,2.1186,2.085,2.0819,2.0912,2.096,2.0447,2.0024,1.983,1.9794,1.9807,1.9797,1.9634,1.9357,1.9058,1.9011,1.88,1.8516,1.8444,1.8468,1.8468,1.8468,1.8444,1.8505,1.8607,1.8543,1.8229,1.8204,1.8204,1.8216,1.8343,1.8682,1.9208,1.9597,1.9798,1.9798,1.9798,1.9798,1.9798,1.9798,1.9798,1.9798,1.9798,1.9798,1.9798,1.9798,1.9798,2.0042,2.072,2.1448,2.1875,2.2688,2.3377,2.353,2.3595,2.3595,2.3595,2.3595,2.3595,2.3565,2.3385,2.3122,2.2778,2.2493,2.1904,2.1111,2.1827,2.2248,2.256,2.3397,2.4464,2.508,2.558,2.5864,2.6251,2.6015,2.6048,2.6539,2.6708,2.6708,2.6708,2.6708,2.6708,2.6708,2.6708,2.6708,2.6708,2.6708,2.6708,2.6708,2.6708,2.6708,2.6708,2.6708,2.6775,1.9798,1.9798,1.9798,1.9798,1.9798,1.9798,1.9798,1.9798,1.9798,1.9798,1.9798,1.9798,1.9798,1.9798,1.9798,1.985,1.9978,2.008,2.0067,2.0029,2.0547,2.0782,2.0692,2.0678,2.0946,2.1377,2.0999,2.0407,1.98,1.9801,1.9813,1.9699,1.9358,1.9192,1.9032,1.9094,1.9032,1.9008,1.8995,1.8995,1.9008,1.9008,1.9008,1.9058,1.9459,1.9246,1.8329,1.8304,1.8355,1.838,1.8757,1.9246,1.9673,1.9836,1.9836,1.9811,1.9811,1.9836,1.9849,1.9874,1.9899,1.9911,1.9849,1.9874,1.9811,1.9861,1.9874,1.9901,2.0498,2.1118,2.1677,2.2369,2.3009,2.3486,2.3595,2.3595,2.3595,2.3595,2.3595,2.3535,2.3206,2.2778,2.2598,2.2403,2.2014,2.1998,2.2371,2.3069,2.3811,2.4587,2.5163,2.5614,2.6066,2.637,2.6268,2.6184,2.6454,2.6708,2.6708,2.6708,2.6708,2.6708,2.6708,2.6708,2.6708,2.6708,2.6708,2.6708,2.6708,2.6708,2.6708,2.6691,2.6708,2.6758,2.6954,1.9798,1.9798,1.9798,1.9798,1.9798,1.9798,1.9798,1.9798,1.9798,1.9798,1.9798,1.9798,1.9798,1.9798,1.9798,1.9798,1.9836,2.0175,2.0214,1.9913,2.0042,2.0131,2.0118,2.0118,2.0207,2.0345,2.0207,2.0029,1.985,1.9798,1.9798,1.9748,1.9635,1.9572,1.9535,1.9534,1.9534,1.956,1.956,1.956,1.9547,1.956,1.956,1.9585,1.9723,1.961,1.9321,1.9309,1.9309,1.9284,1.9459,1.9635,1.9836,2.0214,2.0214,1.9899,2.0214,2.0415,2.0415,2.0415,2.0415,2.0415,2.0415,2.0201,1.9924,2.015,2.0175,1.9976,2.072,2.1471,2.1749,2.23,2.292,2.353,2.3595,2.3595,2.3595,2.3595,2.3595,2.358,2.343,2.3347,2.3302,2.3032,2.2928,2.2942,2.3631,2.4479,2.4795,2.551,2.6152,2.642,2.6657,2.6657,2.6505,2.642,2.6556,2.6708,2.6708,2.6708,2.6708,2.6708,2.6708,2.6708,2.6708,2.6708,2.6708,2.6708,2.6708,2.6708,2.6708,2.6708,2.6725,2.689,2.7082,1.9798,1.9798,1.9798,1.9798,1.9798,1.9798,1.9798,1.9798,1.9798,1.9798,1.9798,1.9798,1.9798,1.9798,1.9798,1.9798,1.9836,2.0226,2.0263,2.0163,2.0125,2.0024,1.9836,1.9798,1.9798,1.9798,1.9798,1.9798,1.9798,1.9798,1.9798,1.9798,1.9798,1.9786,1.9798,1.9798,1.9798,1.9798,1.9786,1.9798,1.9798,1.9798,1.9798,1.9798,1.9798,1.9798,1.9798,1.9798,1.9798,1.9849,1.9999,2.0125,2.0201,2.0666,2.083,2.0602,2.074,2.0993,2.0993,2.1006,2.0993,2.0968,2.0805,2.0553,2.0251,2.0402,2.0151,2.0027,2.0425,2.114,2.165,2.2053,2.2665,2.3508,2.3595,2.3595,2.3595,2.3595,2.3595,2.3595,2.358,2.3595,2.3595,2.3822,2.3838,2.3933,2.4764,2.5494,2.557,2.6117,2.6506,2.6708,2.6691,2.6691,2.6691,2.6674,2.6674,2.6708,2.6708,2.6708,2.6708,2.6708,2.6708,2.6708,2.6708,2.6708,2.6708,2.6708,2.6708,2.6708,2.6708,2.6808,2.689,2.7067,2.7317,1.9798,1.9798,1.9798,1.9798,1.9798,1.9798,1.9798,1.9798,1.9798,1.9798,1.9798,1.9899,1.9911,1.9886,1.9949,1.9974,1.9936,2.0075,2.0402,2.0679,2.0779,2.0616,2.015,2.01,2.01,2.0049,1.9962,1.9899,1.9936,1.9849,1.9823,1.9911,1.9861,1.9849,1.9899,1.9849,1.9798,1.9798,1.9798,1.9798,1.9798,1.9798,1.9798,1.9798,1.9798,1.9798,1.9798,1.9798,1.9798,1.9861,2.0264,2.0503,2.0742,2.1179,2.1405,2.133,2.1496,2.1559,2.1559,2.1559,2.1531,2.1493,2.1194,2.0717,2.0629,2.039,2.01,1.9874,2.0079,2.0575,2.1465,2.1875,2.2432,2.3341,2.3595,2.3595,2.3595,2.3595,2.3595,2.3595,2.3595,2.3595,2.3595,2.397,2.4194,2.457,2.523,2.5642,2.6107,2.6403,2.6624,2.6708,2.6708,2.6708,2.6708,2.6708,2.6708,2.6708,2.6708,2.6708,2.6708,2.6708,2.6708,2.6708,2.6708,2.6708,2.6708,2.6708,2.6708,2.6708,2.6791,2.6923,2.7099,2.727,2.7587,1.9798,1.9798,1.9798,1.9798,1.9798,1.9798,1.9798,1.9798,1.9798,1.9811,1.9899,2.0289,2.044,2.0453,2.0465,2.0679,2.0891,2.0991,2.1079,2.1317,2.1707,2.1556,2.1142,2.1029,2.1004,2.0941,2.0602,2.0453,2.0427,2.0075,2.0075,2.044,2.0075,2.0075,2.0352,2.0037,1.9811,1.9798,1.9798,1.9798,1.9798,1.9798,1.9798,1.9798,1.9798,1.9798,1.9798,1.9798,1.9798,1.9798,1.9924,2.0277,2.0717,2.1217,2.1556,2.1631,2.1895,2.2096,2.2096,2.2096,2.2096,2.2096,2.1895,2.1518,2.0767,2.0943,2.0589,2.0254,2.0527,2.123,2.1678,2.2146,2.2815,2.3406,2.3595,2.3595,2.3595,2.3595,2.3595,2.3595,2.3595,2.3595,2.3638,2.3794,2.4178,2.4812,2.5297,2.5762,2.6262,2.6521,2.6708,2.6708,2.6708,2.6708,2.6708,2.6708,2.6708,2.6708,2.6708,2.6708,2.6708,2.6708,2.6708,2.6708,2.6708,2.6708,2.6708,2.6708,2.6708,2.6708,2.6808,2.6922,2.7255,2.7482,2.7876,1.9798,1.9798,1.9798,1.9798,1.9798,1.9798,1.9798,1.9798,1.9798,1.9949,2.02,2.0528,2.083,2.1031,2.1043,2.1207,2.1455,2.1481,2.1606,2.192,2.2385,2.2184,2.1644,2.1481,2.1481,2.1455,2.1207,2.1069,2.0993,2.0665,2.0754,2.0943,2.0677,2.0702,2.0968,2.049,2.0189,2.0163,1.9975,1.9798,1.9798,1.9798,1.9798,1.9798,1.9798,1.9798,1.9798,1.9798,1.9798,1.9849,2.0049,2.0426,2.1006,2.1559,2.192,2.2159,2.2498,2.2631,2.2631,2.2631,2.2631,2.2569,2.2456,2.202,2.1455,2.1317,2.0767,2.0443,2.094,2.1336,2.1797,2.2529,2.3165,2.353,2.3595,2.3595,2.3595,2.3595,2.3595,2.3595,2.3595,2.3595,2.3595,2.3773,2.4343,2.4989,2.543,2.5962,2.6487,2.6624,2.6708,2.6708,2.6708,2.6708,2.6708,2.6708,2.6708,2.6708,2.6708,2.6708,2.6708,2.6708,2.6708,2.6708,2.6708,2.6708,2.6708,2.6708,2.6708,2.6725,2.6808,2.7083,2.7454,2.7747,2.8143,1.9798,1.9798,1.9798,1.9798,1.9798,1.9798,1.9798,1.9798,1.9798,2.0062,2.0478,2.0704,2.1069,2.1521,2.1546,2.1631,2.1707,2.1707,2.197,2.2355,2.2744,2.2569,2.1933,2.187,2.1857,2.1794,2.1672,2.1568,2.1518,2.1481,2.1493,2.1493,2.1468,2.1506,2.1433,2.0981,2.0704,2.0515,2.0049,1.9811,1.9798,1.9798,1.9798,1.9798,1.9798,1.9798,1.9798,1.9798,1.9798,1.9798,2.0339,2.0742,2.1292,2.1857,2.2347,2.2719,2.2807,2.2895,2.307,2.302,2.307,2.297,2.2619,2.2318,2.2042,2.1443,2.0855,2.0603,2.0796,2.1364,2.2091,2.3002,2.3428,2.3595,2.3595,2.3595,2.3595,2.3595,2.3595,2.3595,2.3595,2.3595,2.3794,2.4095,2.4632,2.5335,2.5707,2.6068,2.6487,2.6657,2.6708,2.6708,2.6708,2.6708,2.6708,2.6708,2.6708,2.6708,2.6708,2.6708,2.6708,2.6708,2.6708,2.6708,2.6708,2.6708,2.6708,2.6708,2.6708,2.6808,2.6906,2.7334,2.7783,2.8016,2.8355,1.9798,1.9798,1.9798,1.9798,1.9798,1.9798,1.9798,1.9798,1.9798,1.9911,2.0188,2.0916,2.1395,2.1556,2.1983,2.2347,2.2569,2.2318,2.2406,2.2895,2.3007,2.302,2.2719,2.2669,2.2706,2.2636,2.2297,2.2146,2.2071,2.1832,2.1732,2.2071,2.1832,2.1719,2.1983,2.1245,2.0691,2.0591,2.01,1.9823,1.9798,1.9798,1.9798,1.9798,1.9798,1.9798,1.9798,1.9798,1.9798,1.9836,1.9974,2.0352,2.0842,2.1081,2.1619,2.2334,2.256,2.2681,2.3007,2.3095,2.3095,2.307,2.2945,2.2744,2.228,2.1707,2.1144,2.0931,2.1201,2.1903,2.2913,2.3363,2.3573,2.3595,2.3595,2.3595,2.3595,2.3595,2.3595,2.3595,2.3595,2.3752,2.4137,2.4241,2.4812,2.5596,2.5979,2.6227,2.6453,2.6691,2.6708,2.6708,2.6708,2.6708,2.6708,2.6708,2.6708,2.6708,2.6708,2.6708,2.6708,2.6708,2.6708,2.6708,2.6708,2.6708,2.6708,2.6708,2.6708,2.6841,2.7035,2.7472,2.7851,2.8179,2.8496,1.9798,1.9798,1.9798,1.9798,1.9798,1.9798,1.9798,1.9798,1.9798,2.0112,2.0627,2.128,2.1757,2.2259,2.2531,2.2857,2.2982,2.2832,2.2819,2.3058,2.3095,2.3095,2.3095,2.3095,2.3095,2.3058,2.2832,2.2681,2.2569,2.2406,2.2418,2.2631,2.2343,2.2431,2.2498,2.1594,2.1129,2.0905,2.0213,1.9798,1.9798,1.9798,1.9798,1.9798,1.9798,1.9798,1.9798,1.9798,1.9962,2.0062,1.9962,2.0088,2.0641,2.0943,2.1481,2.2133,2.2569,2.2744,2.3045,2.3095,2.3095,2.3095,2.3095,2.2957,2.2531,2.1983,2.143,2.1226,2.1527,2.2216,2.3406,2.3595,2.3595,2.3595,2.3595,2.3595,2.3595,2.3595,2.3595,2.3595,2.3595,2.39,2.4178,2.4471,2.4989,2.5744,2.5959,2.6191,2.6521,2.6708,2.6708,2.6708,2.6708,2.6708,2.6708,2.6708,2.6708,2.6708,2.6708,2.6708,2.6708,2.6708,2.6708,2.6708,2.6708,2.6708,2.6708,2.6708,2.6725,2.6841,2.7099,2.7532,2.795,2.8355,2.8658,1.9798,1.9798,1.9798,1.9798,1.9798,1.9798,1.9798,1.9798,1.9798,2.0313,2.123,2.1446,2.197,2.2769,2.3007,2.307,2.2957,2.2932,2.2869,2.2869,2.2706,2.2869,2.297,2.2982,2.2982,2.307,2.3045,2.3045,2.3045,2.3095,2.292,2.3058,2.307,2.297,2.2807,2.2071,2.1418,2.1267,2.0338,1.9798,1.9798,1.9798,1.9798,1.9798,1.9798,1.9798,1.9798,1.9836,2.0012,2.049,2.0062,2.0112,2.0515,2.0981,2.1481,2.197,2.2243,2.2456,2.2631,2.2832,2.2932,2.2982,2.3083,2.3095,2.2857,2.213,2.1581,2.1514,2.1713,2.2225,2.3384,2.3595,2.3595,2.3595,2.3595,2.3595,2.3595,2.3595,2.3595,2.3616,2.3794,2.4137,2.4491,2.4796,2.5354,2.5799,2.5995,2.6208,2.6521,2.6708,2.6708,2.6708,2.6708,2.6708,2.6708,2.6708,2.6708,2.6708,2.6708,2.6708,2.6708,2.6708,2.6708,2.6708,2.6708,2.6708,2.6708,2.6708,2.6758,2.6857,2.7224,2.7736,2.8174,2.8558,2.8791,1.9798,1.9798,1.9798,1.9798,1.9798,1.9798,1.9798,1.9798,1.9798,2.0162,2.0842,2.1292,2.1807,2.2418,2.2945,2.2844,2.2569,2.2498,2.246,2.2343,2.2184,2.2268,2.2857,2.2782,2.2757,2.3007,2.3095,2.3095,2.3095,2.3095,2.3095,2.3095,2.3095,2.3095,2.2757,2.2108,2.1455,2.1242,2.0363,1.9836,1.9798,1.9798,1.9798,1.9798,1.9798,1.9798,1.9798,1.9798,1.9849,1.9924,1.9849,1.9886,2.0037,2.0175,2.0489,2.1006,2.1307,2.1644,2.192,2.2272,2.2393,2.2518,2.2844,2.3083,2.2857,2.2187,2.1589,2.1569,2.176,2.2248,2.3428,2.3595,2.3595,2.3595,2.3595,2.3595,2.3595,2.3595,2.3595,2.3616,2.397,2.441,2.4756,2.5186,2.5744,2.6139,2.6332,2.6435,2.659,2.6708,2.6708,2.6708,2.6708,2.6708,2.6708,2.6708,2.6708,2.6708,2.6708,2.6708,2.6708,2.6708,2.6708,2.6708,2.6708,2.6708,2.6708,2.6708,2.6873,2.7035,2.75,2.7964,2.8308,2.862,2.8839,1.9798,1.9798,1.9798,1.9798,1.9798,1.9798,1.9798,1.9798,1.9811,2.0151,2.0629,2.1006,2.1543,2.2196,2.2518,2.2506,2.2309,2.1983,2.1907,2.182,2.1933,2.2133,2.2719,2.2619,2.2857,2.3045,2.3095,2.3095,2.3095,2.3095,2.3083,2.3095,2.3095,2.297,2.2581,2.192,2.1368,2.0966,2.0275,1.9798,1.9798,1.9798,1.9798,1.9798,1.9798,1.9798,1.9798,1.9798,1.9962,2.0163,1.9974,1.9999,2.0075,2.0012,2.0062,2.0578,2.0905,2.1169,2.1534,2.1983,2.2322,2.2355,2.2782,2.307,2.2832,2.2212,2.1582,2.1691,2.2098,2.2575,2.3508,2.3573,2.3595,2.3595,2.3595,2.3595,2.3595,2.3595,2.3595,2.3659,2.4074,2.4572,2.5105,2.5561,2.6122,2.647,2.6657,2.6708,2.6708,2.6708,2.6708,2.6708,2.6708,2.6708,2.6708,2.6708,2.6708,2.6708,2.6708,2.6708,2.6708,2.6708,2.6708,2.6708,2.6708,2.6708,2.6708,2.6725,2.6971,2.7241,2.7619,2.7992,2.8342,2.8645,2.8875,1.9798,1.9798,1.9798,1.9798,1.9798,1.9798,1.9798,1.9798,1.9798,2.0125,2.0641,2.0754,2.1257,2.1933,2.2108,2.2071,2.197,2.1468,2.1343,2.1355,2.1481,2.1794,2.2217,2.2506,2.2719,2.2832,2.307,2.3095,2.3095,2.3095,2.3045,2.2895,2.2907,2.2669,2.2121,2.1571,2.1106,2.0679,2.0112,1.9811,1.9798,1.9798,1.9798,1.9798,1.9798,1.9798,1.9798,1.9798,2.0013,2.0176,2.0087,1.9987,2.0339,2.0049,2.0024,2.049,2.0955,2.1119,2.127,2.1594,2.1807,2.182,2.2531,2.2832,2.2795,2.2239,2.1798,2.1956,2.23,2.2897,2.345,2.3595,2.3595,2.3595,2.3595,2.3595,2.3595,2.3595,2.3595,2.3794,2.4204,2.4677,2.5182,2.589,2.6435,2.6521,2.6708,2.6708,2.6708,2.6708,2.6708,2.6708,2.6708,2.6708,2.6708,2.6708,2.6708,2.6708,2.6708,2.6708,2.6708,2.6708,2.6708,2.6708,2.6708,2.6708,2.6708,2.6775,2.7052,2.7334,2.7663,2.8061,2.8545,2.8761,2.894,1.9798,1.9798,1.9798,1.9798,1.9798,1.9798,1.9798,1.9798,1.9798,2.0151,2.0616,2.0691,2.0993,2.1468,2.1594,2.1345,2.1043,2.0867,2.0779,2.0767,2.0589,2.0916,2.1481,2.1606,2.2083,2.2397,2.2794,2.307,2.297,2.2957,2.2794,2.2481,2.233,2.2133,2.1609,2.1169,2.0779,2.0591,2.0101,1.9798,1.9798,1.9798,1.9798,1.9798,1.9798,1.9798,1.9798,1.9798,1.9899,1.9899,1.9874,1.9836,1.9886,1.9874,1.9811,1.9899,1.9974,1.9999,2.02,2.0742,2.1094,2.1295,2.187,2.2284,2.2347,2.2428,2.2294,2.2577,2.2717,2.2987,2.345,2.3573,2.3595,2.3595,2.3595,2.3595,2.3595,2.3595,2.3595,2.3921,2.4328,2.4772,2.524,2.5998,2.6674,2.6691,2.6708,2.6708,2.6708,2.6708,2.6708,2.6708,2.6708,2.6708,2.6708,2.6708,2.6708,2.6708,2.6708,2.6708,2.6708,2.6708,2.6708,2.6708,2.6708,2.6691,2.6708,2.6841,2.7115,2.7439,2.7779,2.8281,2.8834,2.897,2.8987,1.9798,1.9798,1.9798,1.9798,1.9798,1.9798,1.9798,1.9798,1.9798,1.9936,2.0163,2.0201,2.0515,2.0968,2.1056,2.093,2.0654,2.0338,2.0201,2.0327,2.0264,2.0566,2.1031,2.1358,2.171,2.182,2.2058,2.2108,2.2272,2.246,2.2355,2.1933,2.182,2.1568,2.1106,2.0817,2.0503,2.0226,1.9924,1.9811,1.9798,1.9798,1.9798,1.9798,1.9798,1.9798,1.9798,1.9798,1.9798,1.9798,1.9798,1.9798,1.9798,1.9798,1.9798,1.9811,1.9811,1.9823,1.9899,2.0365,2.0578,2.0817,2.1373,2.1825,2.197,2.23,2.256,2.2695,2.3031,2.3319,2.3508,2.3573,2.3595,2.3595,2.3595,2.3595,2.3595,2.3595,2.3681,2.4053,2.445,2.4871,2.5354,2.6104,2.6624,2.6708,2.6708,2.6708,2.6708,2.6708,2.6708,2.6708,2.6708,2.6708,2.6708,2.6708,2.6708,2.6708,2.6708,2.6708,2.6708,2.6708,2.6708,2.6708,2.6708,2.6708,2.6691,2.6906,2.7178,2.753,2.7876,2.8347,2.8779,2.894,2.8975,1.9798,1.9798,1.9798,1.9798,1.9798,1.9798,1.9798,1.9798,1.9798,1.9811,1.9798,1.9836,2.0101,2.039,2.0478,2.044,2.0415,1.9999,1.9849,1.9962,2.0201,2.039,2.0629,2.0968,2.1282,2.1333,2.1556,2.1506,2.1509,2.1594,2.1631,2.132,2.132,2.0966,2.0616,2.0415,2.0214,1.9899,1.9836,1.9798,1.9798,1.9798,1.9798,1.9798,1.9798,1.9798,1.9798,1.9798,1.9798,1.9798,1.9798,1.9798,1.9798,1.9798,1.9798,1.9798,1.9798,1.9798,1.9886,2.0176,2.044,2.0654,2.1026,2.1471,2.2007,2.2362,2.2764,2.2955,2.3268,2.3508,2.3595,2.3595,2.3595,2.3595,2.3595,2.3595,2.3595,2.3595,2.3659,2.3921,2.4384,2.4969,2.5505,2.6192,2.659,2.6674,2.6708,2.6708,2.6708,2.6708,2.6708,2.6708,2.6708,2.6708,2.6708,2.6708,2.6708,2.6708,2.6708,2.6708,2.6708,2.6708,2.6708,2.6708,2.6708,2.6691,2.6708,2.6954,2.7224,2.7604,2.7964,2.8264,2.8596,2.8827,2.8964,1.9798,1.9798,1.9798,1.9798,1.9798,1.9798,1.9798,1.9798,1.9798,1.9798,1.9798,1.9811,1.9836,1.9899,1.9962,1.9949,1.9886,1.9823,1.9811,1.9811,1.9861,1.9949,2.0137,2.0451,2.0754,2.083,2.1004,2.1018,2.0867,2.083,2.083,2.0742,2.0742,2.039,2.01,1.9999,1.9974,1.9798,1.9798,1.9798,1.9798,1.9798,1.9798,1.9798,1.9798,1.9798,1.9798,1.9798,1.9798,1.9798,1.9798,1.9798,1.9798,1.9798,1.9798,1.9798,1.9798,1.9798,1.9874,1.9886,1.9874,2.0049,2.051,2.1276,2.2077,2.2446,2.2871,2.3334,2.3523,2.3573,2.3595,2.3595,2.3595,2.3595,2.3595,2.3595,2.3595,2.3595,2.3681,2.3837,2.4343,2.5028,2.558,2.6263,2.659,2.6691,2.6708,2.6708,2.6708,2.6708,2.6708,2.6708,2.6708,2.6708,2.6708,2.6708,2.6708,2.6708,2.6708,2.6708,2.6708,2.6708,2.6708,2.6708,2.6708,2.6708,2.6725,2.6841,2.7115,2.7619,2.802,2.8342,2.8633,2.8887,2.8975,1.9798,1.9798,1.9798,1.9798,1.9798,1.9798,1.9798,1.9798,1.9798,1.9798,1.9798,1.9798,1.9798,1.9798,1.9798,1.9798,1.9798,1.9798,1.9798,1.9798,1.9798,1.9798,1.9924,1.9999,2.0176,2.02,2.0388,2.0413,2.0175,2.0226,2.0163,2.0163,2.0214,2.0075,1.9849,1.9798,1.9798,1.9798,1.9798,1.9798,1.9798,1.9798,1.9798,1.9798,1.9798,1.9798,1.9798,1.9798,1.9798,1.9798,1.9798,1.9798,1.9798,1.9798,1.9798,1.9798,1.9798,1.9798,1.9798,1.9798,1.9798,1.9926,2.0412,2.1164,2.2104,2.2398,2.2945,2.3334,2.3595,2.3595,2.3595,2.3595,2.3595,2.3595,2.3595,2.3595,2.3595,2.3595,2.3815,2.4027,2.4612,2.5278,2.5799,2.6314,2.6539,2.6708,2.6708,2.6708,2.6708,2.6708,2.6708,2.6708,2.6708,2.6708,2.6708,2.6708,2.6708,2.6708,2.6708,2.6708,2.6708,2.6708,2.6708,2.6708,2.6708,2.6708,2.6708,2.6708,2.7004,2.753,2.802,2.842,2.8707,2.8964,2.8987,1.9798,1.9798,1.9798,1.9798,1.9798,1.9798,1.9798,1.9798,1.9798,1.9798,1.9798,1.9798,1.9798,1.9798,1.9798,1.9798,1.9798,1.9798,1.9798,1.9798,1.9798,1.9798,1.9798,1.9823,1.9886,1.9798,1.9798,1.9836,1.9874,1.9811,1.9849,1.9861,1.9798,1.9811,1.9811,1.9798,1.9798,1.9798,1.9798,1.9798,1.9798,1.9798,1.9798,1.9798,1.9798,1.9798,1.9798,1.9798,1.9798,1.9798,1.9798,1.9798,1.9798,1.9798,1.9798,1.9798,1.9798,1.9798,1.9798,1.9798,1.9901,2.022,2.0485,2.1191,2.188,2.2452,2.2941,2.348,2.3595,2.3595,2.3595,2.3595,2.3595,2.3595,2.3595,2.3595,2.3595,2.3616,2.3964,2.4261,2.4871,2.5392,2.589,2.6349,2.6556,2.6708,2.6708,2.6708,2.6708,2.6708,2.6708,2.6708,2.6708,2.6708,2.6708,2.6708,2.6708,2.6708,2.6708,2.6708,2.6708,2.6708,2.6708,2.6708,2.6708,2.6708,2.6708,2.6708,2.7019,2.7439,2.8002,2.8633,2.8773,2.8987,2.8987,1.9798,1.9798,1.9798,1.9798,1.9798,1.9798,1.9798,1.9798,1.9798,1.9798,1.9798,1.9798,1.9798,1.9798,1.9798,1.9798,1.9798,1.9798,1.9798,1.9798,1.9798,1.9798,1.9798,1.9798,1.9798,1.9798,1.9798,1.9798,1.9798,1.9798,1.9798,1.9798,1.9798,1.9798,1.9798,1.9798,1.9798,1.9798,1.9798,1.9798,1.9798,1.9798,1.9798,1.9798,1.9798,1.9798,1.9798,1.9798,1.9798,1.9798,1.9798,1.9798,1.9798,1.9798,1.9798,1.9798,1.9798,1.9798,1.9798,1.9798,2.008,2.0572,2.082,2.1403,2.2314,2.2785,2.2987,2.3551,2.3595,2.3595,2.3595,2.3595,2.3595,2.3595,2.3595,2.3595,2.3595,2.3616,2.3921,2.4471,2.4934,2.5392,2.5926,2.6367,2.659,2.6708,2.6708,2.6708,2.6708,2.6708,2.6708,2.6708,2.6708,2.6708,2.6708,2.6708,2.6708,2.6708,2.6708,2.6708,2.6708,2.6708,2.6708,2.6708,2.6708,2.6708,2.6708,2.6741,2.7194,2.7678,2.8321,2.8827,2.894,2.8987,2.8987,1.9798,1.9798,1.9798,1.9798,1.9798,1.9798,1.9798,1.9798,1.9798,1.9798,1.9798,1.9798,1.9798,1.9798,1.9798,1.9798,1.9798,1.9798,1.9798,1.9798,1.9798,1.9798,1.9798,1.9798,1.9798,1.9798,1.9798,1.9798,1.9798,1.9798,1.9798,1.9798,1.9798,1.9798,1.9798,1.9798,1.9798,1.9798,1.9798,1.9798,1.9798,1.9798,1.9798,1.9798,1.9798,1.9798,1.9798,1.9798,1.9798,1.9798,1.9798,1.9798,1.9798,1.9798,1.9798,1.9798,1.9798,1.9798,1.9798,1.985,2.0118,2.0658,2.121,2.1738,2.2581,2.3098,2.3363,2.353,2.3573,2.3595,2.3595,2.3595,2.3595,2.3595,2.3595,2.3595,2.3595,2.3616,2.3858,2.4617,2.5205,2.5728,2.6263,2.6436,2.6641,2.6708,2.6708,2.6708,2.6708,2.6708,2.6708,2.6708,2.6708,2.6708,2.6708,2.6708,2.6708,2.6708,2.6708,2.6708,2.6708,2.6708,2.6708,2.6708,2.6708,2.6708,2.6775,2.6923,2.7439,2.7978,2.8443,2.8815,2.8964,2.8987,2.8987,1.9798,1.9798,1.9798,1.9798,1.9798,1.9798,1.9798,1.9798,1.9798,1.9798,1.9798,1.9798,1.9798,1.9798,1.9798,1.9798,1.9798,1.9798,1.9798,1.9798,1.9798,1.9798,1.9798,1.9811,1.9798,1.9798,1.9798,1.9798,1.9798,1.9798,1.9798,1.9798,1.9798,1.9798,1.9798,1.9798,1.9798,1.9798,1.9798,1.9798,1.9798,1.9798,1.9798,1.9798,1.9798,1.9798,1.9798,1.9798,1.9798,1.9798,1.9798,1.9798,1.9798,1.9798,1.9798,1.9798,1.9798,1.9798,1.9798,2.0144,2.0509,2.1113,2.152,2.2109,2.2793,2.3341,2.3486,2.3573,2.3595,2.3595,2.3595,2.3595,2.3595,2.3595,2.3595,2.3595,2.3638,2.3659,2.4116,2.4855,2.5505,2.6052,2.6487,2.6573,2.6708,2.6708,2.6708,2.6708,2.6708,2.6708,2.6708,2.6708,2.6708,2.6708,2.6708,2.6708,2.6708,2.6708,2.6708,2.6708,2.6708,2.6708,2.6708,2.6708,2.6708,2.6725,2.6841,2.7115,2.753,2.7894,2.8255,2.8596,2.8917,2.8987,2.8987,1.9798,1.9798,1.9798,1.9798,1.9798,1.9798,1.9798,1.9798,1.9798,1.9798,1.9798,1.9798,1.9798,1.9798,1.9798,1.9798,1.9798,1.9798,1.9874,1.9849,1.9861,1.9861,1.9874,1.9861,1.9811,1.9798,1.9798,1.9798,1.9798,1.9798,1.9798,1.9798,1.9798,1.9798,1.9798,1.9798,1.9798,1.9798,1.9798,1.9798,1.9798,1.9798,1.9798,1.9798,1.9798,1.9798,1.9798,1.9798,1.9798,1.9798,1.9798,1.9798,1.9798,1.9798,1.9798,1.9798,1.9798,1.9798,1.9901,2.0295,2.0917,2.1438,2.1734,2.2469,2.3113,2.353,2.3573,2.3595,2.3595,2.3595,2.3595,2.3595,2.3595,2.3595,2.3595,2.3638,2.3687,2.397,2.4511,2.5109,2.5726,2.6227,2.6556,2.6708,2.6708,2.6708,2.6708,2.6708,2.6708,2.6708,2.6708,2.6708,2.6708,2.6708,2.6708,2.6708,2.6708,2.6708,2.6708,2.6708,2.6708,2.6708,2.6708,2.6708,2.6708,2.6775,2.6971,2.7225,2.753,2.7894,2.8321,2.8583,2.8975,2.8987,2.8987,1.9798,1.9798,1.9798,1.9798,1.9798,1.9798,1.9798,1.9798,1.9798,1.9798,1.9798,1.9798,1.9798,1.9798,1.9798,1.9798,1.9798,1.9861,2.0151,2.0151,1.9949,2.0112,2.0151,1.9999,1.9861,1.9798,1.9798,1.9798,1.9798,1.9798,1.9798,1.9798,1.9798,1.9798,1.9798,1.9798,1.9798,1.9798,1.9798,1.9798,1.9798,1.9798,1.9798,1.9798,1.9798,1.9798,1.9798,1.9798,1.9798,1.9798,1.9798,1.9798,1.9798,1.9798,1.9798,1.9798,1.9798,1.9824,1.9901,2.0421,2.1102,2.1748,2.2146,2.2756,2.3341,2.3595,2.3595,2.3595,2.3595,2.3595,2.3595,2.3595,2.3595,2.3595,2.3595,2.3616,2.373,2.4163,2.4716,2.5433,2.6033,2.6367,2.6674,2.6708,2.6708,2.6708,2.6708,2.6708,2.6708,2.6708,2.6708,2.6708,2.6708,2.6708,2.6708,2.6708,2.6708,2.6708,2.6708,2.6708,2.6708,2.6708,2.6708,2.6708,2.6708,2.689,2.7147,2.7409,2.7707,2.817,2.8583,2.8803,2.8952,2.8975,2.8987,1.9798,1.9798,1.9798,1.9798,1.9798,1.9798,1.9798,1.9798,1.9798,1.9798,1.9798,1.9798,1.9798,1.9798,1.9798,1.9798,1.9798,1.9811,1.9962,2.005,1.9987,2.0037,2.0088,2.005,1.9849,1.9798,1.9798,1.9798,1.9798,1.9798,1.9798,1.9798,1.9798,1.9798,1.9798,1.9798,1.9798,1.9798,1.9798,1.9798,1.9798,1.9798,1.9798,1.9798,1.9798,1.9798,1.9798,1.9798,1.9798,1.9798,1.9798,1.9798,1.9798,1.9798,1.9798,1.9798,1.9798,2.0003,2.027,2.083,2.1438,2.2053,2.2643,2.3143,2.3399,2.3595,2.3595,2.3595,2.3595,2.3595,2.3595,2.3595,2.3595,2.3595,2.3595,2.3595,2.3927,2.4348,2.5012,2.5746,2.621,2.6522,2.6708,2.6708,2.6708,2.6708,2.6708,2.6708,2.6708,2.6708,2.6708,2.6708,2.6708,2.6708,2.6708,2.6708,2.6708,2.6708,2.6708,2.6708,2.6708,2.6708,2.6708,2.6708,2.6708,2.6955,2.7241,2.7604,2.7936,2.8386,2.8707,2.8875,2.8975,2.8975,2.8987,1.9798,1.9798,1.9798,1.9798,1.9798,1.9798,1.9798,1.9798,1.9798,1.9798,1.9798,1.9798,1.9798,1.9798,1.9798,1.9798,1.9798,1.9811,1.9924,1.9861,1.9849,1.9936,2.0037,1.9836,1.9811,1.9798,1.9798,1.9798,1.9798,1.9798,1.9798,1.9798,1.9798,1.9798,1.9798,1.9798,1.9798,1.9798,1.9798,1.9798,1.9798,1.9798,1.9798,1.9798,1.9798,1.9798,1.9798,1.9798,1.9798,1.9798,1.9798,1.9798,1.9798,1.9798,1.9798,1.9875,1.9901,2.0257,2.072,2.1293,2.1769,2.2443,2.3201,2.322,2.3229,2.352,2.358,2.3595,2.3595,2.3595,2.3595,2.3595,2.3595,2.3595,2.3595,2.3709,2.4032,2.4637,2.5524,2.6123,2.6419,2.6708,2.6708,2.6708,2.6708,2.6708,2.6708,2.6708,2.6708,2.6708,2.6708,2.6708,2.6708,2.6708,2.6708,2.6708,2.6708,2.6708,2.6708,2.6708,2.6708,2.6708,2.6708,2.6708,2.6725,2.702,2.7319,2.7678,2.8061,2.8489,2.8773,2.894,2.8987,2.8987,2.8987,1.9798,1.9798,1.9798,1.9798,1.9798,1.9798,1.9798,1.9798,1.9798,1.9798,1.9798,1.9798,1.9798,1.9798,1.9798,1.9798,1.9798,1.9823,2.0075,2.0087,1.9999,1.9987,2.0251,1.9936,1.9836,1.9798,1.9798,1.9798,1.9798,1.9798,1.9798,1.9798,1.9798,1.9798,1.9798,1.9798,1.9798,1.9798,1.9798,1.9798,1.9798,1.9798,1.9798,1.9798,1.9798,1.9798,1.9798,1.9798,1.9798,1.9798,1.9798,1.9798,1.9798,1.9798,2.008,2.0346,2.0156,2.0559,2.1221,2.1669,2.194,2.2312,2.2731,2.2676,2.2802,2.3295,2.3565,2.3565,2.3595,2.3595,2.3595,2.3595,2.3595,2.3595,2.3616,2.3864,2.4122,2.5051,2.598,2.6349,2.6641,2.6708,2.6708,2.6708,2.6708,2.6708,2.6708,2.6708,2.6708,2.6708,2.6708,2.6708,2.6708,2.6708,2.6708,2.6708,2.6708,2.6708,2.6708,2.6708,2.6708,2.6708,2.6708,2.6708,2.6775,2.7116,2.7441,2.7736,2.8129,2.8608,2.8809,2.8964,2.8987,2.8987,2.8987,1.9798,1.9798,1.9798,1.9798,1.9798,1.9798,1.9798,1.9798,1.9798,1.9798,1.9798,1.9798,1.9798,1.9798,1.9798,1.9798,1.9798,1.9798,1.9924,2.0049,2.0087,2.0024,2.0012,1.9974,1.9874,1.9798,1.9798,1.9798,1.9798,1.9798,1.9798,1.9798,1.9798,1.9798,1.9798,1.9798,1.9798,1.9798,1.9798,1.9798,1.9798,1.9798,1.9798,1.9798,1.9798,1.9798,1.9798,1.9798,1.9798,1.9798,1.9798,1.9798,1.9798,1.9798,2.0156,2.0485,2.0622,2.0794,2.1677,2.2099,2.2107,2.244,2.2927,2.3086,2.2338,2.2772,2.3281,2.3325,2.355,2.358,2.3595,2.3595,2.3595,2.3595,2.3702,2.39,2.4532,2.5411,2.6104,2.6539,2.6708,2.6708,2.6708,2.6708,2.6708,2.6708,2.6708,2.6708,2.6708,2.6708,2.6708,2.6708,2.6708,2.6708,2.6708,2.6708,2.6708,2.6708,2.6708,2.6708,2.6708,2.6708,2.6708,2.6758,2.6939,2.7288,2.7622,2.7922,2.8321,2.8785,2.891,2.8987,2.9005,2.9042,2.9097,1.9798,1.9798,1.9798,1.9798,1.9798,1.9798,1.9798,1.9798,1.9798,1.9798,1.9798,1.9798,1.9798,1.9798,1.9798,1.9798,1.9798,1.9798,1.9849,1.9861,1.9836,1.9886,1.9874,1.9811,1.9798,1.9798,1.9798,1.9798,1.9798,1.9798,1.9798,1.9798,1.9798,1.9798,1.9798,1.9798,1.9798,1.9798,1.9798,1.9798,1.9798,1.9798,1.9798,1.9798,1.9798,1.9798,1.9798,1.9798,1.9798,1.9798,1.9798,1.9798,1.9798,1.9824,2.0232,2.056,2.0759,2.1369,2.2244,2.2566,2.26,2.2821,2.3327,2.3116,2.2323,2.2383,2.2897,2.3092,2.3281,2.358,2.3595,2.3565,2.3565,2.3694,2.3843,2.4095,2.493,2.5726,2.6228,2.6708,2.6708,2.6708,2.6708,2.6708,2.6708,2.6708,2.6708,2.6708,2.6708,2.6708,2.6708,2.6708,2.6708,2.6708,2.6708,2.6708,2.6708,2.6708,2.6708,2.6708,2.6708,2.6708,2.6758,2.6906,2.7115,2.7454,2.7805,2.8156,2.8552,2.8947,2.8964,2.9005,2.9115,2.9152,2.9262,1.9798,1.9798,1.9798,1.9798,1.9798,1.9798,1.9798,1.9798,1.9798,1.9798,1.9798,1.9798,1.9798,1.9798,1.9798,1.9798,1.9798,1.9798,1.9798,1.9811,1.9798,1.9798,1.9798,1.9798,1.9798,1.9798,1.9798,1.9798,1.9798,1.9798,1.9798,1.9798,1.9798,1.9798,1.9798,1.9798,1.9798,1.9798,1.9798,1.9798,1.9798,1.9798,1.9798,1.9798,1.9798,1.9798,1.9798,1.9798,1.9798,1.9798,1.9798,1.9798,1.9798,1.985,2.022,2.0771,2.0944,2.1657,2.2383,2.2762,2.2863,2.2629,2.2927,2.2772,2.2308,2.2293,2.2568,2.2478,2.2787,2.346,2.358,2.3505,2.3496,2.3872,2.4102,2.4621,2.5278,2.5962,2.6556,2.6708,2.6708,2.6708,2.6708,2.6708,2.6708,2.6708,2.6708,2.6708,2.6708,2.6708,2.6708,2.6708,2.6708,2.6708,2.6708,2.6708,2.6708,2.6708,2.6708,2.6708,2.6708,2.6708,2.6791,2.702,2.7286,2.7601,2.7974,2.8458,2.8675,2.8972,2.8982,2.9023,2.917,2.9427,2.9677]}]]